[[{"header":{"parameterUnit":"m.s-1","parameterCategory":1,"la1":31.0,"la2":29.5877,"lo1":-88.7671,"lo2":-86.6584,"dx":0.0162,"dy":0.0185,"nx":115,"ny":88,"refTime":"2023-01-14T18:00:00:Z","depth":0,"parameterNumber":2,"parameterNumberName":"U-component_of_WINDS"},"data":[0.0,0.0,0.0,0.0,0.0,0.0,0.0,0.0,0.0,0.0,0.0,0.0,0.0,0.0,0.0,0.0,0.0,0.0,0.0,0.0,0.0,0.0,0.0,0.0,0.0,0.0,0.0,0.0,0.0,0.0,0.0,0.0,0.0,0.0,0.0,0.0,0.0,0.0,0.0,0.0,0.0,0.0,0.0,0.0,0.0,0.0,0.0,0.0,0.0,0.0,0.0,0.0,0.0,0.0,0.0,0.0,0.0,0.0,0.0,0.0,0.0,0.0,0.0,0.0,0.0,0.0,0.0,0.0,0.0,0.0,0.0,0.0,0.0,0.0,0.0,0.0,0.0,0.0,0.0,0.0,0.0,0.0,0.0,0.0,0.0,0.0,0.0,0.0,0.0,0.0,0.0,0.0,0.0,0.0,0.0,0.0,0.0,0.0,0.0,0.0,0.0,0.0,0.0,0.0,0.0,0.0,0.0,0.0,0.0,0.0,0.0,0.0,0.0,0.0,0.0,0.0,0.0,0.0,0.0,0.0,0.0,0.0,0.0,0.0,0.0,0.0,0.0,0.0,0.0,0.0,0.0,0.0,0.0,0.0,0.0,0.0,0.0,0.0,0.0,0.0,0.0,0.0,0.0,0.0,0.0,0.0,0.0,0.0,0.0,0.0,0.0,0.0,0.0,0.0,0.0,0.0,0.0,0.0,0.0,0.0,0.0,0.0,0.0,0.0,0.0,0.0,0.0,0.0,0.0,0.0,0.0,0.0,0.0,0.0,0.0,0.0,0.0,0.0,0.0,0.0,0.0,0.0,0.0,0.0,0.0,0.0,0.0,0.0,0.0,0.0,0.0,0.0,0.0,0.0,0.0,0.0,0.0,0.0,0.0,0.0,0.0,0.0,0.0,0.0,0.0,0.0,0.0,0.0,0.0,0.0,0.0,0.0,0.0,0.0,0.0,0.0,0.0,0.0,0.0,0.0,0.0,0.0,0.0,0.0,0.0,0.0,0.0,0.0,0.0,0.0,0.0,0.0,0.0,0.0,0.0,0.0,0.0,0.0,0.0,0.0,0.0,0.0,0.0,0.0,0.0,0.0,0.0,0.0,0.0,0.0,0.0,0.0,0.0,0.0,0.0,0.0,0.0,0.0,0.0,0.0,0.0,0.0,0.0,0.0,0.0,0.0,0.0,0.0,0.0,0.0,0.0,0.0,0.0,0.0,0.0,0.0,0.0,0.0,0.0,0.0,0.0,0.0,0.0,0.0,0.0,0.0,0.0,0.0,0.0,0.0,0.0,0.0,0.0,0.0,0.0,0.0,0.0,0.0,0.0,0.0,0.0,0.0,0.0,0.0,0.0,0.0,0.0,0.0,0.0,0.0,0.0,0.0,0.0,0.0,0.0,0.0,0.0,0.0,0.0,0.0,0.0,0.0,0.0,0.0,0.0,0.0,0.0,0.0,0.0,0.0,0.0,0.0,0.0,0.0,0.0,0.0,0.0,0.0,0.0,0.0,0.0,0.0,0.0,0.0,0.0,0.0,0.0,0.0,0.0,0.0,0.0,0.0,0.0,0.0,0.0,0.0,0.0,0.0,0.0,0.0,0.0,0.0,0.0,0.0,0.0,0.0,0.0,0.0,0.0,0.0,0.0,0.0,0.0,0.0,0.0,0.0,0.0,0.0,0.0,0.0,0.0,0.0,0.0,0.0,0.0,0.0,0.0,0.0,0.0,0.0,0.0,0.0,0.0,0.0,0.0,0.0,0.0,0.0,0.0,0.0,0.0,0.0,0.0,0.0,0.0,0.0,0.0,0.0,0.0,0.0,0.0,0.0,0.0,0.0,0.0,0.0,0.0,0.0,0.0,0.0,0.0,0.0,0.0,0.0,0.0,0.0,0.0,0.0,0.0,0.0,0.0,0.0,0.0,0.0,0.0,0.0,0.0,0.0,0.0,0.0,0.0,0.0,0.0,0.0,0.0,0.0,0.0,0.0,0.0,0.0,0.0,0.0,0.0,0.0,0.0,0.0,0.0,0.0,0.0,0.0,0.0,0.0,0.0,0.0,0.0,0.0,0.0,0.0,0.0,0.0,0.0,0.0,0.0,0.0,0.0,0.0,0.0,0.0,0.0,0.0,0.0,0.0,0.0,0.0,0.0,0.0,0.0,0.0,0.0,0.0,0.0,0.0,0.0,0.0,0.0,0.0,0.0,0.0,0.0,0.0,0.0,0.0,0.0,0.0,0.0,0.0,0.0,0.0,0.0,0.0,0.0,0.0,0.0,0.0,0.0,0.0,0.0,0.0,0.0,0.0,0.0,0.0,0.0,0.0,0.0,0.0,0.0,0.0,0.0,0.0,0.0,0.0,0.0,0.0,0.0,0.0,0.0,0.0,0.0,0.0,0.0,0.0,0.0,0.0,0.0,0.0,0.0,0.0,0.0,0.0,0.0,0.0,0.0,0.0,0.0,0.0,0.0,0.0,0.0,0.0,0.0,0.0,0.0,0.0,0.0,0.0,0.0,0.0,0.0,0.0,0.0,0.0,0.0,0.0,0.0,0.0,0.0,0.0,0.0,0.0,0.0,0.0,0.0,0.0,0.0,0.0,0.0,0.0,0.0,0.0,0.0,0.0,0.0,0.0,0.0,0.0,0.0,0.0,0.0,0.0,0.0,0.0,0.0,0.0,0.0,0.0,0.0,0.0,0.0,0.0,0.0,0.0,0.0,0.0,0.0,0.0,0.0,0.0,0.0,0.0,0.0,0.0,0.0,0.0,0.0,0.0,0.0,0.0,0.0,0.0,0.0,0.0,0.0,0.0,0.0,0.0,0.0,0.0,0.0,0.0,0.0,0.0,0.0,0.0,0.0,0.0,0.0,0.0,0.0,0.0,0.0,0.0,0.0,0.0,0.0,0.0,0.0,0.0,0.0,0.0,0.0,0.0,0.0,0.0,0.0,0.0,0.0,0.0,0.0,0.0,0.0,0.0,0.0,0.0,0.0,0.0,0.0,0.0,0.0,0.0,0.0,0.0,0.0,0.0,0.0,0.0,0.0,0.0,0.0,0.0,0.0,0.0,0.0,0.0,0.0,0.0,0.0,0.0,0.0,0.0,0.0,0.0,0.0,0.0,0.0,0.0,0.0,0.0,0.0,0.0,0.0,0.0,0.0,0.0,0.0,0.0,0.0,0.0,0.0,0.0,0.0,0.0,0.0,0.0,0.0,0.0,0.0,0.0,0.0,0.0,0.0,0.0,0.0,0.0,0.0,0.0,0.0,0.0,0.0,0.0,0.0,0.0,0.0,0.0,0.0,0.0,0.0,0.0,0.0,0.0,0.0,0.0,0.0,0.0,0.0,0.0,0.0,0.0,0.0,0.0,0.0,0.0,0.0,0.0,0.0,0.0,0.0,0.0,0.0,0.0,0.0,0.0,0.0,0.0,0.0,0.0,0.0,0.0,0.0,0.0,0.0,0.0,0.0,0.0,0.0,0.0,0.0,0.0,0.0,0.0,0.0,0.0,0.0,0.0,0.0,0.0,0.0,0.0,0.0,0.0,0.0,0.0,0.0,0.0,0.0,0.0,0.0,0.0,0.0,0.0,0.0,0.0,0.0,0.0,0.0,0.0,0.0,0.0,0.0,0.0,0.0,0.0,0.0,0.0,0.0,0.0,0.0,0.0,0.0,0.0,0.0,0.0,0.0,0.0,0.0,0.0,0.0,0.0,0.0,0.0,0.0,0.0,0.0,0.0,0.0,0.0,0.0,0.0,0.0,0.0,0.0,0.0,0.0,0.0,0.0,0.0,0.0,0.0,0.0,0.0,0.0,0.0,0.0,0.0,0.0,0.0,0.0,0.0,0.0,0.0,0.0,0.0,0.0,0.0,0.0,0.0,0.0,0.0,0.0,0.0,0.0,0.0,0.0,0.0,0.0,0.0,0.0,0.0,0.0,0.0,0.0,0.0,0.0,0.0,0.0,0.0,0.0,0.0,0.0,0.0,0.0,0.0,0.0,0.0,0.0,0.0,0.0,0.0,0.0,0.0,0.0,0.0,0.0,0.0,0.0,0.0,0.0,0.0,0.0,0.0,0.0,0.0,0.0,0.0,0.0,0.0,0.0,0.0,0.0,0.0,0.0,0.0,0.0,0.0,0.0,0.0,0.0,0.0,0.0,0.0,0.0,0.0,0.0,0.0,0.0,0.0,0.0,0.0,0.0,0.0,0.0,0.0,0.0,0.0,0.0,0.0,0.0,0.0,0.0,0.0,0.0,0.0,0.0,0.0,0.0,0.0,-1.2737,0.0,0.0,0.0,0.0,0.0,0.0,0.0,0.0,0.0,0.0,0.0,0.0,0.0,0.0,0.0,0.0,0.0,0.0,0.0,0.0,0.0,0.0,0.0,0.0,0.0,0.0,0.0,0.0,0.0,0.0,0.0,0.0,0.0,0.0,0.0,0.0,0.0,0.0,0.0,0.0,0.0,0.0,0.0,0.0,0.0,0.0,0.0,0.0,0.0,0.0,0.0,0.0,0.0,0.0,0.0,0.0,0.0,0.0,0.0,0.0,0.0,0.0,0.0,0.0,0.0,0.0,0.0,0.0,0.0,0.0,0.0,0.0,0.0,0.0,0.0,0.0,0.0,0.0,0.0,0.0,0.0,0.0,0.0,0.0,0.0,0.0,0.0,0.0,0.0,0.0,0.0,0.0,0.0,0.0,0.0,0.0,0.0,0.0,0.0,0.0,0.0,0.0,0.0,0.0,0.0,0.0,0.0,0.0,0.0,0.0,-1.243,-1.1683,-1.3746,-1.4235,-1.2938,0.0,0.0,0.0,0.0,0.0,0.0,0.0,0.0,0.0,0.0,0.0,0.0,0.0,0.0,0.0,0.0,0.0,0.0,0.0,0.0,0.0,0.0,0.0,0.0,0.0,0.0,0.0,0.0,0.0,0.0,0.0,0.0,0.0,0.0,0.0,0.0,0.0,0.0,0.0,0.0,0.0,0.0,0.0,0.0,0.0,0.0,0.0,0.0,0.0,0.0,0.0,0.0,0.0,0.0,0.0,0.0,0.0,0.0,0.0,0.0,0.0,0.0,0.0,0.0,0.0,0.0,0.0,0.0,0.0,0.0,0.0,0.0,0.0,0.0,0.0,0.0,0.0,0.0,0.0,0.0,0.0,0.0,0.0,0.0,0.0,0.0,0.0,0.0,0.0,0.0,0.0,0.0,0.0,0.0,0.0,0.0,0.0,0.0,0.0,0.0,0.0,0.0,0.0,0.0,0.0,0.0,0.0,0.0,0.0,0.0,0.0,0.0,-1.4285,-1.4714,-1.3627,0.0,0.0,0.0,0.0,0.0,0.0,0.0,0.0,0.0,0.0,0.0,0.0,0.0,0.0,0.0,0.0,0.0,0.0,0.0,0.0,0.0,0.0,0.0,0.0,0.0,0.0,0.0,0.0,0.0,0.0,0.0,0.0,0.0,0.0,0.0,0.0,0.0,0.0,0.0,0.0,0.0,0.0,0.0,0.0,0.0,0.0,0.0,0.0,0.0,0.0,0.0,0.0,0.0,0.0,0.0,0.0,0.0,0.0,0.0,0.0,0.0,0.0,0.0,0.0,0.0,0.0,0.0,0.0,0.0,0.0,0.0,0.0,0.0,0.0,0.0,0.0,0.0,0.0,0.0,0.0,0.0,0.0,0.0,0.0,0.0,0.0,0.0,0.0,0.0,0.0,0.0,0.0,0.0,0.0,0.0,0.0,0.0,0.0,0.0,0.0,0.0,0.0,0.0,0.0,0.0,0.0,0.0,0.0,0.0,0.0,-1.1323,-1.2973,-1.3531,0.0,-1.46,0.0,0.0,0.0,0.0,0.0,0.0,0.0,0.0,0.0,0.0,0.0,0.0,0.0,0.0,0.0,0.0,0.0,0.0,0.0,0.0,0.0,0.0,0.0,0.0,0.0,0.0,0.0,0.0,0.0,0.0,0.0,0.0,0.0,0.0,0.0,0.0,0.0,0.0,0.0,0.0,0.0,0.0,0.0,0.0,0.0,0.0,0.0,0.0,0.0,0.0,0.0,0.0,0.0,0.0,0.0,0.0,0.0,0.0,0.0,0.0,0.0,0.0,0.0,0.0,0.0,0.0,0.0,0.0,0.0,0.0,0.0,0.0,0.0,0.0,0.0,0.0,0.0,0.0,0.0,0.0,0.0,0.0,0.0,0.0,0.0,0.0,0.0,0.0,0.0,0.0,0.0,0.0,0.0,0.0,0.0,0.0,0.0,0.0,0.0,0.0,0.0,0.0,0.0,0.0,0.0,0.0,0.0,0.0,0.0,0.0,-1.1686,-1.3069,-1.3697,-1.4019,0.0,0.0,0.0,0.0,0.0,0.0,0.0,0.0,0.0,0.0,0.0,0.0,0.0,0.0,0.0,0.0,0.0,0.0,0.0,0.0,0.0,0.0,0.0,0.0,0.0,0.0,0.0,0.0,0.0,0.0,0.0,0.0,0.0,0.0,0.0,0.0,0.0,0.0,0.0,0.0,0.0,0.0,0.0,0.0,0.0,0.0,0.0,0.0,0.0,0.0,0.0,0.0,0.0,0.0,0.0,0.0,0.0,0.0,0.0,0.0,0.0,0.0,0.0,0.0,0.0,0.0,0.0,0.0,0.0,0.0,0.0,0.0,0.0,0.0,0.0,0.0,0.0,0.0,0.0,0.0,0.0,0.0,0.0,0.0,0.0,0.0,0.0,0.0,0.0,0.0,0.0,0.0,0.0,0.0,0.0,0.0,0.0,0.0,0.0,0.0,0.0,0.0,0.0,0.0,0.0,0.0,0.0,0.0,0.0,0.0,-1.1434,-1.2242,-1.3551,-1.3914,-1.3891,-1.3505,0.0,0.0,0.0,0.0,0.0,0.0,0.0,0.0,0.0,0.0,0.0,0.0,0.0,0.0,0.0,0.0,0.0,0.0,0.0,0.0,0.0,0.0,0.0,0.0,0.0,0.0,0.0,0.0,0.0,0.0,0.0,0.0,0.0,0.0,0.0,0.0,0.0,0.0,0.0,0.0,0.0,0.0,0.0,0.0,0.0,0.0,0.0,0.0,0.0,0.0,0.0,0.0,0.0,0.0,0.0,0.0,0.0,0.0,0.0,0.0,0.0,0.0,0.0,0.0,0.0,0.0,0.0,0.0,0.0,0.0,0.0,0.0,0.0,0.0,0.0,0.0,0.0,0.0,0.0,0.0,0.0,0.0,0.0,0.0,0.0,0.0,0.0,0.0,0.0,0.0,0.0,0.0,0.0,0.0,0.0,0.0,0.0,0.0,0.0,0.0,0.0,0.0,0.0,0.0,0.0,0.0,0.0,0.0,-1.3833,-1.263,-1.286,-1.4814,-1.4016,-1.3505,0.0,0.0,0.0,0.0,0.0,0.0,0.0,0.0,0.0,0.0,0.0,0.0,0.0,0.0,0.0,0.0,0.0,0.0,0.0,0.0,0.0,0.0,0.0,0.0,0.0,0.0,0.0,0.0,0.0,0.0,0.0,0.0,0.0,0.0,0.0,0.0,0.0,0.0,0.0,0.0,0.0,0.0,0.0,0.0,0.0,0.0,0.0,0.0,0.0,0.0,0.0,0.0,0.0,0.0,0.0,0.0,0.0,0.0,0.0,0.0,0.0,0.0,0.0,0.0,0.0,0.0,0.0,0.0,0.0,0.0,0.0,0.0,0.0,0.0,0.0,0.0,0.0,0.0,0.0,0.0,0.0,0.0,0.0,0.0,0.0,0.0,0.0,0.0,0.0,0.0,0.0,0.0,0.0,0.0,0.0,0.0,0.0,0.0,0.0,0.0,0.0,0.0,0.0,0.0,0.0,0.0,0.0,0.0,0.0,-1.1686,-1.2001,-1.3152,-1.509,-1.3779,-1.3294,0.0,0.0,0.0,0.0,0.0,0.0,0.0,0.0,0.0,0.0,0.0,0.0,0.0,0.0,0.0,0.0,0.0,0.0,0.0,0.0,0.0,0.0,0.0,0.0,0.0,0.0,0.0,0.0,0.0,0.0,0.0,0.0,0.0,0.0,0.0,0.0,0.0,0.0,0.0,0.0,0.0,0.0,0.0,0.0,0.0,0.0,0.0,0.0,0.0,0.0,0.0,0.0,0.0,0.0,0.0,0.0,0.0,0.0,0.0,0.0,0.0,0.0,0.0,0.0,0.0,0.0,0.0,0.0,0.0,0.0,0.0,0.0,0.0,0.0,0.0,0.0,0.0,0.0,0.0,0.0,0.0,0.0,0.0,0.0,0.0,0.0,0.0,0.0,0.0,0.0,0.0,0.0,0.0,0.0,0.0,0.0,0.0,0.0,0.0,0.0,0.0,0.0,0.0,0.0,0.0,0.0,0.0,0.0,0.0,-1.2233,0.0,-1.4951,-1.5736,-1.4132,-1.324,0.0,0.0,0.0,0.0,0.0,0.0,0.0,0.0,0.0,0.0,0.0,0.0,0.0,0.0,0.0,0.0,0.0,0.0,0.0,0.0,0.0,0.0,0.0,0.0,0.0,0.0,0.0,0.0,0.0,0.0,0.0,0.0,0.0,0.0,0.0,0.0,0.0,0.0,0.0,0.0,0.0,0.0,0.0,0.0,0.0,0.0,0.0,0.0,0.0,0.0,0.0,0.0,0.0,0.0,0.0,0.0,0.0,0.0,0.0,0.0,0.0,0.0,0.0,0.0,0.0,0.0,0.0,0.0,0.0,0.0,0.0,0.0,0.0,0.0,0.0,0.0,0.0,0.0,0.0,0.0,0.0,0.0,0.0,0.0,0.0,0.0,0.0,0.0,0.0,0.0,0.0,0.0,0.0,0.0,0.0,0.0,0.0,0.0,0.0,0.0,0.0,0.0,0.0,0.0,0.0,0.0,0.0,0.0,-1.2081,-1.614,-1.7945,-1.8088,-1.6803,-1.511,-1.3312,0.0,0.0,0.0,0.0,0.0,0.0,0.0,0.0,0.0,0.0,0.0,0.0,0.0,0.0,0.0,0.0,0.0,0.0,0.0,0.0,0.0,0.0,0.0,0.0,0.0,0.0,0.0,0.0,0.0,0.0,0.0,0.0,0.0,0.0,0.0,0.0,0.0,0.0,0.0,0.0,0.0,0.0,0.0,0.0,0.0,0.0,0.0,0.0,0.0,0.0,0.0,0.0,0.0,0.0,0.0,0.0,0.0,0.0,0.0,0.0,0.0,0.0,0.0,0.0,0.0,0.0,0.0,0.0,0.0,0.0,0.0,0.0,0.0,0.0,0.0,0.0,0.0,0.0,0.0,0.0,0.0,0.0,0.0,0.0,0.0,0.0,0.0,0.0,0.0,0.0,0.0,0.0,0.0,0.0,0.0,0.0,0.0,0.0,0.0,0.0,0.0,0.0,0.0,0.0,0.0,0.0,0.0,0.0,0.0,-1.4282,-1.6557,-1.7511,-1.6888,-1.4866,-1.3944,0.0,0.0,0.0,0.0,0.0,0.0,0.0,0.0,0.0,0.0,0.0,0.0,0.0,0.0,0.0,0.0,0.0,0.0,0.0,0.0,0.0,0.0,0.0,0.0,0.0,0.0,0.0,0.0,0.0,0.0,0.0,0.0,0.0,0.0,0.0,0.0,0.0,0.0,0.0,0.0,0.0,0.0,0.0,0.0,0.0,0.0,0.0,0.0,0.0,0.0,0.0,0.0,0.0,0.0,0.0,0.0,0.0,0.0,0.0,0.0,0.0,0.0,0.0,0.0,0.0,0.0,0.0,0.0,0.0,0.0,0.0,0.0,0.0,0.0,0.0,0.0,0.0,0.0,0.0,0.0,0.0,0.0,0.0,0.0,0.0,0.0,0.0,0.0,0.0,0.0,0.0,0.0,0.0,0.0,0.0,0.0,0.0,0.0,0.0,0.0,0.0,0.0,0.0,0.0,0.0,0.0,0.0,0.0,0.0,-1.708,-1.913,-1.9712,-1.8579,-1.6068,-1.4827,-1.5028,0.0,0.0,0.0,0.0,0.0,0.0,0.0,0.0,0.0,0.0,0.0,0.0,0.0,0.0,0.0,0.0,0.0,0.0,0.0,0.0,0.0,0.0,0.0,0.0,0.0,0.0,0.0,0.0,0.0,0.0,0.0,0.0,0.0,0.0,0.0,0.0,0.0,0.0,0.0,0.0,0.0,0.0,0.0,0.0,0.0,0.0,0.0,0.0,0.0,0.0,0.0,0.0,0.0,0.0,0.0,0.0,0.0,0.0,0.0,0.0,0.0,0.0,0.0,0.0,0.0,0.0,0.0,0.0,0.0,0.0,0.0,0.0,0.0,0.0,0.0,0.0,0.0,0.0,0.0,0.0,0.0,0.0,0.0,0.0,0.0,0.0,0.0,0.0,0.0,0.0,0.0,0.0,0.0,0.0,0.0,0.0,0.0,0.0,0.0,0.0,0.0,0.0,0.0,0.0,0.0,0.0,0.0,0.0,-2.322,-2.4893,-2.423,-2.1236,-1.833,-1.5955,0.0,0.0,0.0,0.0,0.0,0.0,0.0,0.0,0.0,0.0,0.0,0.0,0.0,0.0,0.0,0.0,0.0,0.0,0.0,0.0,0.0,0.0,0.0,0.0,0.0,0.0,0.0,0.0,0.0,0.0,0.0,0.0,0.0,0.0,0.0,0.0,0.0,0.0,0.0,0.0,0.0,0.0,0.0,0.0,0.0,0.0,0.0,0.0,0.0,0.0,0.0,0.0,0.0,0.0,0.0,0.0,0.0,0.0,0.0,0.0,0.0,0.0,0.0,0.0,0.0,0.0,0.0,0.0,0.0,0.0,0.0,0.0,0.0,0.0,0.0,0.0,0.0,0.0,0.0,0.0,0.0,0.0,0.0,0.0,0.0,0.0,0.0,0.0,0.0,0.0,0.0,0.0,0.0,0.0,0.0,0.0,0.0,0.0,0.0,0.0,0.0,0.0,0.0,0.0,0.0,0.0,0.0,0.0,0.0,-2.5472,-2.7347,-2.6469,-2.2599,-1.8925,-1.689,0.0,0.0,0.0,0.0,0.0,0.0,0.0,0.0,0.0,0.0,0.0,0.0,0.0,0.0,0.0,0.0,0.0,0.0,0.0,0.0,0.0,0.0,0.0,0.0,0.0,0.0,0.0,0.0,0.0,0.0,0.0,0.0,0.0,0.0,0.0,0.0,0.0,0.0,0.0,0.0,0.0,0.0,0.0,0.0,0.0,0.0,0.0,0.0,0.0,0.0,0.0,0.0,0.0,0.0,0.0,0.0,0.0,0.0,0.0,0.0,0.0,0.0,0.0,0.0,0.0,0.0,0.0,0.0,0.0,0.0,0.0,0.0,0.0,0.0,0.0,0.0,0.0,0.0,0.0,0.0,0.0,0.0,0.0,0.0,0.0,0.0,0.0,0.0,0.0,0.0,0.0,0.0,0.0,0.0,0.0,0.0,0.0,0.0,0.0,0.0,0.0,0.0,0.0,0.0,0.0,0.0,0.0,0.0,-2.4808,-2.8485,-2.8312,-2.7062,-2.4814,-2.1144,-1.8445,0.0,0.0,0.0,0.0,0.0,0.0,0.0,0.0,0.0,0.0,0.0,0.0,0.0,0.0,0.0,0.0,0.0,0.0,0.0,0.0,0.0,0.0,0.0,0.0,0.0,0.0,0.0,0.0,0.0,0.0,0.0,0.0,0.0,0.0,0.0,0.0,0.0,0.0,0.0,0.0,0.0,0.0,0.0,0.0,0.0,0.0,0.0,0.0,0.0,0.0,0.0,0.0,0.0,0.0,0.0,0.0,0.0,0.0,0.0,0.0,0.0,0.0,0.0,0.0,0.0,0.0,0.0,0.0,0.0,0.0,0.0,0.0,0.0,0.0,0.0,0.0,0.0,0.0,0.0,0.0,0.0,0.0,0.0,0.0,0.0,0.0,0.0,0.0,0.0,0.0,0.0,0.0,0.0,0.0,0.0,0.0,0.0,0.0,0.0,0.0,0.0,0.0,0.0,0.0,0.0,0.0,0.0,0.0,-2.6659,-3.1407,-2.8607,-2.705,-2.7044,-2.3668,-2.0041,0.0,0.0,0.0,0.0,0.0,0.0,0.0,0.0,0.0,0.0,0.0,0.0,0.0,0.0,0.0,0.0,0.0,0.0,0.0,0.0,0.0,0.0,0.0,0.0,0.0,0.0,0.0,0.0,0.0,0.0,0.0,0.0,0.0,0.0,0.0,0.0,0.0,0.0,0.0,0.0,0.0,0.0,0.0,0.0,0.0,0.0,0.0,0.0,0.0,0.0,0.0,0.0,0.0,0.0,0.0,0.0,0.0,0.0,0.0,0.0,0.0,0.0,0.0,0.0,0.0,0.0,0.0,0.0,0.0,0.0,0.0,0.0,0.0,0.0,0.0,0.0,0.0,0.0,0.0,0.0,0.0,0.0,0.0,0.0,0.0,0.0,0.0,0.0,0.0,0.0,0.0,0.0,0.0,0.0,0.0,0.0,0.0,0.0,0.0,0.0,0.0,0.0,0.0,0.0,0.0,0.0,0.0,0.0,-2.8434,-3.1395,-3.0319,-2.8761,-2.6941,-2.2649,-1.9413,0.0,0.0,0.0,0.0,0.0,0.0,0.0,0.0,0.0,0.0,0.0,0.0,0.0,0.0,0.0,0.0,0.0,0.0,0.0,0.0,0.0,0.0,0.0,0.0,0.0,0.0,0.0,0.0,0.0,0.0,0.0,0.0,0.0,0.0,0.0,0.0,0.0,0.0,0.0,0.0,0.0,0.0,0.0,0.0,0.0,0.0,0.0,0.0,-0.8142,0.0,0.0,0.0,0.0,0.0,0.0,0.0,0.0,0.0,0.0,0.0,0.0,0.0,0.0,0.0,0.0,0.0,0.0,0.0,0.0,0.0,0.0,0.0,0.0,0.0,0.0,0.0,0.0,0.0,0.0,0.0,0.0,0.0,0.0,0.0,0.0,0.0,0.0,0.0,0.0,0.0,0.0,0.0,0.0,0.0,0.0,0.0,0.0,0.0,0.0,0.0,0.0,0.0,0.0,0.0,0.0,0.0,0.0,0.0,-2.9386,-3.1792,-3.0995,-2.9417,-2.7106,-2.4075,-2.078,0.0,0.0,0.0,0.0,0.0,0.0,0.0,0.0,0.0,0.0,0.0,0.0,0.0,0.0,0.0,0.0,0.0,0.0,0.0,0.0,0.0,0.0,0.0,0.0,0.0,0.0,0.0,0.0,0.0,0.0,0.0,0.0,0.0,0.0,0.0,0.0,0.0,0.0,0.0,0.0,0.0,0.0,0.0,0.0,0.0,0.0,0.0,0.0,0.0,0.0,0.0,0.0,0.0,0.0,0.0,0.0,0.0,0.0,0.0,0.0,0.0,0.0,0.0,0.0,0.0,0.0,0.0,0.0,0.0,0.0,0.0,0.0,0.0,0.0,0.0,0.0,0.0,0.0,0.0,0.0,0.0,0.0,0.0,0.0,0.0,0.0,0.0,0.0,0.0,0.0,0.0,0.0,0.0,0.0,0.0,0.0,0.0,0.0,0.0,0.0,0.0,0.0,0.0,0.0,0.0,0.0,0.0,-2.7315,-2.9985,-3.2455,-3.1347,-2.9668,-2.7569,-2.6018,-2.2512,-1.6934,0.0,0.0,0.0,0.0,0.0,0.0,0.0,0.0,0.0,0.0,0.0,0.0,0.0,0.0,0.0,0.0,0.0,0.0,0.0,0.0,0.0,0.0,0.0,0.0,0.0,0.0,0.0,0.0,0.0,0.0,0.0,0.0,0.0,0.0,0.0,0.0,0.0,0.0,-0.8452,-0.9518,0.0,0.0,0.0,0.0,0.0,0.0,0.0,0.0,-0.8335,0.0,0.0,0.0,0.0,0.0,0.0,0.0,0.0,0.0,0.0,0.0,0.0,0.0,0.0,0.0,0.0,0.0,0.0,0.0,0.0,0.0,0.0,0.0,0.0,0.0,0.0,0.0,0.0,0.0,0.0,0.0,0.0,0.0,0.0,0.0,0.0,0.0,0.0,0.0,0.0,0.0,0.0,0.0,0.0,0.0,0.0,0.0,0.0,0.0,0.0,0.0,0.0,0.0,0.0,0.0,0.0,-2.7496,-2.8571,-3.0548,-3.3629,-3.2287,-3.0399,-2.8142,-2.5869,-2.2431,-1.7716,0.0,0.0,0.0,0.0,0.0,0.0,0.0,0.0,0.0,0.0,0.0,0.0,0.0,0.0,0.0,0.0,0.0,0.0,0.0,0.0,0.0,0.0,0.0,0.0,0.0,0.0,0.0,0.0,0.0,0.0,0.0,0.0,0.0,0.0,0.0,0.0,0.0,0.0,0.0,-1.1867,-1.2191,0.0,0.0,0.0,0.0,0.0,0.0,0.0,0.0,-0.9469,0.0,0.0,0.0,0.0,0.0,0.0,0.0,0.0,0.0,0.0,0.0,0.0,0.0,0.0,0.0,0.0,0.0,0.0,0.0,0.0,0.0,0.0,0.0,0.0,0.0,0.0,0.0,0.0,0.0,0.0,0.0,0.0,0.0,0.0,0.0,0.0,0.0,0.0,0.0,0.0,0.0,0.0,0.0,0.0,0.0,0.0,0.0,0.0,0.0,0.0,0.0,0.0,0.0,0.0,0.0,-2.7366,-3.0733,-3.3091,-3.4502,-3.344,-3.1572,-2.8787,-2.7041,-2.3614,0.0,0.0,0.0,0.0,0.0,0.0,0.0,0.0,0.0,0.0,0.0,0.0,0.0,0.0,0.0,0.0,0.0,0.0,0.0,0.0,0.0,0.0,0.0,0.0,0.0,0.0,0.0,0.0,0.0,0.0,0.0,0.0,0.0,0.0,0.0,0.0,0.0,0.0,0.0,0.0,-1.2781,-1.3282,-1.374,0.0,0.0,0.0,0.0,0.0,0.0,-1.0076,-0.9709,0.0,0.0,0.0,0.0,0.0,0.0,0.0,0.0,0.0,0.0,0.0,0.0,0.0,0.0,0.0,0.0,0.0,0.0,0.0,0.0,0.0,0.0,0.0,0.0,0.0,0.0,0.0,0.0,0.0,0.0,0.0,0.0,0.0,0.0,0.0,0.0,0.0,0.0,0.0,0.0,0.0,0.0,0.0,0.0,0.0,0.0,0.0,0.0,0.0,0.0,0.0,0.0,0.0,0.0,0.0,-2.7066,-3.2128,-3.5057,-3.5539,-3.4539,-3.2498,-2.946,-2.8055,-2.4502,0.0,0.0,0.0,0.0,0.0,0.0,0.0,0.0,0.0,0.0,0.0,0.0,0.0,0.0,0.0,0.0,0.0,0.0,0.0,0.0,0.0,0.0,0.0,0.0,0.0,0.0,0.0,0.0,0.0,0.0,0.0,0.0,0.0,0.0,0.0,0.0,0.0,0.0,0.0,0.0,0.0,-1.4227,-1.4924,-1.3915,0.0,0.0,0.0,0.0,-1.1287,-1.1125,0.0,0.0,0.0,0.0,0.0,0.0,0.0,0.0,0.0,0.0,0.0,0.0,0.0,0.0,0.0,0.0,0.0,0.0,0.0,0.0,0.0,0.0,0.0,0.0,0.0,0.0,0.0,0.0,0.0,0.0,0.0,0.0,0.0,0.0,0.0,0.0,0.0,0.0,0.0,0.0,0.0,0.0,0.0,0.0,0.0,0.0,0.0,0.0,0.0,0.0,0.0,0.0,0.0,0.0,0.0,0.0,-2.8166,-3.0948,-3.3953,-3.7071,-3.5099,-3.2644,-2.9976,-2.7806,-2.3863,0.0,0.0,0.0,0.0,0.0,0.0,0.0,0.0,0.0,0.0,0.0,0.0,0.0,0.0,0.0,0.0,0.0,0.0,0.0,0.0,0.0,0.0,0.0,0.0,0.0,0.0,0.0,0.0,0.0,0.0,0.0,0.0,0.0,0.0,0.0,0.0,0.0,0.0,0.0,0.0,0.0,-1.5613,-1.4861,-1.4939,-1.508,0.0,0.0,-1.4089,-1.4465,-1.4704,0.0,0.0,0.0,0.0,0.0,0.0,0.0,0.0,0.0,0.0,0.0,0.0,0.0,0.0,0.0,0.0,0.0,0.0,0.0,0.0,0.0,0.0,0.0,0.0,0.0,0.0,0.0,0.0,0.0,0.0,0.0,0.0,0.0,0.0,0.0,0.0,0.0,0.0,0.0,0.0,0.0,0.0,0.0,0.0,0.0,0.0,0.0,0.0,0.0,0.0,0.0,0.0,0.0,0.0,0.0,-2.6125,-2.9024,-3.3624,-3.6784,-3.8226,-3.6032,-3.3717,-3.1483,-2.8513,-2.446,0.0,0.0,0.0,0.0,0.0,0.0,0.0,0.0,0.0,0.0,0.0,0.0,0.0,0.0,0.0,0.0,0.0,0.0,0.0,0.0,0.0,0.0,0.0,0.0,0.0,0.0,0.0,0.0,0.0,0.0,0.0,0.0,0.0,0.0,0.0,0.0,0.0,0.0,0.0,0.0,0.0,0.0,-1.6667,-1.65,0.0,0.0,0.0,-1.6243,-1.5936,0.0,0.0,0.0,0.0,0.0,0.0,0.0,0.0,0.0,0.0,0.0,0.0,0.0,0.0,0.0,0.0,0.0,0.0,0.0,0.0,0.0,0.0,0.0,0.0,0.0,0.0,0.0,0.0,0.0,0.0,0.0,0.0,0.0,0.0,0.0,0.0,0.0,0.0,0.0,0.0,0.0,0.0,0.0,0.0,0.0,0.0,0.0,0.0,0.0,0.0,0.0,0.0,0.0,0.0,0.0,0.0,0.0,-2.9871,-3.5986,-3.9229,-3.9252,-3.681,-3.4598,-3.2698,-2.9744,0.0,0.0,0.0,0.0,0.0,0.0,0.0,0.0,0.0,0.0,0.0,0.0,0.0,0.0,0.0,0.0,0.0,0.0,0.0,0.0,0.0,0.0,0.0,0.0,0.0,0.0,0.0,-0.5718,0.0,0.0,0.0,0.0,0.0,0.0,0.0,0.0,0.0,0.0,0.0,0.0,0.0,0.0,-1.7076,-1.8161,-1.8216,-1.8189,0.0,0.0,-1.8564,-1.7663,-1.7517,-1.6698,0.0,0.0,0.0,0.0,0.0,0.0,0.0,0.0,0.0,0.0,0.0,0.0,0.0,0.0,0.0,0.0,0.0,0.0,0.0,0.0,0.0,0.0,0.0,0.0,0.0,0.0,0.0,0.0,0.0,0.0,0.0,0.0,0.0,0.0,0.0,0.0,0.0,0.0,0.0,0.0,0.0,0.0,0.0,0.0,0.0,0.0,0.0,0.0,0.0,0.0,0.0,0.0,0.0,0.0,0.0,-3.1161,-3.638,-3.9574,-4.0251,-3.7113,-3.47,-3.3254,-3.1533,-2.7189,0.0,0.0,0.0,0.0,0.0,0.0,0.0,0.0,0.0,0.0,0.0,0.0,0.0,0.0,0.0,0.0,0.0,0.0,0.0,0.0,0.0,0.0,0.0,0.0,0.0,0.0,0.0,0.0,0.0,0.0,0.0,0.0,0.0,0.0,0.0,0.0,0.0,0.0,0.0,0.0,0.0,-1.6643,-1.8407,-1.9915,-2.0699,0.0,0.0,-2.1504,-2.0424,-2.0113,-1.8423,-1.3768,0.0,0.0,0.0,0.0,0.0,0.0,0.0,0.0,0.0,0.0,0.0,0.0,0.0,0.0,0.0,0.0,0.0,0.0,0.0,0.0,0.0,0.0,0.0,0.0,0.0,0.0,0.0,0.0,0.0,0.0,0.0,0.0,0.0,0.0,0.0,0.0,0.0,0.0,0.0,0.0,0.0,0.0,0.0,0.0,0.0,0.0,0.0,0.0,0.0,0.0,0.0,0.0,0.0,-2.9535,-3.1366,-3.7894,-4.0986,-4.0448,-3.8326,-3.6434,-3.4923,-3.2367,-2.9083,0.0,0.0,0.0,0.0,0.0,0.0,0.0,0.0,0.0,0.0,0.0,0.0,0.0,0.0,0.0,0.0,0.0,0.0,0.0,0.0,0.0,0.0,0.0,0.0,0.0,0.0,0.0,0.0,-1.0928,-1.1177,-1.1222,0.0,0.0,0.0,0.0,0.0,0.0,0.0,0.0,0.0,0.0,-2.0386,-2.0917,-2.2273,0.0,0.0,-2.3514,-2.3238,-2.2531,-2.0795,-1.8902,-1.7021,-1.6005,0.0,0.0,0.0,0.0,0.0,0.0,0.0,0.0,0.0,0.0,0.0,0.0,0.0,0.0,0.0,0.0,0.0,0.0,0.0,0.0,0.0,0.0,0.0,0.0,0.0,0.0,0.0,0.0,0.0,0.0,0.0,0.0,0.0,0.0,0.0,0.0,0.0,0.0,0.0,0.0,0.0,0.0,0.0,0.0,0.0,0.0,0.0,0.0,0.0,0.0,0.0,0.0,-3.0197,-3.1953,-3.9238,-4.2468,-4.1439,-3.9763,-3.8033,-3.6289,-3.374,-3.1025,0.0,0.0,0.0,0.0,0.0,0.0,0.0,0.0,0.0,0.0,0.0,0.0,0.0,0.0,0.0,0.0,0.0,0.0,0.0,0.0,0.0,0.0,0.0,0.0,0.0,0.0,0.0,0.0,-1.2082,-1.1637,-1.0315,0.0,0.0,0.0,0.0,0.0,0.0,0.0,0.0,0.0,0.0,-2.3407,-2.4229,-2.4749,-2.53,-2.5966,-2.494,-2.3993,-2.3759,-2.1617,-1.9761,-1.9173,0.0,0.0,0.0,0.0,0.0,0.0,0.0,0.0,0.0,0.0,0.0,0.0,0.0,0.0,0.0,0.0,0.0,0.0,0.0,0.0,0.0,0.0,0.0,0.0,0.0,0.0,0.0,0.0,0.0,0.0,-1.6712,0.0,0.0,0.0,0.0,0.0,0.0,0.0,0.0,0.0,0.0,0.0,0.0,0.0,0.0,0.0,0.0,0.0,0.0,0.0,0.0,0.0,0.0,-3.0934,-3.3318,-4.0267,-4.3731,-4.3472,-4.1359,-3.921,-3.7284,-3.5939,-3.2904,-2.7841,0.0,0.0,0.0,0.0,0.0,0.0,0.0,0.0,0.0,0.0,0.0,0.0,0.0,0.0,0.0,0.0,0.0,0.0,0.0,0.0,0.0,0.0,0.0,0.0,0.0,0.0,-0.9088,-1.0063,-1.1007,0.0,0.0,0.0,0.0,0.0,0.0,0.0,0.0,0.0,0.0,-2.3374,-2.4795,-2.8181,-2.7227,-2.6433,-2.7228,-2.5218,-2.3689,-2.4041,-2.285,-2.1269,0.0,0.0,0.0,0.0,0.0,0.0,0.0,0.0,0.0,0.0,0.0,0.0,0.0,0.0,0.0,0.0,0.0,0.0,0.0,0.0,0.0,0.0,0.0,0.0,0.0,0.0,0.0,-2.2569,-2.2152,0.0,0.0,0.0,0.0,0.0,0.0,0.0,0.0,0.0,0.0,0.0,-3.246,-3.4333,0.0,0.0,0.0,0.0,0.0,0.0,0.0,0.0,0.0,0.0,0.0,0.0,-3.1314,-3.4263,-4.0898,-4.4418,-4.4424,-4.2539,-4.0665,-3.8901,-3.6797,-3.2931,-2.7213,0.0,0.0,0.0,0.0,0.0,0.0,0.0,0.0,0.0,0.0,0.0,0.0,0.0,0.0,0.0,0.0,0.0,0.0,0.0,0.0,0.0,0.0,0.0,0.0,0.0,-1.1746,0.0,0.0,0.0,0.0,0.0,0.0,0.0,0.0,0.0,0.0,0.0,-2.2443,-2.4837,-2.6632,-2.8114,-2.9339,-2.8896,-2.851,0.0,0.0,0.0,0.0,0.0,0.0,0.0,0.0,0.0,0.0,0.0,0.0,0.0,0.0,-2.1446,-1.6671,-1.529,-1.4923,-1.5002,0.0,0.0,0.0,0.0,0.0,0.0,0.0,0.0,0.0,0.0,0.0,0.0,0.0,0.0,-2.7693,0.0,-2.5986,0.0,0.0,0.0,0.0,0.0,0.0,0.0,0.0,-3.5211,-3.7095,-3.7742,-3.9568,-3.8951,0.0,-3.4842,-3.132,0.0,0.0,0.0,0.0,0.0,0.0,0.0,0.0,-3.2614,-3.6292,-4.2202,-4.5419,-4.5691,-4.4272,-4.241,-4.0167,-3.7043,-3.3333,-2.89,-2.7691,-2.5161,0.0,0.0,0.0,0.0,0.0,0.0,0.0,0.0,0.0,0.0,0.0,0.0,0.0,0.0,0.0,0.0,0.0,0.0,0.0,0.0,0.0,0.0,0.0,-1.3549,0.0,0.0,0.0,0.0,0.0,0.0,0.0,0.0,0.0,-1.8899,-2.2495,-2.5735,-2.7272,-2.9056,-3.0219,-3.0219,0.0,0.0,0.0,0.0,0.0,0.0,0.0,-2.3955,-2.4721,-2.2883,-2.1276,-2.1065,-2.3142,-2.4674,-2.4112,0.0,0.0,-2.0407,-1.8933,-1.8458,-1.8434,-1.8333,-1.8332,-1.8731,-1.9258,-1.9736,0.0,0.0,0.0,0.0,0.0,0.0,0.0,0.0,-3.3373,-3.2784,0.0,-3.1321,0.0,0.0,0.0,0.0,0.0,-3.2489,0.0,0.0,-4.1789,-4.3639,-4.4551,-4.4329,-4.3867,-4.3051,-4.112,-3.849,-3.5064,-3.0464,0.0,0.0,0.0,0.0,0.0,0.0,-3.4845,-3.9428,-4.411,-4.68,-4.7293,-4.6383,-4.4305,-4.0845,-3.6935,-3.4111,-3.2664,-2.9918,-2.736,-2.5084,-2.0008,0.0,0.0,0.0,0.0,0.0,0.0,0.0,0.0,0.0,0.0,0.0,0.0,0.0,0.0,0.0,0.0,0.0,0.0,0.0,0.0,-1.5736,0.0,0.0,0.0,0.0,0.0,0.0,0.0,0.0,0.0,0.0,-2.3299,-2.4962,-2.7204,-2.9711,0.0,0.0,0.0,0.0,-3.097,-3.086,-2.931,-2.824,-2.8485,-2.7531,-2.7089,-2.8168,0.0,0.0,-2.439,-2.5761,-2.6589,-2.5154,-2.6059,-2.6764,-2.5942,-2.3826,-2.2451,-2.2401,-2.1999,-2.1753,-2.2023,-2.3064,-2.4081,-3.8171,0.0,0.0,0.0,0.0,-3.5654,-3.7109,-3.9486,-3.8122,-3.7312,-3.697,-3.562,0.0,0.0,0.0,0.0,0.0,0.0,-3.7296,-4.042,-4.1587,-4.3324,-4.5476,-4.5908,-4.5709,-4.5016,-4.4632,-4.3198,-4.0851,-3.9152,-3.3573,-2.4485,0.0,0.0,0.0,0.0,-3.6938,-4.0197,-4.3956,-4.6625,-4.8214,-4.6256,-4.3502,-3.994,-3.7374,-3.5518,-3.442,-3.3088,-3.0457,-2.6462,-2.4789,0.0,0.0,0.0,0.0,0.0,0.0,0.0,0.0,0.0,0.0,0.0,0.0,0.0,0.0,0.0,0.0,0.0,0.0,0.0,-1.4151,-1.7248,-1.8741,0.0,0.0,0.0,0.0,0.0,0.0,0.0,0.0,0.0,-2.8903,-2.9449,-3.0334,0.0,0.0,-3.186,-3.186,-3.1777,-3.1693,-3.1637,0.0,0.0,0.0,-2.9338,-2.8597,-2.9813,-2.9641,-2.9199,-2.8697,-2.8702,-2.849,-2.7552,-2.7281,-2.7136,-2.6915,-2.6261,-2.5677,-2.5651,-2.5524,-2.5447,-2.5537,-2.5921,-2.6202,-4.3619,-3.9786,-3.8577,-3.879,-3.9934,-4.0005,-4.1437,-4.3622,-4.2485,-4.1848,-4.15,-4.0419,-3.8681,-3.6544,-3.598,0.0,0.0,0.0,-4.1151,-4.3997,-4.4275,-4.5359,-4.7025,-4.7357,-4.7252,-4.687,-4.646,-4.574,-4.4656,-4.3443,-3.8793,-3.0995,0.0,0.0,-3.075,-3.5308,-3.9431,-4.2811,-4.5464,-4.7404,-4.8501,-4.5848,-4.3178,-4.0546,-3.8617,-3.7017,-3.577,-3.5238,-3.3463,-3.0099,-2.8634,-2.6711,0.0,0.0,0.0,0.0,0.0,0.0,0.0,0.0,0.0,0.0,0.0,-1.0594,0.0,0.0,0.0,0.0,-1.9004,-1.9299,-2.0045,-2.2433,0.0,0.0,0.0,0.0,0.0,0.0,0.0,-3.3704,-3.269,-3.1705,-3.2505,-3.2625,-3.278,-3.3152,-3.3187,-3.31,-3.31,0.0,-3.2959,-3.2901,-3.2572,-3.2334,-3.2276,-3.1183,-3.0601,-3.1301,-3.1596,-3.16,-3.1336,-3.076,-3.008,-2.9393,-2.8675,-2.7986,-2.7475,-2.7281,-2.7146,-2.7011,-2.7011,-2.7011,-2.7113,-2.7113,-2.7113,-4.8091,-4.7799,-4.4463,-4.3428,-4.4043,-4.469,-4.5662,-4.6828,-4.618,-4.5888,-4.5856,-4.5241,-4.3621,-4.1279,-4.0099,0.0,-4.3448,-4.4621,-4.6504,-4.8961,-4.8666,-4.8703,-4.8994,-4.873,-4.8615,-4.8583,-4.7333,-4.6833,-4.6882,-4.4719,-4.2567,-4.0628,-3.8337,-3.731,-3.771,-3.9157,-4.2145,-4.6551,-4.7835,-4.8543,-4.844,-4.5474,-4.3335,-4.2294,-4.0371,-3.8534,-3.6996,-3.685,-3.6175,-3.4833,-3.1911,-2.9794,-2.8792,0.0,0.0,0.0,0.0,0.0,0.0,0.0,0.0,0.0,0.0,0.0,0.0,0.0,0.0,0.0,-2.7552,0.0,-2.9909,-2.9259,0.0,0.0,0.0,-2.3143,-1.8176,-2.525,-3.1524,-3.4321,0.0,0.0,-3.472,0.0,-3.4751,-3.4813,-3.4659,-3.4536,-3.4566,-3.4566,-3.4507,-3.4269,-3.3811,-3.3415,-3.327,-3.3033,-3.2856,-3.2746,-3.3229,-3.3404,-3.2786,-3.2127,-3.1447,-3.0761,-3.0067,-2.9212,-2.7881,-2.7702,-2.7456,-2.7146,-2.7045,-2.7113,-2.7281,-2.7315,-2.7289,-4.8735,-4.8706,-4.7829,-4.6989,-4.6147,-4.6309,-4.6603,-4.686,-4.6732,-4.6633,-4.6601,-4.6471,-4.6338,-4.63,-4.6461,-4.6913,-4.759,-4.7858,-4.8382,-4.8961,-4.8921,-4.8921,-4.9026,-4.9471,-4.9692,-4.9724,-4.9588,-4.9053,-4.8115,-4.7199,-4.6039,-4.4559,-4.3381,-4.1447,-3.8932,-4.214,-4.4905,-4.7045,-4.7596,-4.7835,-4.7804,-4.6085,-4.4802,-4.4022,-4.2146,-4.0494,-3.9249,-3.8735,-3.7806,-3.6258,-3.5802,-3.4868,-3.3294,-2.8287,0.0,0.0,0.0,0.0,0.0,0.0,0.0,0.0,0.0,-1.5049,-1.7226,0.0,-2.0337,0.0,-3.1879,-3.2224,-2.791,-2.8991,0.0,0.0,-2.8136,-2.7725,-2.9889,-3.0777,-3.2413,-3.5645,-3.5583,-3.5675,-3.6661,-3.6784,-3.6969,-3.743,-3.5768,-3.469,-3.5183,-3.5275,-3.5245,-3.5246,-3.5431,-3.534,-3.482,-3.5003,-3.4937,-3.4294,-3.4739,-3.4887,-3.4133,-3.3472,-3.2786,-3.2118,-3.103,-3.0016,-2.9185,-2.8643,-2.8052,-2.7523,-2.7416,-2.7416,-2.7423,-2.7423,-2.7456,-4.9483,-4.9483,-4.9123,-4.8544,-4.7831,-4.7831,-4.7831,-4.7831,-4.7831,-4.7831,-4.7831,-4.7831,-4.8058,-4.8479,-4.8868,-4.9155,-4.9483,-4.9515,-4.9677,-4.9969,-5.0001,-5.0001,-5.0001,-5.039,-5.0584,-5.0584,-5.0747,-5.0445,-4.9705,-4.8978,-4.8248,-4.7484,-4.6466,-4.4897,-4.2981,-4.4571,-4.5965,-4.6962,-4.7263,-4.7592,-4.78,-4.6105,-4.4387,-4.2848,-4.2615,-4.1388,-3.9014,-3.9795,-3.9009,-3.6389,-3.6249,-3.5951,-3.5189,-3.1866,-3.0389,0.0,0.0,0.0,0.0,0.0,0.0,0.0,0.0,0.0,0.0,0.0,-2.5821,0.0,-3.4079,-3.5124,-3.0955,-3.2645,-3.4051,-3.415,-3.3073,-3.3152,-3.5213,-3.5153,-3.5861,-3.8015,-3.7954,-3.7892,-3.8354,-3.8385,-3.8415,-3.8508,-3.7215,-3.6415,-3.6753,-3.6846,-3.6846,-3.6846,-3.6813,-3.6657,-3.6134,-3.6102,-3.6006,-3.5787,-3.5785,-3.5663,-3.5235,-3.4795,-3.4171,-3.3203,-3.2349,-3.1391,-3.0184,-2.9366,-2.8723,-2.8098,-2.7673,-2.7516,-2.749,-2.749,-2.749,-5.0228,-5.0196,-4.958,-4.9285,-4.9252,-4.9289,-4.9155,-4.8994,-4.8994,-4.8994,-4.8994,-4.9091,-4.9159,-4.9123,-4.922,-4.9645,-5.0228,-5.0228,-5.0584,-5.1205,-5.1237,-5.1237,-5.1237,-5.1237,-5.1237,-5.1237,-5.1237,-5.1237,-5.1167,-5.0182,-4.9742,-4.9678,-4.8391,-4.7654,-4.7461,-4.653,-4.6344,-4.6823,-4.7018,-4.7364,-4.7832,-4.5765,-4.3476,-4.119,-4.2854,-4.2138,-3.8625,-4.0686,-4.0311,-3.6847,-3.6094,-3.5942,-3.6291,-3.555,-3.4561,0.0,-3.3065,0.0,0.0,0.0,0.0,0.0,0.0,0.0,0.0,-3.2238,-3.1705,-3.0294,-3.5399,-3.8015,-3.6168,-3.7523,-3.8508,-3.8508,-3.8508,-3.8046,-3.6969,-3.8415,-3.989,-4.0874,-4.072,-4.0259,-3.9828,-3.977,-3.9521,-3.9277,-3.9031,-3.8846,-3.8877,-3.8692,-3.8539,-3.8631,-3.8138,-3.7735,-3.7514,-3.7053,-3.6806,-3.7042,-3.6615,-3.6157,-3.6125,-3.5844,-3.5284,-3.4233,-3.3641,-3.2786,-3.0979,-3.0126,-2.9322,-2.8531,-2.7994,-2.762,-2.7516,-2.749,-2.749,-5.0973,-5.0973,-5.0843,-5.0778,-5.0778,-5.0778,-5.0098,-4.8994,-4.8994,-4.8994,-4.9062,-4.9645,-4.9904,-4.9936,-5.0519,-5.0881,-5.0973,-5.0973,-5.107,-5.1237,-5.1237,-5.1237,-5.1237,-5.1237,-5.1237,-5.1237,-5.1237,-5.1237,-5.1205,-5.0962,-5.0898,-5.0865,-5.002,-4.9018,-4.7952,0.0,0.0,0.0,-4.7063,-4.6579,-4.607,-4.5391,-4.452,-4.3495,-4.4569,0.0,-4.2615,-4.2947,-4.2634,-4.1387,-4.1187,0.0,0.0,0.0,0.0,0.0,0.0,0.0,0.0,0.0,0.0,0.0,-3.4539,-3.3863,-3.2631,-3.6261,-3.7523,-3.4752,-3.7861,-3.9736,-3.8846,-3.86,-3.8508,-3.8508,-3.8539,-3.8385,-3.8169,-3.897,-4.057,-4.3433,-4.1894,-4.0689,-4.1155,-4.1217,-4.134,-4.1586,-4.134,-4.1032,-4.097,-4.0016,-3.937,-3.9275,-3.9185,-3.909,-3.9057,-3.8872,-3.8468,-3.8185,-3.7447,-3.6955,-3.6767,-3.6181,-3.572,-3.5254,-3.4286,-3.3186,-3.2179,-3.1027,-2.9834,-2.8636,-2.8281,-2.8072,-2.7628,-2.7516,-2.749,-5.1237,0.0,-5.1237,-5.1237,0.0,-5.1237,-5.0778,-5.0098,-5.0098,-5.0098,-5.0098,-5.0487,-5.0649,-5.0649,-5.1005,-5.1237,-5.1237,-5.1237,-5.1237,-5.1237,-5.1237,-5.1237,-5.1237,-5.1237,-5.1237,-5.1237,-5.1237,-5.1237,-5.1237,-5.1237,-5.1237,-5.1167,-5.0455,-4.9742,-4.9062,-4.8706,-4.8296,-4.7896,-4.7675,-4.7564,-4.7501,-4.6849,-4.5845,-4.4557,0.0,0.0,0.0,0.0,0.0,0.0,0.0,0.0,0.0,0.0,0.0,-3.854,-3.7418,-3.6473,-3.5984,-3.623,-3.7338,-3.9339,-4.0139,-3.9804,-3.8015,-4.0755,-4.1832,-4.0235,-4.1278,-4.1894,-4.1524,-4.0909,-4.0509,-4.0539,-4.0505,-4.0293,-3.9736,-4.0724,-4.2294,-4.4018,-4.3371,-4.2571,-4.2571,-4.2607,-4.254,-4.2602,-4.2325,-4.2078,-4.1955,-4.0909,-3.9982,-4.0016,-3.9982,-3.9982,-3.9951,-3.9644,-3.9398,-3.89,-3.8315,-3.773,-3.7328,-3.6801,-3.6368,-3.5906,-3.5098,-3.4208,-3.2982,-3.1978,-3.0904,-2.9566,-2.8778,-2.8333,-2.7994,-2.7699,-2.749,-5.1355,-5.1317,-5.1355,-5.1392,-5.1503,-5.1503,-5.1569,-5.1699,0.0,0.0,0.0,-5.1361,-5.1297,-5.1237,-5.1237,-5.1232,-5.1361,-5.1361,-5.1399,-5.1361,-5.1399,-5.1297,-5.1237,-5.1237,-5.1237,-5.1237,-5.1237,-5.1237,-5.1199,-5.1297,-5.1297,-5.1135,-5.0681,-5.0357,-5.0066,-4.9515,-4.8933,-4.8379,-4.8289,-4.8492,-4.9,-4.8216,-4.6919,-4.5119,-4.7041,-4.694,-4.4668,-4.5788,-4.5164,-4.2319,-4.1293,-4.0746,-4.0622,-4.0622,-4.1515,-4.3519,-4.3902,-4.3685,-4.2957,-4.3184,-4.3406,-4.353,-4.4186,-4.4266,-4.3723,-4.4332,-4.4795,-4.4795,-4.4271,-4.3963,-4.3932,-4.334,-4.2971,-4.294,-4.2848,-4.2263,-4.1181,-4.2448,-4.3778,-4.4456,-4.4548,-4.4394,-4.384,-4.3747,-4.3556,-4.3094,-4.291,-4.2694,-4.2479,-4.1524,-4.0628,-4.0443,-4.0413,-4.0474,-4.0413,-4.0074,-3.9674,-3.9644,-3.9121,-3.8477,-3.786,-3.7393,-3.6896,-3.6096,-3.572,-3.478,-3.3498,-3.2653,-3.1868,-3.0392,-2.9379,-2.8656,-2.8386,-2.802,-2.768,-5.1878,-5.1878,-5.1878,-5.2167,-5.2557,-5.2557,-5.2959,-5.3523,-5.2534,-5.2041,-5.2074,-5.2041,-5.175,-5.1237,-5.1237,-5.1491,-5.2041,-5.2041,-5.2041,0.0,-5.2041,-5.175,-5.1237,-5.1237,-5.1237,-5.1237,-5.1237,-5.1237,-5.1264,-5.1782,-5.175,-5.1367,-5.1653,-5.1297,-5.0196,-5.0001,-4.9904,-4.9775,-4.8055,-4.7179,-4.7276,-4.7337,-4.6961,-4.623,-4.7812,-4.8358,-4.7378,-4.7561,-4.7176,-4.6066,-4.5872,-4.552,-4.4957,-4.4827,-4.4688,-4.4206,-4.4997,-4.5065,-4.4112,-4.5405,-4.6534,-4.7133,-4.7757,-4.6893,-4.3945,-4.4764,-4.5434,-4.5434,-4.5442,-4.5349,-4.528,-4.4733,-4.4332,-4.4302,-4.384,-4.3162,-4.2417,-4.3063,-4.3932,-4.4517,-4.461,-4.4579,-4.4456,-4.4425,-4.4326,-4.424,-4.3778,-4.3248,-4.2694,-4.1955,-4.1217,-4.0659,-4.0505,-4.0505,-4.0474,-4.0443,-4.029,-4.0351,-3.9767,-3.9121,-3.8477,-3.7757,-3.6982,-3.6157,-3.5359,-3.4341,-3.3353,-3.2629,-3.1676,-3.0477,-2.9865,-2.951,-2.8699,-2.836,-2.8072,-5.2451,-5.2451,-5.2451,-5.2592,-5.2835,-5.3271,-5.3874,-5.4542,-5.4431,-5.4142,-5.3746,-5.3383,-5.2836,-5.2244,-5.224,-5.2215,-5.2203,-5.2624,-5.2592,-5.2203,-5.2171,-5.1847,-5.1269,-5.1237,-5.1237,-5.1237,-5.1556,-5.175,-5.1815,-5.2462,-5.243,-5.1782,-5.1685,-5.1329,-5.0746,-5.0681,-5.0681,-5.0681,-4.971,-4.926,-4.9224,-4.9333,-4.9259,-4.8969,-4.9748,-4.9993,-4.9673,-4.91,-4.8636,-4.828,-4.7712,-4.7093,-4.6397,-4.6329,-4.6097,-4.5667,-4.6066,-4.6324,-4.6239,-4.6987,-4.7605,-4.7884,-4.8548,-4.8268,-4.6667,-4.7372,-4.7816,-4.7619,-4.7308,-4.6973,-4.6705,-4.6315,-4.6059,-4.6098,-4.5818,-4.5084,-4.4031,-4.4264,-4.4671,-4.4641,-4.461,-4.461,-4.461,-4.461,-4.461,-4.4579,-4.4302,-4.3901,-4.3217,-4.2848,-4.2294,-4.134,-4.0782,-4.0536,-4.0505,-4.0505,-4.0505,-4.0505,-4.0259,-3.9767,-3.9152,-3.8558,-3.7875,-3.6765,-3.5773,-3.469,-3.3536,-3.2613,-3.1748,-3.0908,-3.0283,-2.9839,-2.9405,-2.8882,-2.8203,-5.3109,-5.3244,-5.3277,-5.3413,-5.3787,-5.4528,-5.5169,-5.5742,-5.6484,-5.652,-5.5877,-5.4753,-5.3961,-5.3599,-5.3357,-5.3198,-5.322,-5.3699,-5.3667,-5.3112,-5.2916,-5.2459,-5.1871,-5.1694,-5.162,-5.168,-5.2215,-5.2462,-5.2527,-5.3207,-5.3175,-5.243,-5.1588,-5.1237,-5.1237,-5.1237,-5.1237,-5.1237,-5.1237,-5.1237,-5.1237,-5.1237,-5.1205,-5.1237,-5.1205,-5.1237,-5.1167,-5.0354,-4.978,-4.962,-4.8876,-4.8052,-4.7347,-4.7125,-4.7088,-4.7141,-4.712,-4.7479,-4.8306,-4.8529,-4.8662,-4.8662,-4.9133,-4.9419,-4.9483,-4.9857,-4.9971,-4.947,-4.892,-4.8448,-4.8066,-4.7814,-4.7731,-4.7613,-4.7457,-4.6834,-4.5788,-4.5711,-4.5588,-4.5003,-4.4887,-4.4795,-4.4671,-4.461,-4.461,-4.461,-4.461,-4.4394,-4.3932,-4.3716,-4.3131,-4.2263,-4.134,-4.072,-4.0566,-4.0505,-4.0505,-4.0505,-4.0474,-4.0105,-3.9644,-3.9459,-3.8928,-3.756,-3.6676,-3.5507,-3.3908,-3.2945,-3.2101,-3.1204,-3.0634,-3.0283,-3.0022,-2.9144,-2.8229,-5.4024,-5.4601,-5.4635,-5.5348,-5.6366,-5.7155,-5.7465,-5.7637,-5.8393,-5.8703,-5.8256,-5.6016,-5.4946,-5.4809,-5.4238,-5.4603,-5.5666,-5.587,-5.5833,-5.5632,-5.5068,-5.4364,-5.3659,-5.3188,-5.293,-5.2955,-5.3154,-5.3311,-5.3272,-5.3887,-5.3887,-5.311,-5.1847,-5.1237,-5.1237,-5.1237,-5.1237,-5.1237,-5.1237,-5.1237,-5.1237,-5.1237,-5.1237,-5.1237,-5.1237,-5.1237,-5.1199,-5.1097,-5.0741,-5.0089,-4.9923,-4.9567,-4.882,-4.8207,-4.8035,-4.8285,-4.8059,-4.8469,-4.9761,-5.0542,-5.0828,-5.093,-5.086,-5.0887,-5.0925,-5.1022,-5.0711,-5.0058,-4.9829,-4.9536,-4.9206,-4.9113,-4.8948,-4.8521,-4.8078,-4.7721,-4.7906,-4.7188,-4.6326,-4.5865,-4.5618,-4.528,-4.4756,-4.4641,-4.461,-4.461,-4.461,-4.4579,-4.4425,-4.3994,-4.3624,-4.3223,-4.2325,-4.134,-4.0751,-4.0505,-4.0505,-4.0505,-4.0505,-4.0228,-3.9797,-3.9484,-3.9042,-3.8363,-3.756,-3.6406,-3.4825,-3.3776,-3.2747,-3.1394,-3.0869,-3.0738,-3.0127,-2.9301,-2.8386,-5.5684,-5.5958,-5.5958,-5.6297,-5.6874,-5.7598,-5.7909,-5.7978,-5.8939,-5.9217,-5.8875,-5.7603,-5.6747,-5.6258,-5.5918,-5.5977,-5.6221,-5.6586,-5.6553,-5.6221,-5.5853,-5.535,-5.4711,-5.4932,-5.4605,-5.3898,-5.4689,-5.4737,-5.4024,-5.3823,-5.3369,-5.2624,-5.1653,-5.1237,-5.1237,-5.1237,-5.1237,-5.1237,-5.1237,-5.1237,-5.1269,-5.1588,-5.1782,-5.1782,-5.1782,-5.1782,-5.175,-5.1394,-5.1038,-5.0778,-5.0746,-5.0422,-4.971,-4.9418,-4.9313,-4.9425,-4.9766,-5.0131,-5.0714,-5.1038,-5.1237,-5.1237,-5.1237,-5.1237,-5.1237,-5.1237,-5.1016,-5.0711,-5.0409,-5.0097,-4.9773,-5.0214,-5.0221,-4.9559,-4.9387,-4.9403,-4.9318,-4.8057,-4.7219,-4.7373,-4.6357,-4.5526,-4.5187,-4.4856,-4.4641,-4.461,-4.461,-4.461,-4.4579,-4.4363,-4.4055,-4.3655,-4.31,-4.2355,-4.1401,-4.072,-4.0566,-4.0505,-4.0505,-4.032,-4.0166,-4.004,-3.9757,-3.9011,-3.8552,-3.7244,-3.4874,-3.362,-3.2434,-3.1357,-3.0947,-3.0817,-3.0205,-2.9709,-2.9118,-5.7073,-5.7211,-5.7344,-5.745,-5.7626,-5.8354,-5.8597,-5.8667,-5.9765,-5.9905,-5.9323,-5.914,-5.8526,-5.7637,-5.7362,-5.7117,-5.7067,-5.7468,-5.7434,-5.6964,-5.6761,-5.6389,-5.595,-5.6482,-5.6157,-5.5314,-5.6326,-5.6132,-5.4724,-5.37,-5.2948,-5.2203,-5.1523,-5.1237,-5.1237,-5.1237,-5.1237,-5.1237,-5.1237,-5.1237,-5.1264,-5.1847,-5.2171,-5.2171,-5.2171,-5.2171,-5.2171,-5.1556,-5.1237,-5.1205,-5.1237,-5.1053,-5.0644,-5.0306,-5.0131,-5.0163,-5.0778,-5.1237,-5.1237,-5.1237,-5.1237,-5.1237,-5.1237,-5.1242,-5.1355,-5.128,-5.1355,-5.1582,-5.1059,-5.0557,-5.0214,-5.0876,-5.0989,-5.026,-5.0422,-5.0384,-5.0002,-4.876,-4.805,-4.8389,-4.7157,-4.5957,-4.5588,-4.5003,-4.461,-4.461,-4.461,-4.461,-4.461,-4.4579,-4.4387,-4.3963,-4.3747,-4.3008,-4.1863,-4.1217,-4.0816,-4.0505,-4.0505,-4.0505,-4.0505,-4.0474,-4.0443,-3.9729,-3.9613,-3.8489,-3.595,-3.4079,-3.2436,-3.1458,-3.0973,-3.0869,-3.0492,-3.0231,-2.9761,-5.7672,-5.8365,-5.872,-5.908,-5.9516,-6.0248,-6.0358,-6.0151,-6.1293,-6.1155,-6.0255,-6.0494,-5.9976,-5.8909,-5.8323,-5.8255,-5.8772,-5.8806,-5.8806,-5.8634,-5.8118,-5.7808,-5.7808,-5.7907,-5.7624,-5.6934,-5.7812,-5.7253,-5.5243,-5.3942,-5.2948,-5.2209,-5.1567,-5.1205,-5.1237,-5.1237,-5.1237,-5.1237,-5.1237,-5.1237,-5.1302,-5.1847,-5.2203,-5.2236,-5.2203,-5.2268,-5.2203,-5.1556,-5.1237,-5.1237,-5.1237,-5.1397,-5.1707,-5.0819,-5.0269,-5.0297,-5.0848,-5.1275,-5.1345,-5.1275,-5.1237,-5.1205,-5.1205,-5.1429,-5.1838,-5.1545,-5.1729,-5.2592,-5.1729,-5.0984,-5.0679,-5.1177,-5.1294,-5.0735,-5.0352,-5.0352,-5.0435,-4.9318,-4.8625,-4.8512,-4.7865,-4.688,-4.5772,-4.5003,-4.4764,-4.4633,-4.4603,-4.461,-4.461,-4.461,-4.4548,-4.4425,-4.3963,-4.3162,-4.1955,-4.1463,-4.1155,-4.0843,-4.0659,-4.0505,-4.0505,-4.0474,-4.0443,-4.0382,-4.0105,-3.8979,-3.6869,-3.4954,-3.3265,-3.2078,-3.1213,-3.0869,-3.0764,-3.0424,-2.9996,-6.0518,-6.0959,-6.109,-6.1233,-6.1415,-6.1662,-6.17,-6.1668,-6.2248,-6.1899,-6.1142,-6.1722,-6.1478,-6.0381,-6.0458,-5.9908,-5.9047,-5.9012,-5.9012,-5.8978,-5.8737,-5.8599,-5.8702,-5.9631,-5.9517,-5.8715,-5.9278,-5.8093,-5.5255,-5.4129,-5.3107,-5.2224,-5.1823,-5.1545,-5.1242,-5.1237,-5.1237,-5.1237,-5.1237,-5.1237,-5.1269,-5.1847,-5.243,-5.2883,-5.2916,-5.3142,-5.3596,-5.2462,-5.1847,-5.1815,-5.1426,-5.1466,-5.1984,-5.2398,-5.2425,-5.2097,-5.229,-5.2569,-5.2755,-5.1843,-5.1355,-5.1655,-5.1392,-5.1429,-5.1878,-5.2131,-5.2416,-5.2592,-5.2167,-5.1623,-5.1623,-5.1987,-5.199,-5.1294,-5.1112,-5.0589,-4.9661,-4.9336,-4.9254,-4.8646,-4.8019,-4.7219,-4.6419,-4.5649,-4.5249,-4.5187,-4.4887,-4.4671,-4.461,-4.461,-4.461,-4.4579,-4.4394,-4.3932,-4.31,-4.2048,-4.1463,-4.1217,-4.097,-4.0628,-4.0505,-4.0505,-4.0474,-4.0347,-4.0259,-3.9217,-3.7005,-3.4836,-3.3303,-3.1883,-3.1052,-3.1011,-3.1011,-3.0686,-3.0451,-6.2322,-6.2682,-6.2746,-6.2649,-6.2587,-6.2833,-6.2873,-6.2875,-6.3382,-6.2999,-6.2275,-6.2923,-6.2643,-6.1755,-6.191,-6.1326,-5.9944,-5.9599,-5.9254,-5.9012,-5.9012,-5.915,-5.9564,-6.0703,-6.0835,-5.9961,-5.9709,-5.809,-5.5501,-5.4345,-5.3325,-5.2307,-5.2274,-5.2059,-5.1729,-5.1577,-5.1466,-5.1434,-5.128,-5.1237,-5.1232,-5.162,-5.2448,-5.3376,-5.3415,-5.3492,-5.4017,-5.2851,-5.2074,-5.1885,-5.1582,-5.1692,-5.2305,-5.3303,-5.3876,-5.3708,-5.332,-5.3367,-5.3659,-5.2425,-5.1634,-5.1834,-5.1521,-5.154,-5.2416,-5.3043,-5.3281,-5.3213,-5.2662,-5.231,-5.2557,-5.2871,-5.2732,-5.2026,-5.1993,-5.1271,-4.9559,-4.9703,-4.949,-4.8728,-4.8019,-4.7434,-4.6973,-4.6326,-4.5865,-4.5649,-4.5195,-4.488,-4.4671,-4.461,-4.461,-4.461,-4.4579,-4.4363,-4.384,-4.3069,-4.2017,-4.1648,-4.1309,-4.094,-4.0566,-4.0536,-4.0474,-4.0347,-3.976,-3.8712,-3.7067,-3.4851,-3.3098,-3.1604,-3.1078,-3.1011,-3.1011,-3.1011,-3.0738,-6.2852,-6.3427,-6.3413,-6.3306,-6.3226,-6.3831,-6.3915,-6.3855,-6.4687,-6.444,-6.3536,-6.3978,-6.3554,-6.2627,-6.2598,-6.2292,-6.1674,-6.0774,-5.9875,-5.9185,-5.9116,-5.9495,-6.0116,-6.0909,-6.122,-6.0906,-5.9139,-5.7424,-5.5825,-5.4562,-5.3542,-5.2937,-5.2802,-5.2732,-5.2767,-5.2238,-5.1987,-5.1915,-5.1545,-5.128,-5.1237,-5.1345,-5.2221,-5.3813,-5.3596,-5.3396,-5.3383,-5.2702,-5.2085,-5.1544,-5.1794,-5.2238,-5.2732,-5.3484,-5.4126,-5.458,-5.3838,-5.3503,-5.3799,-5.2935,-5.22,-5.1988,-5.1514,-5.1984,-5.3247,-5.4013,-5.4335,-5.4175,-5.3483,-5.3009,-5.345,-5.3583,-5.3382,-5.294,-5.2804,-5.2177,-5.1122,-5.032,-4.9765,-4.8913,-4.8204,-4.7681,-4.7496,-4.7034,-4.6449,-4.5988,-4.5588,-4.5311,-4.4918,-4.4733,-4.461,-4.461,-4.461,-4.4486,-4.4302,-4.3994,-4.294,-4.2078,-4.1709,-4.1309,-4.0878,-4.0689,-4.0536,-4.0378,-3.996,-3.8936,-3.6712,-3.4639,-3.3246,-3.1932,-3.1529,-3.1026,-3.1011,-3.1011,-3.1011,-6.4372,-6.4991,-6.4764,-6.4764,-6.4931,-6.518,-6.5187,-6.5122,-6.5504,-6.5116,-6.4518,-6.497,-6.476,-6.407,-6.3923,-6.3654,-6.2993,-6.2161,-6.1082,-6.0013,-5.9806,-5.9944,-6.0323,-6.0944,-6.1047,-6.0426,-5.9322,-5.7638,-5.5854,-5.4764,-5.3987,-5.3517,-5.3416,-5.3179,-5.2904,-5.2627,-5.2557,-5.2487,-5.2023,-5.1765,-5.1765,-5.1765,-5.2368,-5.3301,-5.3585,-5.3732,-5.3695,-5.3555,-5.317,-5.2482,-5.2536,-5.2627,-5.3007,-5.4193,-5.4937,-5.4872,-5.5036,-5.5006,-5.4907,-5.4048,-5.3292,-5.3044,-5.2597,-5.2767,-5.355,-5.4207,-5.4463,-5.4431,-5.3815,-5.3517,-5.3651,-5.3717,-5.3617,-5.345,-5.318,-5.3112,-5.2805,-5.1492,-5.0563,-5.02,-4.9116,-4.8409,-4.8173,-4.7681,-4.7188,-4.685,-4.6203,-4.5588,-4.5434,-4.491,-4.4641,-4.461,-4.461,-4.461,-4.4456,-4.4332,-4.3747,-4.2786,-4.2232,-4.1678,-4.1217,-4.072,-4.0566,-4.0161,-3.9773,-3.8538,-3.6354,-3.4733,-3.3396,-3.2208,-3.152,-3.1209,-3.1052,-3.1011,-3.1011,-6.5247,-6.5772,-6.5542,-6.5575,-6.5804,-6.5804,-6.5804,-6.5804,-6.5804,-6.5518,-6.5233,-6.559,-6.5645,-6.5323,-6.5166,-6.4798,-6.4239,-6.359,-6.2404,-6.0878,-6.0324,-6.0393,-6.0843,-6.157,-6.1257,-6.0151,-5.9116,-5.7564,-5.5635,-5.4842,-5.4303,-5.4045,-5.4013,-5.3986,-5.3788,-5.3652,-5.3651,-5.3817,-5.3461,-5.3033,-5.292,-5.303,-5.3506,-5.4137,-5.4295,-5.4554,-5.4869,-5.458,-5.3914,-5.3213,-5.3036,-5.3213,-5.3517,-5.4521,-5.5126,-5.5174,-5.5281,-5.5348,-5.5163,-5.4329,-5.3853,-5.3547,-5.3112,-5.3179,-5.3815,-5.4335,-5.4463,-5.4431,-5.4207,-5.4013,-5.4013,-5.4013,-5.398,-5.4013,-5.3583,-5.3482,-5.355,-5.1852,-5.057,-5.0255,-4.9362,-4.8759,-4.8481,-4.8327,-4.7865,-4.7558,-4.688,-4.6049,-4.5895,-4.5126,-4.4787,-4.461,-4.461,-4.461,-4.461,-4.4517,-4.4425,-4.3655,-4.2848,-4.214,-4.1524,-4.0874,-4.047,-3.9672,-3.9133,-3.804,-3.608,-3.5029,-3.3826,-3.2759,-3.1691,-3.1365,-3.1182,-3.1026,-3.1011,-6.5445,-6.5772,-6.5772,-6.5736,-6.5804,-6.5804,-6.5804,-6.5804,-6.5804,-6.58,-6.5796,-6.5895,-6.611,-6.6355,-6.6016,-6.5629,-6.5335,-6.4662,-6.3482,-6.1917,-6.0912,-6.0774,-6.1536,-6.2162,-6.1501,-5.984,-5.8668,-5.7219,-5.56,-5.5115,-5.4632,-5.4775,-5.4812,-5.498,-5.5336,-5.5142,-5.5179,-5.5553,-5.5269,-5.4698,-5.4291,-5.4765,-5.5286,-5.5923,-5.5461,-5.5549,-5.5994,-5.5212,-5.4126,-5.3177,-5.345,-5.3815,-5.4335,-5.4529,-5.4842,-5.5329,-5.5005,-5.4798,-5.452,-5.4431,-5.3991,-5.3624,-5.3344,-5.3315,-5.4271,-5.4431,-5.4494,-5.4494,-5.4431,-5.4431,-5.4431,-5.4335,-5.4335,-5.4367,-5.3946,-5.3617,-5.2873,-5.1377,-5.0576,-5.0065,-4.9269,-4.8604,-4.8604,-4.8501,-4.8266,-4.7896,-4.7558,-4.6973,-4.6234,-4.5464,-4.4756,-4.461,-4.461,-4.461,-4.461,-4.4579,-4.4486,-4.4178,-4.3371,-4.2633,-4.1801,-4.1058,-4.0296,-3.9493,-3.8664,-3.7472,-3.6309,-3.5343,-3.4239,-3.3026,-3.2226,-3.1665,-3.1287,-3.1078,-3.1011,-6.5445,-6.5736,-6.5477,-6.5542,-6.5772,-6.5804,-6.5804,-6.5804,-6.5804,-6.599,-6.6269,-6.633,-6.6529,-6.6845,-6.6553,-6.6313,-6.5894,-6.4931,-6.3766,-6.2584,-6.145,-6.0939,-6.1118,-6.1467,-6.0704,-5.884,-5.8599,-5.7633,-5.5738,-5.5943,-5.6115,-5.6219,-5.6081,-5.6219,-5.6427,-5.633,-5.6366,-5.6471,-5.5996,-5.5649,-5.5577,-5.5647,-5.5753,-5.5923,-5.6201,-5.6164,-5.591,-5.5056,-5.448,-5.4112,-5.3782,-5.3948,-5.4431,-5.4494,-5.4632,-5.4807,-5.5159,-5.506,-5.4677,-5.4859,-5.479,-5.4328,-5.4004,-5.4207,-5.4431,-5.4494,-5.4494,-5.4494,-5.4494,-5.4494,-5.4465,-5.4175,-5.398,-5.3948,-5.411,-5.4143,-5.3583,-5.2316,-5.1117,-5.0849,-4.9519,-4.8738,-4.8604,-4.8604,-4.8501,-4.8296,-4.7927,-4.7465,-4.6696,-4.5618,-4.4825,-4.4641,-4.461,-4.461,-4.461,-4.461,-4.4548,-4.4456,-4.387,-4.3094,-4.2202,-4.1243,-4.0466,-3.9666,-3.8987,-3.7956,-3.688,-3.5848,-3.4597,-3.3383,-3.2528,-3.181,-3.1313,-3.0999,-3.0999,-6.5178,-6.551,-6.518,-6.5147,-6.5313,-6.5313,-6.5542,-6.5796,-6.5859,-6.6202,-6.6648,-6.6736,-6.6996,-6.7323,-6.6952,-6.6809,-6.662,-6.5718,-6.4679,-6.3555,-6.2335,-6.1593,-6.136,-6.1537,-6.0704,-5.8978,-5.8633,-5.7598,-5.6426,-5.6598,-5.6771,-5.6736,-5.6805,-5.6978,-5.7253,-5.7253,-5.7426,-5.76,-5.7329,-5.7089,-5.6846,-5.7089,-5.702,-5.6951,-5.7123,-5.6909,-5.615,-5.5391,-5.4839,-5.4502,-5.4207,-5.4175,-5.4431,-5.4494,-5.4494,-5.4529,-5.4943,-5.4911,-5.4701,-5.4943,-5.4943,-5.4598,-5.4494,-5.4494,-5.4494,-5.4494,-5.4494,-5.4494,-5.4494,-5.4494,-5.4465,-5.4207,-5.4078,-5.411,-5.4303,-5.4399,-5.4207,-5.263,-5.1634,-5.0962,-4.9805,-4.8604,-4.8604,-4.8604,-4.8604,-4.8543,-4.8296,-4.7835,-4.7219,-4.5957,-4.501,-4.4787,-4.4641,-4.461,-4.461,-4.461,-4.461,-4.4517,-4.4055,-4.3377,-4.2386,-4.1397,-4.0593,-3.9803,-3.9199,-3.845,-3.7301,-3.617,-3.5058,-3.3913,-3.2869,-3.2084,-3.1575,-3.0999,-3.0999,-6.4877,-6.5145,-6.4843,-6.474,-6.4843,-6.4843,-6.5374,-6.5945,-6.6069,-6.6493,-6.7045,-6.7193,-6.7469,-6.7815,-6.7707,-6.747,-6.7405,-6.7061,-6.5958,-6.466,-6.3361,-6.2492,-6.2055,-6.1741,-6.1014,-5.9737,-5.8564,-5.7771,-5.715,-5.7047,-5.7116,-5.7253,-5.7185,-5.7426,-5.7909,-5.8012,-5.8392,-5.8737,-5.8668,-5.8427,-5.8149,-5.8393,-5.8393,-5.8081,-5.7775,-5.7529,-5.684,-5.6081,-5.5288,-5.4667,-5.4532,-5.4463,-5.4494,-5.4494,-5.4494,-5.4494,-5.4563,-5.4563,-5.4494,-5.4563,-5.4563,-5.4494,-5.4494,-5.4494,-5.4494,-5.4494,-5.4494,-5.4494,-5.4494,-5.4494,-5.4494,-5.4463,-5.4431,-5.4399,-5.4463,-5.4399,-5.4011,-5.2769,-5.1634,-5.1192,-4.9686,-4.8944,-4.8604,-4.8604,-4.8604,-4.8604,-4.8419,-4.8081,-4.7465,-4.6511,-4.5557,-4.4941,-4.4756,-4.461,-4.461,-4.461,-4.461,-4.4548,-4.3994,-4.3316,-4.2355,-4.1454,-4.0659,-3.9905,-3.9307,-3.8554,-3.7634,-3.6543,-3.5382,-3.4286,-3.3133,-3.2463,-3.1876,-3.1261,-3.1011,-6.474,-6.4809,-6.4706,-6.5013,-6.5474,-6.5633,-6.6007,-6.6641,-6.6787,-6.7101,-6.7577,-6.7657,-6.7893,-6.8396,-6.8726,-6.88,-6.8203,-6.8172,-6.7404,-6.5226,-6.4588,-6.3789,-6.285,-6.1708,-6.0289,-5.9426,-5.9012,-5.8392,-5.7909,-5.8116,-5.8495,-5.8461,-5.8323,-5.8564,-5.8668,-5.8668,-5.884,-5.9012,-5.9012,-5.8944,-5.8806,-5.8875,-5.8944,-5.8702,-5.8255,-5.7875,-5.7426,-5.6322,-5.5563,-5.5288,-5.4874,-5.4598,-5.4529,-5.4494,-5.4494,-5.4494,-5.4494,-5.4494,-5.4494,-5.4494,-5.4494,-5.4494,-5.4494,-5.4494,-5.4494,-5.4494,-5.4494,-5.4494,-5.4494,-5.4494,-5.4494,-5.4494,-5.4497,-5.4465,-5.4497,-5.4497,-5.4237,-5.3382,-5.2177,-5.1048,-5.0236,-4.9479,-4.8728,-4.8604,-4.8604,-4.8604,-4.8481,-4.8266,-4.7619,-4.688,-4.608,-4.5249,-4.4787,-4.4641,-4.461,-4.461,-4.461,-4.4579,-4.4117,-4.3562,-4.2602,-4.1801,-4.1102,-4.0284,-3.9451,-3.8664,-3.7965,-3.6671,-3.5493,-3.4446,-3.3503,-3.2765,-3.2123,-3.1496,-3.1037,-6.4428,-6.4463,-6.4602,-6.4841,-6.5207,-6.5657,-6.6307,-6.6931,-6.7129,-6.754,-6.8033,-6.8109,-6.8272,-6.8556,-6.9298,-6.936,-6.9038,-6.8941,-6.8155,-6.6616,-6.5807,-6.4867,-6.3698,-6.2155,-6.0807,-6.0048,-5.9288,-5.8771,-5.8633,-5.8771,-5.8944,-5.9012,-5.9012,-5.8909,-5.9012,-5.9012,-5.8978,-5.9012,-5.9012,-5.9012,-5.9012,-5.9012,-5.9012,-5.8978,-5.8633,-5.8426,-5.8323,-5.7357,-5.6565,-5.6081,-5.546,-5.4839,-5.4563,-5.4494,-5.4494,-5.4494,-5.4494,-5.4494,-5.4494,-5.4494,-5.4494,-5.4494,-5.4494,-5.4494,-5.4494,-5.4494,-5.4494,-5.4494,-5.4494,-5.4494,-5.4494,-5.4494,-5.4465,-5.4207,-5.4335,-5.4463,-5.4333,-5.3581,-5.2702,-5.1598,-5.0735,-4.9718,-4.9025,-4.8728,-4.8604,-4.8604,-4.8604,-4.8358,-4.7681,-4.6973,-4.6296,-4.5557,-4.4941,-4.4603,-4.461,-4.461,-4.461,-4.4579,-4.4425,-4.3901,-4.3223,-4.2448,-4.1704,-4.069,-3.9649,-3.9162,-3.8368,-3.7011,-3.5776,-3.5049,-3.4166,-3.3172,-3.2359,-3.1836,-3.1339,-6.4182,-6.4217,-6.4566,-6.4772,-6.4972,-6.5743,-6.6569,-6.7268,-6.7579,-6.8188,-6.863,-6.8803,-6.9051,-6.9113,-6.9843,-7.0103,-6.9929,-6.9281,-6.8578,-6.7861,-6.6547,-6.5412,-6.4017,-6.2624,-6.1463,-6.1014,-5.9702,-5.9012,-5.8944,-5.9012,-5.9012,-5.9012,-5.9012,-5.9012,-5.9012,-5.9012,-5.9012,-5.9012,-5.9012,-5.9012,-5.9012,-5.9012,-5.9012,-5.8978,-5.8944,-5.8909,-5.8737,-5.8116,-5.746,-5.6805,-5.6046,-5.5288,-5.4736,-5.4494,-5.4494,-5.4494,-5.4494,-5.4494,-5.4494,-5.4494,-5.4494,-5.4494,-5.4494,-5.4494,-5.4494,-5.4494,-5.4494,-5.4494,-5.4494,-5.4494,-5.4494,-5.4494,-5.4271,-5.4045,-5.4239,-5.4367,-5.4335,-5.3615,-5.2907,-5.2769,-5.1561,-5.0274,-4.9358,-4.8852,-4.8728,-4.8604,-4.8604,-4.8419,-4.7804,-4.7188,-4.6603,-4.5988,-4.5403,-4.4756,-4.4671,-4.461,-4.461,-4.4579,-4.451,-4.4148,-4.3624,-4.2848,-4.1945,-4.0797,-3.9883,-3.9222,-3.8219,-3.6727,-3.5816,-3.548,-3.4633,-3.3356,-3.2672,-3.2163,-3.1679,-6.4602,-6.4637,-6.511,-6.5561,-6.6125,-6.6772,-6.7432,-6.8181,-6.8863,-6.9347,-6.9558,-7.0152,-7.0338,-7.0598,-7.1366,-7.1701,-7.1081,-7.0101,-6.917,-6.8331,-6.692,-6.5431,-6.4158,-6.2493,-6.1212,-6.029,-5.9495,-5.9081,-5.9012,-5.9012,-5.9012,-5.9012,-5.9012,-5.9012,-5.9012,-5.9012,-5.9012,-5.9012,-5.9012,-5.9012,-5.9012,-5.9012,-5.9012,-5.9012,-5.9012,-5.9012,-5.8875,-5.8323,-5.7564,-5.684,-5.6046,-5.5288,-5.4701,-5.4494,-5.4494,-5.4494,-5.4494,-5.4494,-5.4494,-5.4494,-5.4494,-5.4494,-5.4494,-5.4494,-5.4494,-5.4494,-5.4494,-5.4494,-5.4494,-5.4494,-5.4494,-5.4494,-5.4463,-5.4271,-5.4078,-5.398,-5.4045,-5.3583,-5.3078,-5.3213,-5.2032,-5.0779,-4.9797,-4.8975,-4.8687,-4.8604,-4.8604,-4.8604,-4.8296,-4.7681,-4.7127,-4.6511,-4.5895,-4.5249,-4.4733,-4.4641,-4.461,-4.461,-4.4517,-4.4332,-4.3778,-4.3033,-4.2082,-4.094,-3.9593,-3.8472,-3.7396,-3.6334,-3.5642,-3.5169,-3.4309,-3.343,-3.2855,-3.2306,-3.1731,-6.4877,-6.4809,-6.5565,-6.61,-6.6553,-6.7442,-6.7982,-6.8395,-6.9286,-6.9707,-6.993,-7.0487,-7.0895,-7.1007,-7.1292,-7.1329,-7.0735,-7.0215,-6.9125,-6.8047,-6.689,-6.5724,-6.4439,-6.2688,-6.1588,-6.0689,-5.9835,-5.9183,-5.9012,-5.9012,-5.9012,-5.9012,-5.9012,-5.9012,-5.9012,-5.9012,-5.9012,-5.9012,-5.9012,-5.9012,-5.9012,-5.9012,-5.9012,-5.9012,-5.9012,-5.9012,-5.8944,-5.8737,-5.7909,-5.7012,-5.6426,-5.5632,-5.4874,-5.4494,-5.4494,-5.4494,-5.4494,-5.4494,-5.4494,-5.4494,-5.4494,-5.4494,-5.4494,-5.4494,-5.4494,-5.4494,-5.4494,-5.4494,-5.4494,-5.4494,-5.4494,-5.4494,-5.4367,-5.411,-5.3849,-5.345,-5.3042,-5.2836,-5.2905,-5.2974,-5.1704,-5.0506,-4.9749,-4.9097,-4.8728,-4.8604,-4.8604,-4.8604,-4.8604,-4.8112,-4.7496,-4.6603,-4.5895,-4.5157,-4.4702,-4.4671,-4.461,-4.461,-4.4579,-4.4363,-4.3994,-4.331,-4.221,-4.0965,-3.9597,-3.8289,-3.7319,-3.6531,-3.5696,-3.4895,-3.4383,-3.3785,-3.3012,-3.2359,-3.1836,-6.5212,-6.5145,-6.613,-6.6612,-6.691,-6.8036,-6.8593,-6.8803,-6.9793,-7.0326,-7.0289,-7.0858,-7.1218,-7.1106,-7.0747,-7.0363,-6.967,-6.9558,-6.8741,-6.7876,-6.7124,-6.6191,-6.4958,-6.345,-6.2158,-6.1084,-6.0032,-5.9385,-5.9047,-5.9012,-5.9012,-5.9012,-5.9012,-5.9012,-5.9012,-5.9012,-5.9012,-5.9012,-5.9012,-5.9012,-5.9012,-5.9012,-5.9012,-5.9012,-5.9012,-5.9012,-5.8978,-5.8944,-5.8116,-5.7219,-5.6633,-5.6081,-5.4839,-5.4494,-5.4494,-5.4494,-5.4494,-5.4494,-5.4494,-5.4494,-5.4494,-5.4494,-5.4494,-5.4494,-5.4494,-5.4494,-5.4494,-5.4494,-5.4494,-5.4494,-5.4494,-5.4494,-5.4303,-5.4045,-5.3749,-5.3281,-5.2451,-5.2059,-5.1987,-5.1696,-5.0881,-5.0384,-4.9829,-4.9259,-4.8893,-4.8604,-4.8604,-4.8604,-4.8573,-4.8358,-4.7681,-4.6603,-4.5741,-4.501,-4.4641,-4.4641,-4.461,-4.461,-4.461,-4.4517,-4.4117,-4.3618,-4.2364,-4.1113,-3.9942,-3.8681,-3.771,-3.6503,-3.5413,-3.4729,-3.4564,-3.3994,-3.3038,-3.2515,-3.2097,-6.5958,-6.6325,-6.6823,-6.7277,-6.7767,-6.8925,-6.9496,-6.9719,-7.1032,-7.1912,-7.1552,-7.1849,-7.1886,-7.1515,-7.04,-6.9855,-6.9484,-6.9001,-6.8543,-6.7999,-6.737,-6.6665,-6.5693,-6.3755,-6.2742,-6.1711,-6.0434,-5.9419,-5.915,-5.9081,-5.9012,-5.9012,-5.9012,-5.9012,-5.9012,-5.9012,-5.9012,-5.9012,-5.9012,-5.9012,-5.9012,-5.9012,-5.9012,-5.9012,-5.9012,-5.9012,-5.9012,-5.8944,-5.8323,-5.7116,-5.684,-5.6046,-5.4839,-5.4494,-5.4494,-5.4494,-5.4494,-5.4494,-5.4494,-5.4494,-5.4494,-5.4494,-5.4494,-5.4494,-5.4494,-5.4494,-5.4494,-5.4494,-5.4494,-5.4494,-5.4494,-5.4494,-5.4431,-5.4239,-5.3915,-5.3483,-5.2767,-5.1842,-5.1696,-5.0989,-5.0377,-5.0422,-5.0229,-4.963,-4.9097,-4.8811,-4.8604,-4.8604,-4.8419,-4.8112,-4.7773,-4.6665,-4.5588,-4.4825,-4.461,-4.461,-4.461,-4.461,-4.461,-4.4579,-4.4271,-4.3727,-4.2553,-4.1354,-4.0143,-3.8524,-3.6906,-3.5723,-3.4868,-3.4564,-3.4481,-3.3811,-3.2934,-3.2568,-3.2306,-6.6757,-6.6566,-6.7221,-6.7888,-6.8468,-6.8927,-6.9558,-7.0301,-7.066,-7.1032,-7.1403,-7.1478,-7.1218,-7.0698,-6.9893,-6.9447,-6.9038,-6.863,-6.8221,-6.7924,-6.7358,-6.6988,-6.6367,-6.5055,-6.3824,-6.2918,-6.1718,-6.0513,-5.9872,-5.9219,-5.9012,-5.9012,-5.9012,-5.9012,-5.9012,-5.9012,-5.9012,-5.9012,-5.9012,-5.9012,-5.9012,-5.9012,-5.9012,-5.9012,-5.9012,-5.9012,-5.9012,-5.8978,-5.853,-5.7495,-5.7116,-5.6288,-5.5322,-5.4805,-5.4494,-5.4494,-5.4494,-5.4494,-5.4494,-5.4494,-5.4494,-5.4494,-5.4494,-5.4494,-5.4494,-5.4494,-5.4494,-5.4494,-5.4494,-5.4494,-5.4494,-5.4494,-5.4494,-5.4335,-5.4045,-5.398,-5.3349,-5.2274,-5.1549,-5.0685,-5.0018,-5.0104,-5.0112,-4.963,-4.9097,-4.8728,-4.8604,-4.8604,-4.8204,-4.7619,-4.725,-4.6726,-4.5618,-4.4641,-4.461,-4.461,-4.461,-4.461,-4.461,-4.4579,-4.4456,-4.3799,-4.2652,-4.136,-3.9988,-3.8225,-3.6168,-3.5345,-3.4895,-3.4605,-3.4397,-3.3796,-3.3195,-3.2725,-3.2333,-6.725,-6.6954,-6.799,-6.8752,-6.9152,-6.9125,-6.9633,-7.0412,-7.0264,-7.0512,-7.0995,-7.1007,-7.0375,-6.9509,-6.915,-6.8741,-6.8518,-6.8296,-6.806,-6.764,-6.748,-6.7506,-6.7074,-6.6143,-6.5159,-6.4746,-6.284,-6.1403,-6.0288,-5.9668,-5.9288,-5.9012,-5.9012,-5.9012,-5.9012,-5.9012,-5.9012,-5.9012,-5.9012,-5.9012,-5.9012,-5.9012,-5.9012,-5.9012,-5.9012,-5.9012,-5.9012,-5.9012,-5.8633,-5.7909,-5.715,-5.6391,-5.5598,-5.4908,-5.4563,-5.4494,-5.4494,-5.4494,-5.4494,-5.4494,-5.4494,-5.4494,-5.4494,-5.4494,-5.4494,-5.4494,-5.4494,-5.4494,-5.4494,-5.4494,-5.4494,-5.4494,-5.4494,-5.4399,-5.4175,-5.4271,-5.4076,-5.2803,-5.1443,-5.0416,-4.99,-4.9781,-4.9741,-4.9461,-4.9056,-4.8687,-4.8604,-4.8604,-4.8142,-4.7527,-4.7034,-4.6696,-4.5865,-4.4887,-4.461,-4.461,-4.461,-4.461,-4.461,-4.4579,-4.4486,-4.3838,-4.2826,-4.1394,-3.9905,-3.8104,-3.617,-3.5575,-3.4962,-3.4647,-3.4345,-3.4084,-3.3613,-3.3038,-3.2306,-6.7369,-6.782,-6.9446,-6.9906,-6.9657,-7.045,-7.0301,-7.0041,-7.0524,-7.1106,-7.1552,-7.1143,-6.9855,-6.884,-6.8246,-6.811,-6.8444,-6.7701,-6.7911,-6.8184,-6.837,-6.8271,-6.7852,-6.6994,-6.5907,-6.495,-6.3653,-6.2061,-6.0635,-6.0324,-5.9702,-5.9116,-5.9116,-5.9047,-5.9012,-5.9012,-5.9012,-5.9012,-5.9012,-5.9012,-5.9012,-5.9012,-5.9012,-5.9012,-5.9012,-5.9012,-5.9012,-5.9012,-5.8771,-5.8047,-5.7357,-5.6598,-5.5874,-5.5115,-5.4736,-5.4529,-5.4494,-5.4494,-5.4494,-5.4494,-5.4494,-5.4494,-5.4494,-5.4494,-5.4494,-5.4494,-5.4494,-5.4494,-5.4494,-5.4494,-5.4494,-5.4494,-5.4494,-5.4431,-5.4335,-5.4367,-5.4044,-5.3043,-5.1704,-5.0338,-4.9781,-4.9661,-4.9381,-4.9138,-4.9015,-4.8646,-4.8604,-4.8604,-4.8389,-4.7835,-4.7219,-4.6696,-4.6018,-4.5318,-4.4702,-4.461,-4.461,-4.461,-4.461,-4.461,-4.4579,-4.3754,-4.2952,-4.1418,-3.9887,-3.8037,-3.6427,-3.5724,-3.51,-3.4647,-3.4293,-3.4084,-3.3613,-3.2934,-3.2176,-6.8147,-6.8662,-7.0069,-7.0286,-6.967,-6.9484,-6.9781,-7.0338,-7.0264,-7.0326,-7.066,-6.9781,-6.9076,-6.8543,-6.8283,-6.8208,-6.8468,-6.8221,-6.8283,-6.8394,-6.8481,-6.8518,-6.8198,-6.7875,-6.7206,-6.609,-6.4771,-6.357,-6.2401,-6.1398,-6.0807,-6.0289,-5.9564,-5.9081,-5.9012,-5.9047,-5.9012,-5.9012,-5.9012,-5.9012,-5.9012,-5.9012,-5.9012,-5.9012,-5.9012,-5.9012,-5.9012,-5.9012,-5.884,-5.8461,-5.784,-5.7081,-5.6288,-5.5529,-5.4943,-5.4563,-5.4529,-5.4494,-5.4494,-5.4494,-5.4494,-5.4494,-5.4494,-5.4494,-5.4494,-5.4494,-5.4494,-5.4494,-5.4494,-5.4494,-5.4494,-5.4494,-5.4494,-5.4494,-5.4494,-5.4494,-5.4044,-5.3112,-5.174,-5.0331,-4.9781,-4.9582,-4.9219,-4.8852,-4.8759,-4.8635,-4.8604,-4.8573,-4.8389,-4.8142,-4.7527,-4.688,-4.6203,-4.5534,-4.4918,-4.4733,-4.461,-4.461,-4.461,-4.461,-4.4534,-4.3974,-4.3037,-4.1469,-3.9973,-3.8314,-3.697,-3.5953,-3.5223,-3.4647,-3.4361,-3.4162,-3.3561,-3.2881,-3.2202,-6.8448,-6.8956,-6.9829,-7.0004,-6.9595,-6.91,-6.9484,-7.0301,-6.993,-6.9707,-6.9633,-6.9076,-6.8667,-6.8556,-6.8481,-6.8481,-6.8481,-6.8444,-6.8481,-6.8518,-6.8518,-6.8518,-6.8481,-6.8297,-6.7731,-6.7002,-6.6098,-6.4915,-6.3268,-6.2405,-6.1709,-6.098,-6.0289,-5.9806,-5.9357,-5.9116,-5.9012,-5.9012,-5.9012,-5.9012,-5.9012,-5.9012,-5.9012,-5.9012,-5.9012,-5.9012,-5.9012,-5.9012,-5.9012,-5.8737,-5.8254,-5.7529,-5.6805,-5.6046,-5.5288,-5.477,-5.4494,-5.4494,-5.4494,-5.4494,-5.4494,-5.4494,-5.4494,-5.4494,-5.4494,-5.4494,-5.4494,-5.4494,-5.4494,-5.4494,-5.4494,-5.4494,-5.4494,-5.4494,-5.4494,-5.4463,-5.4108,-5.3349,-5.1773,-5.0253,-4.9939,-4.9582,-4.9056,-4.8687,-4.8687,-4.8604,-4.8604,-4.8604,-4.8543,-4.8235,-4.7804,-4.7157,-4.648,-4.5741,-4.5103,-4.4856,-4.461,-4.461,-4.461,-4.461,-4.4419,-4.3927,-4.3148,-4.1686,-4.0205,-3.8729,-3.7433,-3.6238,-3.533,-3.4564,-3.4361,-3.4241,-3.3666,-3.3012,-3.2463,-6.8107,-6.8494,-6.8593,-6.9038,-6.967,-6.967,-6.9707,-7.0029,-6.993,-6.9855,-6.9818,-6.9595,-6.9113,-6.863,-6.8518,-6.8518,-6.8518,-6.8518,-6.8518,-6.8518,-6.8518,-6.8518,-6.8457,-6.8309,-6.8044,-6.7296,-6.6598,-6.5519,-6.3717,-6.3411,-6.2649,-6.1846,-6.1289,-6.0703,-6.0151,-5.9392,-5.9047,-5.9012,-5.9012,-5.9012,-5.9012,-5.9012,-5.9012,-5.9012,-5.9012,-5.9012,-5.9012,-5.9012,-5.9012,-5.8875,-5.8461,-5.7702,-5.684,-5.615,-5.5391,-5.4598,-5.4529,-5.4494,-5.4494,-5.4494,-5.4494,-5.4494,-5.4494,-5.4494,-5.4494,-5.4494,-5.4494,-5.4494,-5.4494,-5.4494,-5.4494,-5.4494,-5.4494,-5.4494,-5.4494,-5.4431,-5.4076,-5.3449,-5.1882,-5.0409,-4.9939,-4.9622,-4.9015,-4.8604,-4.8604,-4.8604,-4.8604,-4.8604,-4.8604,-4.8419,-4.8019,-4.7404,-4.6726,-4.6049,-4.5411,-4.4887,-4.4603,-4.461,-4.4548,-4.4456,-4.4266,-4.3814,-4.2878,-4.1715,-4.0419,-3.8991,-3.7693,-3.6388,-3.5478,-3.4564,-3.4439,-3.4241,-3.3692,-3.3143,-3.2594,-6.8058,-6.8481,-6.8518,-6.8964,-6.9633,-6.9707,-6.9967,-7.0524,-7.1032,-7.1032,-7.045,-6.9967,-6.9261,-6.8704,-6.8518,-6.8518,-6.8518,-6.8518,-6.8518,-6.8518,-6.8518,-6.8518,-6.8457,-6.8408,-6.8171,-6.7747,-6.7232,-6.6408,-6.4948,-6.4546,-6.3799,-6.2953,-6.2223,-6.1358,-6.0496,-5.9806,-5.9633,-5.9116,-5.9012,-5.9012,-5.9012,-5.9012,-5.9012,-5.9012,-5.9012,-5.9012,-5.9012,-5.9012,-5.9012,-5.9012,-5.8599,-5.8012,-5.7081,-5.6357,-5.577,-5.4874,-5.4494,-5.4494,-5.4494,-5.4494,-5.4494,-5.4494,-5.4494,-5.4494,-5.4494,-5.4494,-5.4494,-5.4494,-5.4494,-5.4494,-5.4494,-5.4494,-5.4494,-5.4494,-5.4494,-5.4494,-5.4207,-5.3315,-5.2098,-5.0685,-4.9821,-4.9421,-4.8893,-4.8604,-4.8604,-4.8604,-4.8604,-4.8604,-4.8604,-4.8543,-4.8266,-4.7619,-4.6942,-4.6296,-4.568,-4.5064,-4.4671,-4.461,-4.4363,-4.4117,-4.3853,-4.3769,-4.2878,-4.1903,-4.0615,-3.9293,-3.7653,-3.6212,-3.5301,-3.4647,-3.4481,-3.4397,-3.4084,-3.343,-3.2725,-6.837,-6.889,-6.889,-6.9583,-7.04,-7.0227,-7.0561,-7.1366,-7.1886,-7.1552,-7.045,-6.9633,-6.9001,-6.8593,-6.8518,-6.8518,-6.8518,-6.8518,-6.8518,-6.8518,-6.8518,-6.8518,-6.8518,-6.8481,-6.8309,-6.8044,-6.763,-6.6923,-6.5961,-6.5561,-6.4968,-6.4217,-6.3338,-6.2264,-6.1224,-6.0566,-5.9944,-5.9495,-5.9323,-5.9012,-5.9012,-5.9012,-5.9012,-5.9012,-5.9012,-5.9012,-5.9012,-5.9012,-5.9012,-5.9012,-5.8806,-5.8288,-5.7288,-5.6633,-5.6012,-5.5012,-5.4494,-5.4494,-5.4494,-5.4494,-5.4494,-5.4494,-5.4494,-5.4494,-5.4494,-5.4494,-5.4494,-5.4494,-5.4494,-5.4494,-5.4494,-5.4494,-5.4494,-5.4494,-5.4494,-5.4494,-5.4239,-5.3382,-5.2416,-5.0989,-5.0018,-4.947,-4.8852,-4.8728,-4.8604,-4.8604,-4.8604,-4.8604,-4.8604,-4.8543,-4.8481,-4.7927,-4.7219,-4.6511,-4.5834,-4.5126,-4.4825,-4.4641,-4.4332,-4.4024,-4.4165,-4.4152,-4.3124,-4.21,-4.0939,-3.9492,-3.7393,-3.5927,-3.5221,-3.4729,-3.4439,-3.4397,-3.4397,-3.3718,-3.2829,-6.9001,-6.967,-6.9744,-7.0735,-7.1949,-7.1552,-7.1663,-7.2246,-7.2246,-7.1329,-6.9707,-6.9038,-6.8667,-6.8556,-6.8518,-6.8518,-6.8593,-6.8593,-6.8556,-6.8593,-6.8667,-6.8593,-6.8518,-6.8457,-6.8309,-6.8146,-6.7852,-6.736,-6.6736,-6.6161,-6.5784,-6.5303,-6.4148,-6.3136,-6.216,-6.112,-6.0324,-5.9702,-5.9288,-5.9047,-5.9012,-5.9012,-5.9012,-5.9012,-5.9012,-5.9012,-5.9012,-5.9012,-5.9012,-5.9012,-5.8978,-5.8081,-5.7322,-5.684,-5.5839,-5.4977,-5.4529,-5.4494,-5.4494,-5.4494,-5.4494,-5.4494,-5.4494,-5.4494,-5.4494,-5.4494,-5.4494,-5.4494,-5.4494,-5.4494,-5.4494,-5.4494,-5.4494,-5.4494,-5.4494,-5.4399,-5.4271,-5.3516,-5.2557,-5.1512,-5.0615,-4.9837,-4.8934,-4.8604,-4.8604,-4.8604,-4.8604,-4.8604,-4.8604,-4.8604,-4.8512,-4.8358,-4.7588,-4.6757,-4.6018,-4.5318,-4.4825,-4.461,-4.4394,-4.4148,-4.4356,-4.4205,-4.3218,-4.2186,-4.1292,-3.9632,-3.7078,-3.5859,-3.5399,-3.4936,-3.4439,-3.4397,-3.4397,-3.3666,-3.2842,-6.9818,-7.0598,-7.1218,-7.2072,-7.3112,-7.4004,-7.393,-7.3138,-7.3027,-7.1849,-6.967,-6.9447,-6.9076,-6.8543,-6.8518,-6.8556,-6.8741,-6.8927,-6.8853,-6.8853,-6.8927,-6.8816,-6.8643,-6.8408,-6.8259,-6.8132,-6.7915,-6.756,-6.6765,-6.6344,-6.6002,-6.5433,-6.4703,-6.3864,-6.2855,-6.171,-6.0532,-5.9599,-5.915,-5.9047,-5.9012,-5.9012,-5.9012,-5.9012,-5.9012,-5.9012,-5.9012,-5.9012,-5.9012,-5.9012,-5.9012,-5.8288,-5.6978,-5.6736,-5.615,-5.477,-5.4494,-5.4494,-5.4494,-5.4494,-5.4494,-5.4494,-5.4494,-5.4494,-5.4494,-5.4494,-5.4494,-5.4494,-5.4494,-5.4494,-5.4494,-5.4494,-5.4494,-5.4494,-5.4431,-5.4303,-5.4076,-5.3517,-5.2522,-5.1257,-5.0422,-4.9749,-4.8811,-4.8604,-4.8604,-4.8604,-4.8604,-4.8604,-4.8604,-4.8604,-4.8573,-4.845,-4.7804,-4.6911,-4.6203,-4.5503,-4.501,-4.4579,-4.4363,-4.4117,-4.3925,-4.3639,-4.3015,-4.1989,-4.0733,-3.87,-3.6345,-3.5602,-3.5263,-3.4812,-3.4397,-3.4397,-3.4267,-3.3613,-3.3038,-7.1626,-7.2406,-7.2927,-7.3595,-7.4476,-7.5378,-7.4858,-7.3584,-7.3372,-7.1998,-6.9855,-7.0041,-6.9707,-6.915,-6.9335,-6.9373,-6.9076,-6.9373,-6.9373,-6.9212,-6.9187,-6.8742,-6.847,-6.8334,-6.8234,-6.8107,-6.7915,-6.7731,-6.6996,-6.6464,-6.6095,-6.6368,-6.5368,-6.4235,-6.3191,-6.1916,-6.0497,-5.9564,-5.9012,-5.9012,-5.9012,-5.9012,-5.9012,-5.9012,-5.9012,-5.9012,-5.9012,-5.9012,-5.9012,-5.9012,-5.9012,-5.8288,-5.6909,-5.6253,-5.5736,-5.4563,-5.4494,-5.4494,-5.4494,-5.4494,-5.4494,-5.4494,-5.4494,-5.4494,-5.4494,-5.4494,-5.4494,-5.4494,-5.4494,-5.4494,-5.4494,-5.4494,-5.4494,-5.4494,-5.4335,-5.4175,-5.3782,-5.3382,-5.2205,-5.0805,-4.9986,-4.9421,-4.8934,-4.8728,-4.8604,-4.8604,-4.8604,-4.8604,-4.8604,-4.8604,-4.8604,-4.8543,-4.7835,-4.7004,-4.6326,-4.5719,-4.5164,-4.4695,-4.4486,-4.4209,-4.3778,-4.3417,-4.3045,-4.1637,-3.9836,-3.7904,-3.6008,-3.5548,-3.5182,-3.4729,-3.4397,-3.4397,-3.4267,-3.3849,-3.33,-7.3956,-7.4598,-7.4673,-7.5081,-7.5787,-7.575,-7.4784,-7.351,-7.3372,-7.2072,-7.0289,-7.0561,-7.0412,-6.9967,-7.0264,-7.0227,-6.993,-6.993,-6.9768,-6.9482,-6.9125,-6.8705,-6.8383,-6.8309,-6.8208,-6.8044,-6.7889,-6.7757,-6.7569,-6.7146,-6.6996,-6.7515,-6.5752,-6.4367,-6.3318,-6.2021,-6.0565,-5.9288,-5.9012,-5.9012,-5.9012,-5.9012,-5.9012,-5.9012,-5.9012,-5.9012,-5.9012,-5.9012,-5.9012,-5.9012,-5.8806,-5.8254,-5.6909,-5.5495,-5.4805,-5.4701,-5.4667,-5.4632,-5.4632,-5.4667,-5.4598,-5.4563,-5.4494,-5.4494,-5.4494,-5.4494,-5.4494,-5.4494,-5.4494,-5.4494,-5.4494,-5.4494,-5.4494,-5.4494,-5.4399,-5.3979,-5.3416,-5.2802,-5.17,-5.0531,-4.9868,-4.9259,-4.8811,-4.8604,-4.8604,-4.8604,-4.8604,-4.8604,-4.8604,-4.8604,-4.8604,-4.8573,-4.7896,-4.7188,-4.6542,-4.5895,-4.528,-4.488,-4.4572,-4.4209,-4.3747,-4.3471,-4.3227,-4.1213,-3.9065,-3.7658,-3.6184,-3.5629,-3.5086,-3.4647,-3.4397,-3.4397,-3.4214,-3.3979,-3.3456,-7.4784,-7.549,-7.5527,-7.5973,-7.653,-7.5416,-7.4365,-7.341,-7.3372,-7.2369,-7.0895,-7.0821,-7.0858,-7.0747,-7.0932,-7.0858,-7.0635,-7.0412,-7.014,-6.9681,-6.9249,-6.868,-6.8333,-6.8234,-6.8158,-6.8055,-6.7926,-6.7794,-6.7623,-6.7515,-6.7433,-6.7488,-6.5997,-6.4714,-6.3458,-6.2087,-6.06,-5.9254,-5.9012,-5.9012,-5.9012,-5.9012,-5.9012,-5.9012,-5.9012,-5.9012,-5.9012,-5.9012,-5.9012,-5.9012,-5.9012,-5.8185,-5.6874,-5.5357,-5.4632,-5.4598,-5.5012,-5.4943,-5.4874,-5.4943,-5.4977,-5.4632,-5.4494,-5.4494,-5.4494,-5.4494,-5.4494,-5.4494,-5.4494,-5.4494,-5.4494,-5.4494,-5.4494,-5.4494,-5.4463,-5.3782,-5.3077,-5.2062,-5.107,-5.0416,-4.9781,-4.9259,-4.8769,-4.8604,-4.8604,-4.8604,-4.8604,-4.8604,-4.8604,-4.8604,-4.8604,-4.8512,-4.8019,-4.7373,-4.6726,-4.6142,-4.5526,-4.4941,-4.461,-4.4178,-4.3648,-4.2796,-4.1918,-4.0083,-3.8224,-3.7111,-3.6225,-3.552,-3.5003,-3.4564,-3.4397,-3.4397,-3.4397,-3.4214,-3.3587,-7.6159,-7.6827,-7.652,-7.6,-7.5378,-7.4784,-7.4153,-7.351,-7.3372,-7.2889,-7.2109,-7.1998,-7.1812,-7.1663,-7.1849,-7.1366,-7.1081,-7.0895,-7.0288,-6.9718,-6.9224,-6.8679,-6.8382,-6.8158,-6.8055,-6.7952,-6.782,-6.7714,-6.7687,-6.7687,-6.7596,-6.7433,-6.6295,-6.4987,-6.3685,-6.2225,-6.0771,-5.9599,-5.9254,-5.9047,-5.9012,-5.9012,-5.9012,-5.9012,-5.9012,-5.9012,-5.9012,-5.9012,-5.9012,-5.8668,-5.8357,-5.7771,-5.6598,-5.5357,-5.4839,-5.5012,-5.529,-5.5393,-5.5219,-5.5219,-5.5288,-5.4805,-5.4494,-5.4494,-5.4494,-5.4494,-5.4494,-5.4494,-5.4494,-5.4494,-5.4494,-5.4494,-5.4494,-5.4494,-5.4335,-5.3913,-5.2768,-5.159,-5.0653,-4.986,-4.9381,-4.9178,-4.8769,-4.8604,-4.8604,-4.8604,-4.8604,-4.8604,-4.8604,-4.8604,-4.8604,-4.8543,-4.8112,-4.7465,-4.6726,-4.6234,-4.5772,-4.5218,-4.461,-4.3853,-4.3107,-4.1705,-4.0373,-3.8991,-3.7891,-3.7222,-3.6361,-3.5574,-3.4962,-3.4522,-3.4397,-3.4397,-3.4397,-3.4371,-3.3901,-7.7263,-7.783,-7.7078,-7.5564,-7.3781,-7.4179,-7.4041,-7.3473,-7.3372,-7.3372,-7.3261,-7.3224,-7.2952,-7.2841,-7.2927,-7.2109,-7.1441,-7.1044,-7.0362,-6.9533,-6.8865,-6.8519,-6.8308,-6.8158,-6.8004,-6.7731,-6.7542,-6.7596,-6.7687,-6.7687,-6.7569,-6.7314,-6.6342,-6.5165,-6.4037,-6.2608,-6.1047,-6.0151,-5.9599,-5.9185,-5.9081,-5.9012,-5.9012,-5.9012,-5.9012,-5.9012,-5.9012,-5.9012,-5.9012,-5.8495,-5.7805,-5.7185,-5.6426,-5.5426,-5.5081,-5.5115,-5.5701,-5.5632,-5.546,-5.5632,-5.5253,-5.4805,-5.4598,-5.4494,-5.4494,-5.4494,-5.4494,-5.4494,-5.4494,-5.4494,-5.4494,-5.4529,-5.4529,-5.4399,-5.4239,-5.3814,-5.2491,-5.122,-5.0299,-4.9421,-4.9169,-4.8975,-4.8811,-4.8604,-4.8604,-4.8604,-4.8604,-4.8604,-4.8604,-4.8604,-4.8604,-4.8604,-4.8419,-4.7681,-4.6819,-4.6388,-4.5988,-4.5126,-4.4441,-4.3503,-4.253,-4.1454,-4.0091,-3.8416,-3.7433,-3.6864,-3.6307,-3.5601,-3.5042,-3.4481,-3.4439,-3.4397,-3.4397,-3.4345,-3.4188,-7.6121,-7.6196,-7.5378,-7.4773,-7.429,-7.3855,-7.3547,-7.341,-7.3372,-7.3372,-7.3398,-7.3398,-7.3287,-7.3175,-7.3287,-7.2629,-7.1626,-7.1081,-7.03,-6.9508,-6.8791,-6.8433,-6.8222,-6.8132,-6.7952,-6.7623,-6.7294,-6.7266,-6.723,-6.7433,-6.7378,-6.6823,-6.6095,-6.4944,-6.3752,-6.251,-6.1565,-6.0634,-6.0013,-5.9599,-5.9081,-5.9012,-5.9012,-5.9012,-5.9012,-5.9012,-5.9012,-5.9012,-5.9012,-5.8564,-5.7736,-5.7081,-5.6357,-5.5529,-5.5046,-5.5219,-5.5839,-5.5839,-5.577,-5.6046,-5.5736,-5.4839,-5.4632,-5.4494,-5.4494,-5.4494,-5.4494,-5.4494,-5.4494,-5.4494,-5.4529,-5.4632,-5.4601,-5.4338,-5.4076,-5.3281,-5.2243,-5.1182,-5.0182,-4.9501,-4.8934,-4.8811,-4.8687,-4.8604,-4.8604,-4.8604,-4.8604,-4.8604,-4.8604,-4.8604,-4.8604,-4.8604,-4.8604,-4.7773,-4.685,-4.6603,-4.6172,-4.5249,-4.4342,-4.351,-4.2576,-4.1492,-4.0023,-3.841,-3.7247,-3.6518,-3.5967,-3.5695,-3.5083,-3.4564,-3.4439,-3.4397,-3.4397,-3.4371,-3.4241]},{"header":{"parameterUnit":"m.s-1","parameterCategory":1,"la1":31.0,"la2":29.5877,"lo1":-88.7671,"lo2":-86.6584,"dx":0.0162,"dy":0.0185,"nx":115,"ny":88,"refTime":"2023-01-14T18:00:00:Z","depth":0,"parameterNumber":3,"parameterNumberName":"V-component_of_WINDS"},"data":[0.0,0.0,0.0,0.0,0.0,0.0,0.0,0.0,0.0,0.0,0.0,0.0,0.0,0.0,0.0,0.0,0.0,0.0,0.0,0.0,0.0,0.0,0.0,0.0,0.0,0.0,0.0,0.0,0.0,0.0,0.0,0.0,0.0,0.0,0.0,0.0,0.0,0.0,0.0,0.0,0.0,0.0,0.0,0.0,0.0,0.0,0.0,0.0,0.0,0.0,0.0,0.0,0.0,0.0,0.0,0.0,0.0,0.0,0.0,0.0,0.0,0.0,0.0,0.0,0.0,0.0,0.0,0.0,0.0,0.0,0.0,0.0,0.0,0.0,0.0,0.0,0.0,0.0,0.0,0.0,0.0,0.0,0.0,0.0,0.0,0.0,0.0,0.0,0.0,0.0,0.0,0.0,0.0,0.0,0.0,0.0,0.0,0.0,0.0,0.0,0.0,0.0,0.0,0.0,0.0,0.0,0.0,0.0,0.0,0.0,0.0,0.0,0.0,0.0,0.0,0.0,0.0,0.0,0.0,0.0,0.0,0.0,0.0,0.0,0.0,0.0,0.0,0.0,0.0,0.0,0.0,0.0,0.0,0.0,0.0,0.0,0.0,0.0,0.0,0.0,0.0,0.0,0.0,0.0,0.0,0.0,0.0,0.0,0.0,0.0,0.0,0.0,0.0,0.0,0.0,0.0,0.0,0.0,0.0,0.0,0.0,0.0,0.0,0.0,0.0,0.0,0.0,0.0,0.0,0.0,0.0,0.0,0.0,0.0,0.0,0.0,0.0,0.0,0.0,0.0,0.0,0.0,0.0,0.0,0.0,0.0,0.0,0.0,0.0,0.0,0.0,0.0,0.0,0.0,0.0,0.0,0.0,0.0,0.0,0.0,0.0,0.0,0.0,0.0,0.0,0.0,0.0,0.0,0.0,0.0,0.0,0.0,0.0,0.0,0.0,0.0,0.0,0.0,0.0,0.0,0.0,0.0,0.0,0.0,0.0,0.0,0.0,0.0,0.0,0.0,0.0,0.0,0.0,0.0,0.0,0.0,0.0,0.0,0.0,0.0,0.0,0.0,0.0,0.0,0.0,0.0,0.0,0.0,0.0,0.0,0.0,0.0,0.0,0.0,0.0,0.0,0.0,0.0,0.0,0.0,0.0,0.0,0.0,0.0,0.0,0.0,0.0,0.0,0.0,0.0,0.0,0.0,0.0,0.0,0.0,0.0,0.0,0.0,0.0,0.0,0.0,0.0,0.0,0.0,0.0,0.0,0.0,0.0,0.0,0.0,0.0,0.0,0.0,0.0,0.0,0.0,0.0,0.0,0.0,0.0,0.0,0.0,0.0,0.0,0.0,0.0,0.0,0.0,0.0,0.0,0.0,0.0,0.0,0.0,0.0,0.0,0.0,0.0,0.0,0.0,0.0,0.0,0.0,0.0,0.0,0.0,0.0,0.0,0.0,0.0,0.0,0.0,0.0,0.0,0.0,0.0,0.0,0.0,0.0,0.0,0.0,0.0,0.0,0.0,0.0,0.0,0.0,0.0,0.0,0.0,0.0,0.0,0.0,0.0,0.0,0.0,0.0,0.0,0.0,0.0,0.0,0.0,0.0,0.0,0.0,0.0,0.0,0.0,0.0,0.0,0.0,0.0,0.0,0.0,0.0,0.0,0.0,0.0,0.0,0.0,0.0,0.0,0.0,0.0,0.0,0.0,0.0,0.0,0.0,0.0,0.0,0.0,0.0,0.0,0.0,0.0,0.0,0.0,0.0,0.0,0.0,0.0,0.0,0.0,0.0,0.0,0.0,0.0,0.0,0.0,0.0,0.0,0.0,0.0,0.0,0.0,0.0,0.0,0.0,0.0,0.0,0.0,0.0,0.0,0.0,0.0,0.0,0.0,0.0,0.0,0.0,0.0,0.0,0.0,0.0,0.0,0.0,0.0,0.0,0.0,0.0,0.0,0.0,0.0,0.0,0.0,0.0,0.0,0.0,0.0,0.0,0.0,0.0,0.0,0.0,0.0,0.0,0.0,0.0,0.0,0.0,0.0,0.0,0.0,0.0,0.0,0.0,0.0,0.0,0.0,0.0,0.0,0.0,0.0,0.0,0.0,0.0,0.0,0.0,0.0,0.0,0.0,0.0,0.0,0.0,0.0,0.0,0.0,0.0,0.0,0.0,0.0,0.0,0.0,0.0,0.0,0.0,0.0,0.0,0.0,0.0,0.0,0.0,0.0,0.0,0.0,0.0,0.0,0.0,0.0,0.0,0.0,0.0,0.0,0.0,0.0,0.0,0.0,0.0,0.0,0.0,0.0,0.0,0.0,0.0,0.0,0.0,0.0,0.0,0.0,0.0,0.0,0.0,0.0,0.0,0.0,0.0,0.0,0.0,0.0,0.0,0.0,0.0,0.0,0.0,0.0,0.0,0.0,0.0,0.0,0.0,0.0,0.0,0.0,0.0,0.0,0.0,0.0,0.0,0.0,0.0,0.0,0.0,0.0,0.0,0.0,0.0,0.0,0.0,0.0,0.0,0.0,0.0,0.0,0.0,0.0,0.0,0.0,0.0,0.0,0.0,0.0,0.0,0.0,0.0,0.0,0.0,0.0,0.0,0.0,0.0,0.0,0.0,0.0,0.0,0.0,0.0,0.0,0.0,0.0,0.0,0.0,0.0,0.0,0.0,0.0,0.0,0.0,0.0,0.0,0.0,0.0,0.0,0.0,0.0,0.0,0.0,0.0,0.0,0.0,0.0,0.0,0.0,0.0,0.0,0.0,0.0,0.0,0.0,0.0,0.0,0.0,0.0,0.0,0.0,0.0,0.0,0.0,0.0,0.0,0.0,0.0,0.0,0.0,0.0,0.0,0.0,0.0,0.0,0.0,0.0,0.0,0.0,0.0,0.0,0.0,0.0,0.0,0.0,0.0,0.0,0.0,0.0,0.0,0.0,0.0,0.0,0.0,0.0,0.0,0.0,0.0,0.0,0.0,0.0,0.0,0.0,0.0,0.0,0.0,0.0,0.0,0.0,0.0,0.0,0.0,0.0,0.0,0.0,0.0,0.0,0.0,0.0,0.0,0.0,0.0,0.0,0.0,0.0,0.0,0.0,0.0,0.0,0.0,0.0,0.0,0.0,0.0,0.0,0.0,0.0,0.0,0.0,0.0,0.0,0.0,0.0,0.0,0.0,0.0,0.0,0.0,0.0,0.0,0.0,0.0,0.0,0.0,0.0,0.0,0.0,0.0,0.0,0.0,0.0,0.0,0.0,0.0,0.0,0.0,0.0,0.0,0.0,0.0,0.0,0.0,0.0,0.0,0.0,0.0,0.0,0.0,0.0,0.0,0.0,0.0,0.0,0.0,0.0,0.0,0.0,0.0,0.0,0.0,0.0,0.0,0.0,0.0,0.0,0.0,0.0,0.0,0.0,0.0,0.0,0.0,0.0,0.0,0.0,0.0,0.0,0.0,0.0,0.0,0.0,0.0,0.0,0.0,0.0,0.0,0.0,0.0,0.0,0.0,0.0,0.0,0.0,0.0,0.0,0.0,0.0,0.0,0.0,0.0,0.0,0.0,0.0,0.0,0.0,0.0,0.0,0.0,0.0,0.0,0.0,0.0,0.0,0.0,0.0,0.0,0.0,0.0,0.0,0.0,0.0,0.0,0.0,0.0,0.0,0.0,0.0,0.0,0.0,0.0,0.0,0.0,0.0,0.0,0.0,0.0,0.0,0.0,0.0,0.0,0.0,0.0,0.0,0.0,0.0,0.0,0.0,0.0,0.0,0.0,0.0,0.0,0.0,0.0,0.0,0.0,0.0,0.0,0.0,0.0,0.0,0.0,0.0,0.0,0.0,0.0,0.0,0.0,0.0,0.0,0.0,0.0,0.0,0.0,0.0,0.0,0.0,0.0,0.0,0.0,0.0,0.0,0.0,0.0,0.0,0.0,0.0,0.0,0.0,0.0,0.0,0.0,0.0,0.0,0.0,0.0,0.0,0.0,0.0,0.0,0.0,0.0,0.0,0.0,0.0,0.0,0.0,0.0,0.0,0.0,0.0,0.0,0.0,0.0,0.0,0.0,0.0,0.0,0.0,0.0,0.0,0.0,0.0,0.0,0.0,0.0,0.0,0.0,0.0,0.0,0.0,0.0,0.0,0.0,0.0,0.0,0.0,0.0,0.0,0.0,0.0,0.0,0.0,0.0,0.0,0.0,0.0,0.0,0.0,0.0,0.0,0.0,0.0,0.0,0.0,0.0,0.0,0.0,0.0,0.0,0.0,0.0,1.3276,0.0,0.0,0.0,0.0,0.0,0.0,0.0,0.0,0.0,0.0,0.0,0.0,0.0,0.0,0.0,0.0,0.0,0.0,0.0,0.0,0.0,0.0,0.0,0.0,0.0,0.0,0.0,0.0,0.0,0.0,0.0,0.0,0.0,0.0,0.0,0.0,0.0,0.0,0.0,0.0,0.0,0.0,0.0,0.0,0.0,0.0,0.0,0.0,0.0,0.0,0.0,0.0,0.0,0.0,0.0,0.0,0.0,0.0,0.0,0.0,0.0,0.0,0.0,0.0,0.0,0.0,0.0,0.0,0.0,0.0,0.0,0.0,0.0,0.0,0.0,0.0,0.0,0.0,0.0,0.0,0.0,0.0,0.0,0.0,0.0,0.0,0.0,0.0,0.0,0.0,0.0,0.0,0.0,0.0,0.0,0.0,0.0,0.0,0.0,0.0,0.0,0.0,0.0,0.0,0.0,0.0,0.0,0.0,0.0,0.0,1.2539,1.2177,1.4203,1.5033,1.4527,0.0,0.0,0.0,0.0,0.0,0.0,0.0,0.0,0.0,0.0,0.0,0.0,0.0,0.0,0.0,0.0,0.0,0.0,0.0,0.0,0.0,0.0,0.0,0.0,0.0,0.0,0.0,0.0,0.0,0.0,0.0,0.0,0.0,0.0,0.0,0.0,0.0,0.0,0.0,0.0,0.0,0.0,0.0,0.0,0.0,0.0,0.0,0.0,0.0,0.0,0.0,0.0,0.0,0.0,0.0,0.0,0.0,0.0,0.0,0.0,0.0,0.0,0.0,0.0,0.0,0.0,0.0,0.0,0.0,0.0,0.0,0.0,0.0,0.0,0.0,0.0,0.0,0.0,0.0,0.0,0.0,0.0,0.0,0.0,0.0,0.0,0.0,0.0,0.0,0.0,0.0,0.0,0.0,0.0,0.0,0.0,0.0,0.0,0.0,0.0,0.0,0.0,0.0,0.0,0.0,0.0,0.0,0.0,0.0,0.0,0.0,0.0,1.5521,1.645,1.6204,0.0,0.0,0.0,0.0,0.0,0.0,0.0,0.0,0.0,0.0,0.0,0.0,0.0,0.0,0.0,0.0,0.0,0.0,0.0,0.0,0.0,0.0,0.0,0.0,0.0,0.0,0.0,0.0,0.0,0.0,0.0,0.0,0.0,0.0,0.0,0.0,0.0,0.0,0.0,0.0,0.0,0.0,0.0,0.0,0.0,0.0,0.0,0.0,0.0,0.0,0.0,0.0,0.0,0.0,0.0,0.0,0.0,0.0,0.0,0.0,0.0,0.0,0.0,0.0,0.0,0.0,0.0,0.0,0.0,0.0,0.0,0.0,0.0,0.0,0.0,0.0,0.0,0.0,0.0,0.0,0.0,0.0,0.0,0.0,0.0,0.0,0.0,0.0,0.0,0.0,0.0,0.0,0.0,0.0,0.0,0.0,0.0,0.0,0.0,0.0,0.0,0.0,0.0,0.0,0.0,0.0,0.0,0.0,0.0,0.0,1.2826,1.5529,1.5566,0.0,1.7477,0.0,0.0,0.0,0.0,0.0,0.0,0.0,0.0,0.0,0.0,0.0,0.0,0.0,0.0,0.0,0.0,0.0,0.0,0.0,0.0,0.0,0.0,0.0,0.0,0.0,0.0,0.0,0.0,0.0,0.0,0.0,0.0,0.0,0.0,0.0,0.0,0.0,0.0,0.0,0.0,0.0,0.0,0.0,0.0,0.0,0.0,0.0,0.0,0.0,0.0,0.0,0.0,0.0,0.0,0.0,0.0,0.0,0.0,0.0,0.0,0.0,0.0,0.0,0.0,0.0,0.0,0.0,0.0,0.0,0.0,0.0,0.0,0.0,0.0,0.0,0.0,0.0,0.0,0.0,0.0,0.0,0.0,0.0,0.0,0.0,0.0,0.0,0.0,0.0,0.0,0.0,0.0,0.0,0.0,0.0,0.0,0.0,0.0,0.0,0.0,0.0,0.0,0.0,0.0,0.0,0.0,0.0,0.0,0.0,0.0,1.3804,1.5854,1.6653,1.7197,0.0,0.0,0.0,0.0,0.0,0.0,0.0,0.0,0.0,0.0,0.0,0.0,0.0,0.0,0.0,0.0,0.0,0.0,0.0,0.0,0.0,0.0,0.0,0.0,0.0,0.0,0.0,0.0,0.0,0.0,0.0,0.0,0.0,0.0,0.0,0.0,0.0,0.0,0.0,0.0,0.0,0.0,0.0,0.0,0.0,0.0,0.0,0.0,0.0,0.0,0.0,0.0,0.0,0.0,0.0,0.0,0.0,0.0,0.0,0.0,0.0,0.0,0.0,0.0,0.0,0.0,0.0,0.0,0.0,0.0,0.0,0.0,0.0,0.0,0.0,0.0,0.0,0.0,0.0,0.0,0.0,0.0,0.0,0.0,0.0,0.0,0.0,0.0,0.0,0.0,0.0,0.0,0.0,0.0,0.0,0.0,0.0,0.0,0.0,0.0,0.0,0.0,0.0,0.0,0.0,0.0,0.0,0.0,0.0,0.0,1.3963,1.5017,1.6772,1.7532,1.77,1.7208,0.0,0.0,0.0,0.0,0.0,0.0,0.0,0.0,0.0,0.0,0.0,0.0,0.0,0.0,0.0,0.0,0.0,0.0,0.0,0.0,0.0,0.0,0.0,0.0,0.0,0.0,0.0,0.0,0.0,0.0,0.0,0.0,0.0,0.0,0.0,0.0,0.0,0.0,0.0,0.0,0.0,0.0,0.0,0.0,0.0,0.0,0.0,0.0,0.0,0.0,0.0,0.0,0.0,0.0,0.0,0.0,0.0,0.0,0.0,0.0,0.0,0.0,0.0,0.0,0.0,0.0,0.0,0.0,0.0,0.0,0.0,0.0,0.0,0.0,0.0,0.0,0.0,0.0,0.0,0.0,0.0,0.0,0.0,0.0,0.0,0.0,0.0,0.0,0.0,0.0,0.0,0.0,0.0,0.0,0.0,0.0,0.0,0.0,0.0,0.0,0.0,0.0,0.0,0.0,0.0,0.0,0.0,0.0,1.7547,1.6058,1.6423,1.8961,1.79,1.7208,0.0,0.0,0.0,0.0,0.0,0.0,0.0,0.0,0.0,0.0,0.0,0.0,0.0,0.0,0.0,0.0,0.0,0.0,0.0,0.0,0.0,0.0,0.0,0.0,0.0,0.0,0.0,0.0,0.0,0.0,0.0,0.0,0.0,0.0,0.0,0.0,0.0,0.0,0.0,0.0,0.0,0.0,0.0,0.0,0.0,0.0,0.0,0.0,0.0,0.0,0.0,0.0,0.0,0.0,0.0,0.0,0.0,0.0,0.0,0.0,0.0,0.0,0.0,0.0,0.0,0.0,0.0,0.0,0.0,0.0,0.0,0.0,0.0,0.0,0.0,0.0,0.0,0.0,0.0,0.0,0.0,0.0,0.0,0.0,0.0,0.0,0.0,0.0,0.0,0.0,0.0,0.0,0.0,0.0,0.0,0.0,0.0,0.0,0.0,0.0,0.0,0.0,0.0,0.0,0.0,0.0,0.0,0.0,0.0,1.3804,1.4558,1.6241,1.8843,1.744,1.6977,0.0,0.0,0.0,0.0,0.0,0.0,0.0,0.0,0.0,0.0,0.0,0.0,0.0,0.0,0.0,0.0,0.0,0.0,0.0,0.0,0.0,0.0,0.0,0.0,0.0,0.0,0.0,0.0,0.0,0.0,0.0,0.0,0.0,0.0,0.0,0.0,0.0,0.0,0.0,0.0,0.0,0.0,0.0,0.0,0.0,0.0,0.0,0.0,0.0,0.0,0.0,0.0,0.0,0.0,0.0,0.0,0.0,0.0,0.0,0.0,0.0,0.0,0.0,0.0,0.0,0.0,0.0,0.0,0.0,0.0,0.0,0.0,0.0,0.0,0.0,0.0,0.0,0.0,0.0,0.0,0.0,0.0,0.0,0.0,0.0,0.0,0.0,0.0,0.0,0.0,0.0,0.0,0.0,0.0,0.0,0.0,0.0,0.0,0.0,0.0,0.0,0.0,0.0,0.0,0.0,0.0,0.0,0.0,0.0,1.3586,0.0,1.7897,1.8921,1.7608,1.687,0.0,0.0,0.0,0.0,0.0,0.0,0.0,0.0,0.0,0.0,0.0,0.0,0.0,0.0,0.0,0.0,0.0,0.0,0.0,0.0,0.0,0.0,0.0,0.0,0.0,0.0,0.0,0.0,0.0,0.0,0.0,0.0,0.0,0.0,0.0,0.0,0.0,0.0,0.0,0.0,0.0,0.0,0.0,0.0,0.0,0.0,0.0,0.0,0.0,0.0,0.0,0.0,0.0,0.0,0.0,0.0,0.0,0.0,0.0,0.0,0.0,0.0,0.0,0.0,0.0,0.0,0.0,0.0,0.0,0.0,0.0,0.0,0.0,0.0,0.0,0.0,0.0,0.0,0.0,0.0,0.0,0.0,0.0,0.0,0.0,0.0,0.0,0.0,0.0,0.0,0.0,0.0,0.0,0.0,0.0,0.0,0.0,0.0,0.0,0.0,0.0,0.0,0.0,0.0,0.0,0.0,0.0,0.0,1.3928,1.7847,2.0735,2.1178,1.9501,1.8576,1.6962,0.0,0.0,0.0,0.0,0.0,0.0,0.0,0.0,0.0,0.0,0.0,0.0,0.0,0.0,0.0,0.0,0.0,0.0,0.0,0.0,0.0,0.0,0.0,0.0,0.0,0.0,0.0,0.0,0.0,0.0,0.0,0.0,0.0,0.0,0.0,0.0,0.0,0.0,0.0,0.0,0.0,0.0,0.0,0.0,0.0,0.0,0.0,0.0,0.0,0.0,0.0,0.0,0.0,0.0,0.0,0.0,0.0,0.0,0.0,0.0,0.0,0.0,0.0,0.0,0.0,0.0,0.0,0.0,0.0,0.0,0.0,0.0,0.0,0.0,0.0,0.0,0.0,0.0,0.0,0.0,0.0,0.0,0.0,0.0,0.0,0.0,0.0,0.0,0.0,0.0,0.0,0.0,0.0,0.0,0.0,0.0,0.0,0.0,0.0,0.0,0.0,0.0,0.0,0.0,0.0,0.0,0.0,0.0,0.0,1.5417,1.847,2.0233,2.0351,1.8522,1.7807,0.0,0.0,0.0,0.0,0.0,0.0,0.0,0.0,0.0,0.0,0.0,0.0,0.0,0.0,0.0,0.0,0.0,0.0,0.0,0.0,0.0,0.0,0.0,0.0,0.0,0.0,0.0,0.0,0.0,0.0,0.0,0.0,0.0,0.0,0.0,0.0,0.0,0.0,0.0,0.0,0.0,0.0,0.0,0.0,0.0,0.0,0.0,0.0,0.0,0.0,0.0,0.0,0.0,0.0,0.0,0.0,0.0,0.0,0.0,0.0,0.0,0.0,0.0,0.0,0.0,0.0,0.0,0.0,0.0,0.0,0.0,0.0,0.0,0.0,0.0,0.0,0.0,0.0,0.0,0.0,0.0,0.0,0.0,0.0,0.0,0.0,0.0,0.0,0.0,0.0,0.0,0.0,0.0,0.0,0.0,0.0,0.0,0.0,0.0,0.0,0.0,0.0,0.0,0.0,0.0,0.0,0.0,0.0,0.0,1.8681,2.167,2.3336,2.3305,2.0659,1.9543,2.0125,0.0,0.0,0.0,0.0,0.0,0.0,0.0,0.0,0.0,0.0,0.0,0.0,0.0,0.0,0.0,0.0,0.0,0.0,0.0,0.0,0.0,0.0,0.0,0.0,0.0,0.0,0.0,0.0,0.0,0.0,0.0,0.0,0.0,0.0,0.0,0.0,0.0,0.0,0.0,0.0,0.0,0.0,0.0,0.0,0.0,0.0,0.0,0.0,0.0,0.0,0.0,0.0,0.0,0.0,0.0,0.0,0.0,0.0,0.0,0.0,0.0,0.0,0.0,0.0,0.0,0.0,0.0,0.0,0.0,0.0,0.0,0.0,0.0,0.0,0.0,0.0,0.0,0.0,0.0,0.0,0.0,0.0,0.0,0.0,0.0,0.0,0.0,0.0,0.0,0.0,0.0,0.0,0.0,0.0,0.0,0.0,0.0,0.0,0.0,0.0,0.0,0.0,0.0,0.0,0.0,0.0,0.0,0.0,2.6188,2.9339,2.9788,2.7427,2.4436,2.2062,0.0,0.0,0.0,0.0,0.0,0.0,0.0,0.0,0.0,0.0,0.0,0.0,0.0,0.0,0.0,0.0,0.0,0.0,0.0,0.0,0.0,0.0,0.0,0.0,0.0,0.0,0.0,0.0,0.0,0.0,0.0,0.0,0.0,0.0,0.0,0.0,0.0,0.0,0.0,0.0,0.0,0.0,0.0,0.0,0.0,0.0,0.0,0.0,0.0,0.0,0.0,0.0,0.0,0.0,0.0,0.0,0.0,0.0,0.0,0.0,0.0,0.0,0.0,0.0,0.0,0.0,0.0,0.0,0.0,0.0,0.0,0.0,0.0,0.0,0.0,0.0,0.0,0.0,0.0,0.0,0.0,0.0,0.0,0.0,0.0,0.0,0.0,0.0,0.0,0.0,0.0,0.0,0.0,0.0,0.0,0.0,0.0,0.0,0.0,0.0,0.0,0.0,0.0,0.0,0.0,0.0,0.0,0.0,0.0,3.1245,3.415,3.35,2.899,2.6229,2.4177,0.0,0.0,0.0,0.0,0.0,0.0,0.0,0.0,0.0,0.0,0.0,0.0,0.0,0.0,0.0,0.0,0.0,0.0,0.0,0.0,0.0,0.0,0.0,0.0,0.0,0.0,0.0,0.0,0.0,0.0,0.0,0.0,0.0,0.0,0.0,0.0,0.0,0.0,0.0,0.0,0.0,0.0,0.0,0.0,0.0,0.0,0.0,0.0,0.0,0.0,0.0,0.0,0.0,0.0,0.0,0.0,0.0,0.0,0.0,0.0,0.0,0.0,0.0,0.0,0.0,0.0,0.0,0.0,0.0,0.0,0.0,0.0,0.0,0.0,0.0,0.0,0.0,0.0,0.0,0.0,0.0,0.0,0.0,0.0,0.0,0.0,0.0,0.0,0.0,0.0,0.0,0.0,0.0,0.0,0.0,0.0,0.0,0.0,0.0,0.0,0.0,0.0,0.0,0.0,0.0,0.0,0.0,0.0,3.0979,3.4786,3.7064,3.6489,3.2854,2.978,2.709,0.0,0.0,0.0,0.0,0.0,0.0,0.0,0.0,0.0,0.0,0.0,0.0,0.0,0.0,0.0,0.0,0.0,0.0,0.0,0.0,0.0,0.0,0.0,0.0,0.0,0.0,0.0,0.0,0.0,0.0,0.0,0.0,0.0,0.0,0.0,0.0,0.0,0.0,0.0,0.0,0.0,0.0,0.0,0.0,0.0,0.0,0.0,0.0,0.0,0.0,0.0,0.0,0.0,0.0,0.0,0.0,0.0,0.0,0.0,0.0,0.0,0.0,0.0,0.0,0.0,0.0,0.0,0.0,0.0,0.0,0.0,0.0,0.0,0.0,0.0,0.0,0.0,0.0,0.0,0.0,0.0,0.0,0.0,0.0,0.0,0.0,0.0,0.0,0.0,0.0,0.0,0.0,0.0,0.0,0.0,0.0,0.0,0.0,0.0,0.0,0.0,0.0,0.0,0.0,0.0,0.0,0.0,0.0,3.2848,3.7182,3.8748,3.8902,3.7567,3.388,3.0206,0.0,0.0,0.0,0.0,0.0,0.0,0.0,0.0,0.0,0.0,0.0,0.0,0.0,0.0,0.0,0.0,0.0,0.0,0.0,0.0,0.0,0.0,0.0,0.0,0.0,0.0,0.0,0.0,0.0,0.0,0.0,0.0,0.0,0.0,0.0,0.0,0.0,0.0,0.0,0.0,0.0,0.0,0.0,0.0,0.0,0.0,0.0,0.0,0.0,0.0,0.0,0.0,0.0,0.0,0.0,0.0,0.0,0.0,0.0,0.0,0.0,0.0,0.0,0.0,0.0,0.0,0.0,0.0,0.0,0.0,0.0,0.0,0.0,0.0,0.0,0.0,0.0,0.0,0.0,0.0,0.0,0.0,0.0,0.0,0.0,0.0,0.0,0.0,0.0,0.0,0.0,0.0,0.0,0.0,0.0,0.0,0.0,0.0,0.0,0.0,0.0,0.0,0.0,0.0,0.0,0.0,0.0,0.0,3.4879,3.8512,4.0053,4.0229,3.8836,3.5638,3.1992,0.0,0.0,0.0,0.0,0.0,0.0,0.0,0.0,0.0,0.0,0.0,0.0,0.0,0.0,0.0,0.0,0.0,0.0,0.0,0.0,0.0,0.0,0.0,0.0,0.0,0.0,0.0,0.0,0.0,0.0,0.0,0.0,0.0,0.0,0.0,0.0,0.0,0.0,0.0,0.0,0.0,0.0,0.0,0.0,0.0,0.0,0.0,0.0,1.5314,0.0,0.0,0.0,0.0,0.0,0.0,0.0,0.0,0.0,0.0,0.0,0.0,0.0,0.0,0.0,0.0,0.0,0.0,0.0,0.0,0.0,0.0,0.0,0.0,0.0,0.0,0.0,0.0,0.0,0.0,0.0,0.0,0.0,0.0,0.0,0.0,0.0,0.0,0.0,0.0,0.0,0.0,0.0,0.0,0.0,0.0,0.0,0.0,0.0,0.0,0.0,0.0,0.0,0.0,0.0,0.0,0.0,0.0,0.0,3.5967,3.9347,4.0668,4.0768,3.9718,3.8064,3.4498,0.0,0.0,0.0,0.0,0.0,0.0,0.0,0.0,0.0,0.0,0.0,0.0,0.0,0.0,0.0,0.0,0.0,0.0,0.0,0.0,0.0,0.0,0.0,0.0,0.0,0.0,0.0,0.0,0.0,0.0,0.0,0.0,0.0,0.0,0.0,0.0,0.0,0.0,0.0,0.0,0.0,0.0,0.0,0.0,0.0,0.0,0.0,0.0,0.0,0.0,0.0,0.0,0.0,0.0,0.0,0.0,0.0,0.0,0.0,0.0,0.0,0.0,0.0,0.0,0.0,0.0,0.0,0.0,0.0,0.0,0.0,0.0,0.0,0.0,0.0,0.0,0.0,0.0,0.0,0.0,0.0,0.0,0.0,0.0,0.0,0.0,0.0,0.0,0.0,0.0,0.0,0.0,0.0,0.0,0.0,0.0,0.0,0.0,0.0,0.0,0.0,0.0,0.0,0.0,0.0,0.0,0.0,3.2916,3.6537,4.0168,4.1038,4.1117,4.049,4.016,3.6737,2.978,0.0,0.0,0.0,0.0,0.0,0.0,0.0,0.0,0.0,0.0,0.0,0.0,0.0,0.0,0.0,0.0,0.0,0.0,0.0,0.0,0.0,0.0,0.0,0.0,0.0,0.0,0.0,0.0,0.0,0.0,0.0,0.0,0.0,0.0,0.0,0.0,0.0,0.0,1.2769,1.5195,0.0,0.0,0.0,0.0,0.0,0.0,0.0,0.0,1.6358,0.0,0.0,0.0,0.0,0.0,0.0,0.0,0.0,0.0,0.0,0.0,0.0,0.0,0.0,0.0,0.0,0.0,0.0,0.0,0.0,0.0,0.0,0.0,0.0,0.0,0.0,0.0,0.0,0.0,0.0,0.0,0.0,0.0,0.0,0.0,0.0,0.0,0.0,0.0,0.0,0.0,0.0,0.0,0.0,0.0,0.0,0.0,0.0,0.0,0.0,0.0,0.0,0.0,0.0,0.0,0.0,3.2407,3.3749,3.673,4.1529,4.1793,4.1649,4.1139,3.9931,3.6695,3.1312,0.0,0.0,0.0,0.0,0.0,0.0,0.0,0.0,0.0,0.0,0.0,0.0,0.0,0.0,0.0,0.0,0.0,0.0,0.0,0.0,0.0,0.0,0.0,0.0,0.0,0.0,0.0,0.0,0.0,0.0,0.0,0.0,0.0,0.0,0.0,0.0,0.0,0.0,0.0,1.8143,1.8772,0.0,0.0,0.0,0.0,0.0,0.0,0.0,0.0,1.7082,0.0,0.0,0.0,0.0,0.0,0.0,0.0,0.0,0.0,0.0,0.0,0.0,0.0,0.0,0.0,0.0,0.0,0.0,0.0,0.0,0.0,0.0,0.0,0.0,0.0,0.0,0.0,0.0,0.0,0.0,0.0,0.0,0.0,0.0,0.0,0.0,0.0,0.0,0.0,0.0,0.0,0.0,0.0,0.0,0.0,0.0,0.0,0.0,0.0,0.0,0.0,0.0,0.0,0.0,0.0,3.0393,3.4509,3.7899,4.0396,4.148,4.1897,4.1691,4.0375,3.7246,0.0,0.0,0.0,0.0,0.0,0.0,0.0,0.0,0.0,0.0,0.0,0.0,0.0,0.0,0.0,0.0,0.0,0.0,0.0,0.0,0.0,0.0,0.0,0.0,0.0,0.0,0.0,0.0,0.0,0.0,0.0,0.0,0.0,0.0,0.0,0.0,0.0,0.0,0.0,0.0,1.9037,1.9877,2.0133,0.0,0.0,0.0,0.0,0.0,0.0,1.7321,1.6902,0.0,0.0,0.0,0.0,0.0,0.0,0.0,0.0,0.0,0.0,0.0,0.0,0.0,0.0,0.0,0.0,0.0,0.0,0.0,0.0,0.0,0.0,0.0,0.0,0.0,0.0,0.0,0.0,0.0,0.0,0.0,0.0,0.0,0.0,0.0,0.0,0.0,0.0,0.0,0.0,0.0,0.0,0.0,0.0,0.0,0.0,0.0,0.0,0.0,0.0,0.0,0.0,0.0,0.0,0.0,2.8274,3.4454,3.8342,3.9644,4.098,4.1877,4.227,4.063,3.7371,0.0,0.0,0.0,0.0,0.0,0.0,0.0,0.0,0.0,0.0,0.0,0.0,0.0,0.0,0.0,0.0,0.0,0.0,0.0,0.0,0.0,0.0,0.0,0.0,0.0,0.0,0.0,0.0,0.0,0.0,0.0,0.0,0.0,0.0,0.0,0.0,0.0,0.0,0.0,0.0,0.0,2.0557,2.0541,2.0012,0.0,0.0,0.0,0.0,1.8784,1.8379,0.0,0.0,0.0,0.0,0.0,0.0,0.0,0.0,0.0,0.0,0.0,0.0,0.0,0.0,0.0,0.0,0.0,0.0,0.0,0.0,0.0,0.0,0.0,0.0,0.0,0.0,0.0,0.0,0.0,0.0,0.0,0.0,0.0,0.0,0.0,0.0,0.0,0.0,0.0,0.0,0.0,0.0,0.0,0.0,0.0,0.0,0.0,0.0,0.0,0.0,0.0,0.0,0.0,0.0,0.0,0.0,2.9167,3.2399,3.649,4.1262,4.0914,4.1316,4.291,3.9804,3.5968,0.0,0.0,0.0,0.0,0.0,0.0,0.0,0.0,0.0,0.0,0.0,0.0,0.0,0.0,0.0,0.0,0.0,0.0,0.0,0.0,0.0,0.0,0.0,0.0,0.0,0.0,0.0,0.0,0.0,0.0,0.0,0.0,0.0,0.0,0.0,0.0,0.0,0.0,0.0,0.0,0.0,2.1004,1.9811,2.0143,2.0379,0.0,0.0,1.9843,2.265,2.2915,0.0,0.0,0.0,0.0,0.0,0.0,0.0,0.0,0.0,0.0,0.0,0.0,0.0,0.0,0.0,0.0,0.0,0.0,0.0,0.0,0.0,0.0,0.0,0.0,0.0,0.0,0.0,0.0,0.0,0.0,0.0,0.0,0.0,0.0,0.0,0.0,0.0,0.0,0.0,0.0,0.0,0.0,0.0,0.0,0.0,0.0,0.0,0.0,0.0,0.0,0.0,0.0,0.0,0.0,0.0,2.4791,2.8089,3.3551,3.7678,4.0194,4.1087,4.201,4.2937,3.9974,3.6179,0.0,0.0,0.0,0.0,0.0,0.0,0.0,0.0,0.0,0.0,0.0,0.0,0.0,0.0,0.0,0.0,0.0,0.0,0.0,0.0,0.0,0.0,0.0,0.0,0.0,0.0,0.0,0.0,0.0,0.0,0.0,0.0,0.0,0.0,0.0,0.0,0.0,0.0,0.0,0.0,0.0,0.0,2.1381,2.1214,0.0,0.0,0.0,2.1851,2.3079,0.0,0.0,0.0,0.0,0.0,0.0,0.0,0.0,0.0,0.0,0.0,0.0,0.0,0.0,0.0,0.0,0.0,0.0,0.0,0.0,0.0,0.0,0.0,0.0,0.0,0.0,0.0,0.0,0.0,0.0,0.0,0.0,0.0,0.0,0.0,0.0,0.0,0.0,0.0,0.0,0.0,0.0,0.0,0.0,0.0,0.0,0.0,0.0,0.0,0.0,0.0,0.0,0.0,0.0,0.0,0.0,0.0,2.6955,3.4374,3.855,3.9081,4.0971,4.2251,4.2709,4.0288,0.0,0.0,0.0,0.0,0.0,0.0,0.0,0.0,0.0,0.0,0.0,0.0,0.0,0.0,0.0,0.0,0.0,0.0,0.0,0.0,0.0,0.0,0.0,0.0,0.0,0.0,0.0,1.0184,0.0,0.0,0.0,0.0,0.0,0.0,0.0,0.0,0.0,0.0,0.0,0.0,0.0,0.0,2.0854,2.1934,2.2394,2.2867,0.0,0.0,2.4357,2.42,2.4786,2.464,0.0,0.0,0.0,0.0,0.0,0.0,0.0,0.0,0.0,0.0,0.0,0.0,0.0,0.0,0.0,0.0,0.0,0.0,0.0,0.0,0.0,0.0,0.0,0.0,0.0,0.0,0.0,0.0,0.0,0.0,0.0,0.0,0.0,0.0,0.0,0.0,0.0,0.0,0.0,0.0,0.0,0.0,0.0,0.0,0.0,0.0,0.0,0.0,0.0,0.0,0.0,0.0,0.0,0.0,0.0,2.6909,3.3556,3.7801,3.9125,4.0325,4.1354,4.2278,4.0451,3.6493,0.0,0.0,0.0,0.0,0.0,0.0,0.0,0.0,0.0,0.0,0.0,0.0,0.0,0.0,0.0,0.0,0.0,0.0,0.0,0.0,0.0,0.0,0.0,0.0,0.0,0.0,0.0,0.0,0.0,0.0,0.0,0.0,0.0,0.0,0.0,0.0,0.0,0.0,0.0,0.0,0.0,1.902,1.9956,2.3317,2.5561,0.0,0.0,2.7961,2.7601,2.7683,2.625,2.1612,0.0,0.0,0.0,0.0,0.0,0.0,0.0,0.0,0.0,0.0,0.0,0.0,0.0,0.0,0.0,0.0,0.0,0.0,0.0,0.0,0.0,0.0,0.0,0.0,0.0,0.0,0.0,0.0,0.0,0.0,0.0,0.0,0.0,0.0,0.0,0.0,0.0,0.0,0.0,0.0,0.0,0.0,0.0,0.0,0.0,0.0,0.0,0.0,0.0,0.0,0.0,0.0,0.0,2.5505,2.6671,3.3452,3.7722,3.9146,3.9774,4.0731,4.2084,4.0238,3.7308,0.0,0.0,0.0,0.0,0.0,0.0,0.0,0.0,0.0,0.0,0.0,0.0,0.0,0.0,0.0,0.0,0.0,0.0,0.0,0.0,0.0,0.0,0.0,0.0,0.0,0.0,0.0,0.0,1.5571,1.5778,1.5842,0.0,0.0,0.0,0.0,0.0,0.0,0.0,0.0,0.0,0.0,2.1203,2.1993,2.436,0.0,0.0,2.6345,2.7208,2.7393,2.6978,2.5956,2.4084,2.2698,0.0,0.0,0.0,0.0,0.0,0.0,0.0,0.0,0.0,0.0,0.0,0.0,0.0,0.0,0.0,0.0,0.0,0.0,0.0,0.0,0.0,0.0,0.0,0.0,0.0,0.0,0.0,0.0,0.0,0.0,0.0,0.0,0.0,0.0,0.0,0.0,0.0,0.0,0.0,0.0,0.0,0.0,0.0,0.0,0.0,0.0,0.0,0.0,0.0,0.0,0.0,0.0,2.5451,2.6457,3.3512,3.7655,3.8727,3.9676,4.043,4.1017,4.0121,3.8058,0.0,0.0,0.0,0.0,0.0,0.0,0.0,0.0,0.0,0.0,0.0,0.0,0.0,0.0,0.0,0.0,0.0,0.0,0.0,0.0,0.0,0.0,0.0,0.0,0.0,0.0,0.0,0.0,1.6328,1.5442,1.3503,0.0,0.0,0.0,0.0,0.0,0.0,0.0,0.0,0.0,0.0,2.2603,2.3551,2.4803,2.5578,2.535,2.5657,2.6069,2.6387,2.6223,2.5753,2.4874,0.0,0.0,0.0,0.0,0.0,0.0,0.0,0.0,0.0,0.0,0.0,0.0,0.0,0.0,0.0,0.0,0.0,0.0,0.0,0.0,0.0,0.0,0.0,0.0,0.0,0.0,0.0,0.0,0.0,0.0,1.6209,0.0,0.0,0.0,0.0,0.0,0.0,0.0,0.0,0.0,0.0,0.0,0.0,0.0,0.0,0.0,0.0,0.0,0.0,0.0,0.0,0.0,0.0,2.505,2.6384,3.3564,3.7515,3.7873,4.0114,4.0603,3.9203,4.0178,3.8525,3.3849,0.0,0.0,0.0,0.0,0.0,0.0,0.0,0.0,0.0,0.0,0.0,0.0,0.0,0.0,0.0,0.0,0.0,0.0,0.0,0.0,0.0,0.0,0.0,0.0,0.0,0.0,1.1737,1.2207,1.2945,0.0,0.0,0.0,0.0,0.0,0.0,0.0,0.0,0.0,0.0,2.1093,2.2375,2.3963,2.4461,2.492,2.5558,2.5218,2.4909,2.5005,2.5941,2.5801,0.0,0.0,0.0,0.0,0.0,0.0,0.0,0.0,0.0,0.0,0.0,0.0,0.0,0.0,0.0,0.0,0.0,0.0,0.0,0.0,0.0,0.0,0.0,0.0,0.0,0.0,0.0,2.1046,1.947,0.0,0.0,0.0,0.0,0.0,0.0,0.0,0.0,0.0,0.0,0.0,2.6639,2.7555,0.0,0.0,0.0,0.0,0.0,0.0,0.0,0.0,0.0,0.0,0.0,0.0,2.5076,2.689,3.2605,3.6453,3.8026,3.9323,3.9875,3.9759,4.0245,3.7883,3.2288,0.0,0.0,0.0,0.0,0.0,0.0,0.0,0.0,0.0,0.0,0.0,0.0,0.0,0.0,0.0,0.0,0.0,0.0,0.0,0.0,0.0,0.0,0.0,0.0,0.0,1.4313,0.0,0.0,0.0,0.0,0.0,0.0,0.0,0.0,0.0,0.0,0.0,1.8832,2.0474,2.2347,2.3801,2.4347,2.457,2.4838,0.0,0.0,0.0,0.0,0.0,0.0,0.0,0.0,0.0,0.0,0.0,0.0,0.0,0.0,2.5959,2.0679,1.8882,1.8224,1.8159,0.0,0.0,0.0,0.0,0.0,0.0,0.0,0.0,0.0,0.0,0.0,0.0,0.0,0.0,2.3392,0.0,2.1901,0.0,0.0,0.0,0.0,0.0,0.0,0.0,0.0,2.7325,2.8657,2.9289,3.0568,3.0024,0.0,2.71,2.5193,0.0,0.0,0.0,0.0,0.0,0.0,0.0,0.0,2.5826,2.8354,3.2971,3.6209,3.7917,3.874,3.9117,3.9043,3.9377,3.7842,3.4289,3.3517,3.1845,0.0,0.0,0.0,0.0,0.0,0.0,0.0,0.0,0.0,0.0,0.0,0.0,0.0,0.0,0.0,0.0,0.0,0.0,0.0,0.0,0.0,0.0,0.0,1.5081,0.0,0.0,0.0,0.0,0.0,0.0,0.0,0.0,0.0,1.5823,1.8585,2.098,2.1937,2.3582,2.469,2.469,0.0,0.0,0.0,0.0,0.0,0.0,0.0,2.4271,2.4721,2.4166,2.3577,2.3241,2.61,2.8135,2.7015,0.0,0.0,2.4537,2.2816,2.2144,2.2164,2.1994,2.1944,2.2323,2.2951,2.352,0.0,0.0,0.0,0.0,0.0,0.0,0.0,0.0,2.5551,2.5099,0.0,2.3925,0.0,0.0,0.0,0.0,0.0,2.4649,0.0,0.0,3.1064,3.2439,3.2517,3.2951,3.2981,3.2442,3.0916,2.9534,2.8142,2.4946,0.0,0.0,0.0,0.0,0.0,0.0,2.7224,3.0874,3.4463,3.6729,3.7618,3.8491,3.8344,3.7182,3.7585,3.8302,3.9187,3.5576,3.3637,3.3822,2.5957,0.0,0.0,0.0,0.0,0.0,0.0,0.0,0.0,0.0,0.0,0.0,0.0,0.0,0.0,0.0,0.0,0.0,0.0,0.0,0.0,1.5196,0.0,0.0,0.0,0.0,0.0,0.0,0.0,0.0,0.0,0.0,1.9207,2.0259,2.1834,2.3953,0.0,0.0,0.0,0.0,2.5191,2.5326,2.4867,2.4494,2.4329,2.5173,2.5932,2.6096,0.0,0.0,2.559,2.8422,2.9988,2.6857,2.8942,3.0925,3.0241,2.8144,2.6697,2.6637,2.6159,2.5753,2.5729,2.6945,2.8132,2.7542,0.0,0.0,0.0,0.0,2.6745,2.7209,2.7648,2.8597,2.818,2.6737,2.666,0.0,0.0,0.0,0.0,0.0,0.0,2.7284,2.9098,3.0284,3.1549,3.304,3.3507,3.3515,3.3007,3.3328,3.27,3.1205,3.0657,2.7005,2.0591,0.0,0.0,0.0,0.0,2.8859,3.1476,3.4342,3.6509,3.7839,3.8215,3.7899,3.684,3.6647,3.662,3.675,3.691,3.5426,3.2101,3.034,0.0,0.0,0.0,0.0,0.0,0.0,0.0,0.0,0.0,0.0,0.0,0.0,0.0,0.0,0.0,0.0,0.0,0.0,0.0,1.3967,1.644,1.7591,0.0,0.0,0.0,0.0,0.0,0.0,0.0,0.0,0.0,2.2836,2.3216,2.386,0.0,0.0,2.5456,2.5456,2.5561,2.5664,2.5733,0.0,0.0,0.0,2.5672,2.5975,2.6902,2.8066,2.8693,2.8201,2.9463,3.0154,2.8782,2.9838,3.0807,3.069,3.0276,2.9799,2.977,2.9622,2.9533,2.9507,2.995,3.0275,3.0189,2.8708,2.758,2.7414,2.7962,2.847,2.8947,2.9493,3.0374,3.0057,2.8857,2.8831,2.8103,2.6857,2.6503,0.0,0.0,0.0,2.9083,3.0807,3.1363,3.2131,3.3157,3.3702,3.3782,3.351,3.3678,3.3538,3.2969,3.296,3.0037,2.4599,0.0,0.0,2.4405,2.771,3.0807,3.3523,3.5521,3.7036,3.7979,3.7543,3.6959,3.6348,3.5854,3.5669,3.577,3.689,3.6359,3.3871,3.2507,3.066,0.0,0.0,0.0,0.0,0.0,0.0,0.0,0.0,0.0,0.0,0.0,1.2322,0.0,0.0,0.0,0.0,1.6303,1.6739,1.8368,1.9978,0.0,0.0,0.0,0.0,0.0,0.0,0.0,2.6273,2.554,2.4771,2.5396,2.5433,2.5553,2.5901,2.6046,2.6094,2.6094,0.0,2.6334,2.6406,2.6317,2.63,2.6371,2.6282,2.6601,2.7876,2.8889,2.9403,2.9285,2.9834,3.008,2.9716,3.0086,3.0675,3.0716,3.0836,3.0955,3.1073,3.1073,3.1073,3.0984,3.0984,3.0984,3.2437,3.2241,3.0061,2.9361,2.9707,3.0144,3.0799,3.1586,3.1149,3.0952,3.093,3.0515,2.991,2.924,2.8405,0.0,3.0706,3.0524,3.1367,3.3103,3.3604,3.3551,3.3124,3.3648,3.3883,3.386,3.2989,3.3022,3.3828,3.3015,3.1786,3.0269,2.9284,2.8954,2.933,3.0524,3.2853,3.6288,3.7372,3.7926,3.793,3.6578,3.5802,3.5646,3.5249,3.531,3.5804,3.5898,3.6413,3.7272,3.3262,3.1124,3.1421,0.0,0.0,0.0,0.0,0.0,0.0,0.0,0.0,0.0,0.0,0.0,0.0,0.0,0.0,0.0,2.2212,0.0,2.5489,2.4442,0.0,0.0,0.0,1.8657,1.4297,1.9772,2.4685,2.6815,0.0,0.0,2.7066,0.0,2.709,2.7138,2.7018,2.6922,2.6946,2.6946,2.7021,2.7198,2.6895,2.6639,2.6882,2.705,2.757,2.8718,2.9528,2.9684,2.9262,2.9697,2.9908,2.9383,2.9871,3.0383,3.056,3.0564,3.0628,3.0955,3.1043,3.0984,3.0836,3.0806,3.0777,3.2949,3.2853,3.2337,3.1695,3.1127,3.1236,3.136,3.1607,3.1447,3.1455,3.1433,3.1345,3.1403,3.1598,3.1708,3.2017,3.2479,3.2433,3.2634,3.3103,3.3231,3.3231,3.3146,3.3604,3.3834,3.3856,3.44,3.4347,3.3847,3.4057,3.3526,3.2374,3.1736,3.0739,2.947,3.1899,3.407,3.5774,3.6853,3.7372,3.7348,3.6249,3.5478,3.5016,3.4665,3.4508,3.4573,3.5031,3.5178,3.4938,3.5182,3.4792,3.3439,2.8722,0.0,0.0,0.0,0.0,0.0,0.0,0.0,0.0,0.0,1.3759,1.5074,0.0,1.6286,0.0,2.5244,2.569,2.3315,2.3477,0.0,0.0,2.2733,2.1807,2.3352,2.3992,2.5324,2.7849,2.7738,2.781,2.8643,2.8739,2.8883,2.9244,2.7945,2.7042,2.7426,2.7498,2.7536,2.7599,2.7932,2.811,2.7822,2.8218,2.8609,2.8712,2.9214,2.9403,2.9024,2.9548,2.9846,2.9302,2.9383,2.9756,3.0355,3.0117,3.0083,3.0568,3.0717,3.0717,3.0657,3.0657,3.0628,3.3377,3.3377,3.3212,3.2743,3.2263,3.2263,3.2263,3.2263,3.2263,3.2263,3.2263,3.2263,3.2416,3.27,3.2962,3.3234,3.3377,3.3399,3.3508,3.3704,3.3726,3.3726,3.3726,3.3988,3.4119,3.4119,3.4714,3.467,3.4161,3.4454,3.4336,3.3792,3.3067,3.2173,3.1156,3.2755,3.409,3.4909,3.5939,3.6601,3.6844,3.5779,3.4679,3.3477,3.3898,3.374,3.281,3.4063,3.4135,3.2909,3.3582,3.3672,3.2886,2.9977,2.8525,0.0,0.0,0.0,0.0,0.0,0.0,0.0,0.0,0.0,0.0,0.0,2.031,0.0,2.6745,2.7627,2.49,2.5851,2.6843,2.7409,2.619,2.5901,2.745,2.7464,2.8017,2.9701,2.9653,2.9605,2.9965,2.9989,3.0013,3.0086,2.9076,2.845,2.8715,2.8787,2.8787,2.8787,2.8891,2.8963,2.8743,2.8846,2.9028,2.9174,2.9238,2.9203,2.9046,2.9391,2.9639,2.944,2.9513,2.9854,3.0582,3.0343,3.0202,3.0731,3.0801,3.0627,3.0598,3.0598,3.0598,3.3879,3.3857,3.3442,3.3321,3.3299,3.3246,3.3234,3.3124,3.3124,3.3124,3.3124,3.319,3.3158,3.3212,3.3278,3.3486,3.3879,3.3879,3.4119,3.4457,3.4479,3.4479,3.4479,3.4479,3.4479,3.4479,3.4479,3.4479,3.4513,3.457,3.4588,3.4543,3.3726,3.3213,3.3079,3.3113,3.3439,3.4175,3.503,3.5611,3.5963,3.5196,3.3815,3.2109,3.3406,3.3368,3.1628,3.3242,3.3452,3.168,3.1238,3.1175,3.1547,3.0971,2.9845,0.0,2.7868,0.0,0.0,0.0,0.0,0.0,0.0,0.0,0.0,2.5357,2.4771,2.3722,2.7657,2.9701,2.8258,2.9316,3.0086,3.0086,3.0086,2.9725,2.8883,3.0013,3.1235,3.2006,3.1886,3.1524,3.1187,3.1072,3.0946,3.0687,3.0494,3.035,3.0374,3.023,3.011,3.0182,2.9797,2.9615,2.9706,2.9407,2.9342,2.9796,2.9518,2.9214,2.9253,2.9351,2.9476,2.9627,2.9829,3.0307,3.1114,3.0858,3.0764,3.1341,3.109,3.0743,3.0627,3.0598,3.0598,3.4382,3.4382,3.4294,3.425,3.425,3.425,3.3792,3.3124,3.3124,3.3124,3.3093,3.3486,3.3661,3.3683,3.4076,3.4239,3.4382,3.4382,3.4447,3.4479,3.4479,3.4479,3.4479,3.4479,3.4479,3.4479,3.4479,3.4479,3.4457,3.4536,3.4493,3.4471,3.3977,3.3297,3.2573,0.0,0.0,0.0,3.4508,3.431,3.4013,3.4205,3.3931,3.3149,3.4509,0.0,3.352,3.3857,3.3685,3.2995,3.3801,0.0,0.0,0.0,0.0,0.0,0.0,0.0,0.0,0.0,0.0,0.0,2.7107,2.6576,2.5552,2.8394,2.9316,2.7152,2.9581,3.1115,3.035,3.0158,3.0086,3.0086,3.011,2.9989,2.9821,3.0446,3.1697,3.3933,3.2731,3.1862,3.2154,3.2202,3.2298,3.2491,3.2298,3.2058,3.201,3.1264,3.0759,3.0754,3.0615,3.0609,3.0652,3.0507,3.0326,3.0306,2.9853,2.9593,2.964,2.9495,2.938,2.9451,2.9804,3.0276,3.1007,3.1231,3.1302,3.1457,3.1409,3.1177,3.0684,3.0627,3.0598,3.4479,0.0,3.4479,3.4479,0.0,3.4479,3.425,3.3792,3.3792,3.3792,3.3792,3.4054,3.4163,3.4163,3.4403,3.4479,3.4479,3.4479,3.4479,3.4479,3.4479,3.4479,3.4479,3.4479,3.4479,3.4479,3.4479,3.4479,3.4479,3.4479,3.4479,3.4513,3.4032,3.3551,3.3093,3.2853,3.3038,3.3615,3.3928,3.4084,3.4038,3.4273,3.3923,3.2971,0.0,0.0,0.0,0.0,0.0,0.0,0.0,0.0,0.0,0.0,0.0,3.0863,2.9764,2.8818,2.8177,2.837,2.9172,3.0735,3.136,3.1028,2.9701,3.1841,3.2683,3.1364,3.225,3.2731,3.2442,3.1961,3.1649,3.1673,3.1717,3.148,3.1115,3.1817,3.3044,3.439,3.3885,3.326,3.326,3.3214,3.3236,3.3284,3.3068,3.2875,3.2779,3.1961,3.1308,3.1264,3.1308,3.1308,3.1284,3.1043,3.085,3.0598,3.0205,2.9811,2.9626,2.9536,2.945,2.9337,2.9516,3.0132,3.1299,3.1494,3.1517,3.2195,3.1961,3.1467,3.109,3.083,3.0598,3.4233,3.4289,3.4233,3.4177,3.4009,3.4009,3.4052,3.4138,0.0,0.0,0.0,3.4644,3.46,3.4479,3.4479,3.4556,3.4644,3.4644,3.4588,3.4644,3.4588,3.46,3.4479,3.4479,3.4479,3.4479,3.4479,3.4479,3.4534,3.46,3.46,3.4491,3.4185,3.3967,3.377,3.3399,3.3005,3.2709,3.3188,3.3718,3.4151,3.4313,3.3777,3.2332,3.3942,3.3948,3.2156,3.3804,3.3726,3.1529,3.14,3.1407,3.1311,3.1311,3.2072,3.3696,3.3839,3.3672,3.3336,3.3362,3.3458,3.3553,3.3982,3.4198,3.4006,3.4558,3.4919,3.4919,3.451,3.427,3.4246,3.3861,3.3573,3.3549,3.3477,3.302,3.2247,3.3164,3.4126,3.4655,3.4727,3.4607,3.4174,3.4102,3.403,3.3669,3.3525,3.3356,3.3188,3.2442,3.1813,3.1669,3.1645,3.1693,3.1645,3.138,3.1067,3.1043,3.0633,3.0062,2.9646,2.9544,2.948,2.9165,2.938,3.0367,3.1719,3.1809,3.1937,3.3239,3.2629,3.1756,3.1526,3.1119,3.0742,3.3289,3.3289,3.3289,3.2835,3.2207,3.2207,3.2374,3.2799,3.4361,3.5102,3.5124,3.5102,3.4906,3.4479,3.4479,3.4731,3.5102,3.5102,3.5102,0.0,3.5102,3.4906,3.4479,3.4479,3.4479,3.4479,3.4479,3.4479,3.4578,3.4928,3.4906,3.4566,3.484,3.46,3.3857,3.3726,3.3661,3.3573,3.249,3.1973,3.2038,3.2915,3.3112,3.2521,3.4341,3.5054,3.4343,3.4555,3.4354,3.3623,3.3558,3.3377,3.2889,3.2868,3.2992,3.3311,3.3296,3.327,3.3241,3.3598,3.4042,3.448,3.5017,3.4937,3.4102,3.4895,3.5497,3.5497,3.5423,3.5351,3.5376,3.4871,3.4558,3.4534,3.4174,3.3646,3.314,3.3645,3.4246,3.4703,3.4775,3.4751,3.4655,3.4631,3.4631,3.4486,3.4126,3.3789,3.3356,3.2779,3.2202,3.1837,3.1717,3.1717,3.1693,3.1669,3.1548,3.1597,3.1139,3.0633,3.0062,2.9966,2.9747,2.9214,2.9934,3.0921,3.1928,3.2558,3.2945,3.3479,3.3242,3.2774,3.1874,3.1496,3.1177,3.2379,3.2379,3.2379,3.215,3.1825,3.2009,3.2371,3.2853,3.393,3.4244,3.3993,3.3763,3.3822,3.409,3.4168,3.4561,3.5212,3.5496,3.5474,3.5212,3.519,3.4971,3.45,3.4479,3.4479,3.4479,3.4775,3.4906,3.4949,3.5386,3.5364,3.4928,3.4862,3.4622,3.4229,3.4185,3.4185,3.4185,3.353,3.3148,3.3202,3.3668,3.3776,3.3577,3.4511,3.4843,3.462,3.462,3.4532,3.4358,3.4347,3.4137,3.3632,3.366,3.3646,3.3638,3.3623,3.3733,3.3981,3.4216,3.4429,3.471,3.5191,3.531,3.4848,3.5535,3.6114,3.6374,3.6137,3.6125,3.6408,3.5699,3.5263,3.5212,3.4999,3.4672,3.4246,3.4583,3.4823,3.4799,3.4775,3.4775,3.4775,3.4775,3.4775,3.4751,3.4534,3.4222,3.3765,3.3477,3.3044,3.2298,3.1934,3.1741,3.1717,3.1717,3.1717,3.1717,3.1524,3.1139,3.0657,3.0465,3.0194,2.9705,3.0351,3.1235,3.1963,3.2684,3.3309,3.3879,3.3707,3.3213,3.2658,3.2077,3.1322,3.1518,3.1598,3.1618,3.1541,3.1446,3.188,3.2254,3.259,3.3023,3.2962,3.2668,3.2575,3.2906,3.3492,3.3584,3.4054,3.481,3.5291,3.5269,3.4904,3.4776,3.4475,3.4089,3.4216,3.4328,3.445,3.5054,3.5386,3.543,3.5889,3.5867,3.5364,3.4797,3.4479,3.4479,3.4479,3.4479,3.4479,3.4479,3.4479,3.4479,3.4479,3.4457,3.4479,3.4457,3.4479,3.4513,3.4527,3.4534,3.4422,3.4463,3.4275,3.385,3.3691,3.3743,3.3937,3.3765,3.3867,3.4456,3.4615,3.463,3.463,3.5046,3.525,3.5296,3.5645,3.6223,3.6773,3.653,3.6508,3.6882,3.6441,3.5968,3.6124,3.6006,3.5856,3.5613,3.5713,3.5617,3.516,3.4991,3.4919,3.4823,3.4775,3.4775,3.4775,3.4775,3.4607,3.4246,3.4078,3.3622,3.302,3.2298,3.1886,3.1765,3.1717,3.1717,3.1717,3.1693,3.1404,3.1043,3.0898,3.0689,3.0212,3.0368,3.1139,3.1968,3.2516,3.3241,3.3979,3.4022,3.3707,3.3416,3.2367,3.1351,3.0721,3.1049,3.1069,3.0759,3.0445,3.0791,3.1039,3.1132,3.1458,3.1625,3.1713,3.2586,3.3015,3.3014,3.2751,3.3053,3.3862,3.3903,3.3963,3.3842,3.3416,3.307,3.2802,3.3559,3.3964,3.4143,3.5265,3.5874,3.5932,3.6347,3.6347,3.5823,3.4971,3.4479,3.4479,3.4479,3.4479,3.4479,3.4479,3.4479,3.4479,3.4479,3.4479,3.4479,3.4479,3.4479,3.4534,3.4547,3.4306,3.3945,3.3912,3.367,3.3241,3.2823,3.2936,3.381,3.3107,3.2924,3.3802,3.4252,3.4526,3.4515,3.4548,3.4648,3.4592,3.4658,3.5179,3.6036,3.6286,3.6487,3.6996,3.6925,3.6885,3.7316,3.7059,3.72,3.7344,3.6867,3.6194,3.5833,3.5641,3.5376,3.4968,3.4799,3.4775,3.4775,3.4775,3.4751,3.4631,3.4294,3.4006,3.3694,3.3068,3.2298,3.191,3.1717,3.1717,3.1717,3.1717,3.15,3.1163,3.1057,3.0986,3.0584,3.0212,3.0752,3.1841,3.2334,3.2605,3.3962,3.4283,3.4138,3.3532,3.2542,3.1526,3.0391,3.0541,3.0541,3.0408,3.0241,3.0626,3.0791,3.0827,3.0763,3.0991,3.1304,3.1195,3.1617,3.248,3.2366,3.2808,3.3698,3.4,3.398,3.3698,3.3477,3.3176,3.2874,3.3415,3.3873,3.4337,3.5346,3.6058,3.6354,3.6304,3.5998,3.5496,3.484,3.4479,3.4479,3.4479,3.4479,3.4479,3.4479,3.4479,3.45,3.4797,3.4928,3.4928,3.4928,3.4928,3.4906,3.4666,3.4425,3.425,3.4229,3.401,3.353,3.3333,3.3419,3.381,3.3726,3.3814,3.4207,3.4425,3.4479,3.4479,3.4479,3.4479,3.4479,3.4479,3.4736,3.5179,3.5543,3.5982,3.6495,3.5817,3.574,3.6588,3.6295,3.6141,3.6911,3.6959,3.6892,3.7012,3.6218,3.5569,3.5304,3.4967,3.4799,3.4775,3.4775,3.4775,3.4751,3.4583,3.4342,3.403,3.3598,3.3092,3.2346,3.1886,3.1765,3.1717,3.1717,3.1573,3.1452,3.1424,3.1342,3.0962,3.0597,3.0907,3.2308,3.2608,3.2861,3.3997,3.437,3.4225,3.362,3.3067,3.2338,2.9948,3.0021,2.9851,2.9986,3.0238,3.0701,3.0993,3.1112,3.0781,3.0936,3.146,3.0459,3.071,3.1866,3.1878,3.2315,3.3031,3.343,3.3411,3.3054,3.2936,3.2721,3.2466,3.3105,3.3576,3.4063,3.5026,3.5846,3.6221,3.6136,3.5714,3.5212,3.4753,3.4479,3.4479,3.4479,3.4479,3.4479,3.4479,3.4479,3.4578,3.4971,3.519,3.519,3.519,3.519,3.519,3.4775,3.4479,3.4457,3.4479,3.4193,3.3679,3.3693,3.3814,3.3835,3.425,3.4479,3.4479,3.4479,3.4479,3.4479,3.4479,3.4401,3.4233,3.4345,3.4233,3.3818,3.4602,3.54,3.5817,3.4803,3.4636,3.5685,3.5388,3.5443,3.5913,3.6744,3.7541,3.7805,3.6843,3.5905,3.5617,3.516,3.4775,3.4775,3.4775,3.4775,3.4775,3.4751,3.4679,3.427,3.4102,3.3526,3.2707,3.2202,3.1889,3.1717,3.1717,3.1717,3.1717,3.1693,3.1669,3.125,3.1019,3.1238,3.2228,3.2695,3.3079,3.3957,3.4399,3.4283,3.3939,3.3649,3.3126,2.9385,2.9658,2.9037,2.9456,3.0325,3.0781,3.1337,3.1731,3.1483,3.1581,3.1702,3.1073,3.1055,3.1405,3.1093,3.1138,3.1497,3.168,3.168,3.1588,3.1228,3.098,3.098,3.2264,3.2768,3.2871,3.4309,3.5085,3.5279,3.5703,3.5714,3.5133,3.4619,3.4457,3.4479,3.4479,3.4479,3.4479,3.4479,3.4479,3.4522,3.4971,3.5212,3.5233,3.5212,3.5255,3.5212,3.4775,3.4479,3.4479,3.4479,3.4099,3.3339,3.3557,3.3748,3.3846,3.4217,3.4423,3.4388,3.4423,3.4479,3.4457,3.4457,3.4121,3.3424,3.3875,3.3593,3.215,3.3593,3.4714,3.5157,3.4357,3.4112,3.4869,3.5421,3.5421,3.5233,3.6911,3.782,3.7902,3.7397,3.6627,3.5761,3.516,3.4895,3.4871,3.4847,3.4775,3.4775,3.4775,3.4727,3.4631,3.427,3.3646,3.2779,3.2394,3.2154,3.1982,3.1837,3.1717,3.1717,3.1693,3.1669,3.1621,3.1404,3.1564,3.2191,3.2738,3.3192,3.3804,3.4288,3.4283,3.4167,3.379,3.3387,3.0421,3.0062,2.9795,2.9948,3.0286,3.0492,3.0678,3.083,3.0361,3.0274,3.0484,3.0104,3.0068,3.0434,3.0971,3.1269,3.1396,3.1377,3.1377,3.1359,3.1231,3.1157,3.1295,3.2209,3.2906,3.3219,3.3966,3.4219,3.386,3.3824,3.3833,3.3834,3.3735,3.3875,3.4401,3.4479,3.4479,3.4479,3.4479,3.4479,3.45,3.4971,3.5364,3.567,3.5692,3.5845,3.6151,3.5386,3.4971,3.4949,3.4687,3.4065,3.3197,3.2981,3.3158,3.3671,3.3876,3.3732,3.3367,3.399,3.4233,3.3706,3.4177,3.4121,3.3289,3.2892,3.2436,3.215,3.2835,3.3685,3.3685,3.3119,3.3042,3.4112,3.4314,3.5013,3.658,3.7601,3.7965,3.7921,3.7517,3.6892,3.6266,3.5665,3.5352,3.5304,3.4991,3.4823,3.4775,3.4775,3.4775,3.4751,3.4607,3.4246,3.3598,3.2851,3.2394,3.2202,3.201,3.1813,3.1717,3.1717,3.1693,3.1665,3.1524,3.1828,3.2452,3.3203,3.3595,3.4041,3.4486,3.4366,3.4366,3.408,3.3819,3.0565,2.973,2.9593,2.9798,3.002,3.0138,3.0326,3.0412,2.9893,2.9881,3.0038,2.9676,2.9628,3.0036,3.0783,3.1247,3.1454,3.1523,3.1506,3.1377,3.1377,3.1451,3.1671,3.2276,3.2773,3.3152,3.3524,3.3369,3.2693,3.2573,3.2598,3.2685,3.2664,3.3006,3.3593,3.3896,3.4065,3.4043,3.4345,3.4479,3.4556,3.4818,3.5128,3.5496,3.586,3.6166,3.6435,3.5648,3.5124,3.4915,3.4385,3.3649,3.2763,3.2107,3.2292,3.3317,3.3643,3.3348,3.2802,3.3883,3.4095,3.2705,3.3698,3.3952,3.2436,3.1401,3.0995,3.1111,3.2035,3.2607,3.2207,3.169,3.192,3.2985,3.2964,3.3935,3.6588,3.7115,3.7463,3.7814,3.7517,3.706,3.6699,3.6194,3.5833,3.5665,3.5231,3.5064,3.4823,3.4775,3.4775,3.4775,3.4751,3.4583,3.4174,3.3574,3.2827,3.2539,3.2274,3.1985,3.1765,3.1741,3.1693,3.1665,3.184,3.2197,3.2794,3.3582,3.4125,3.4565,3.4516,3.4366,3.4366,3.4366,3.4138,2.9643,2.8489,2.8233,2.885,2.9399,2.9765,3.0229,3.0628,3.0422,3.0306,3.039,3.0004,2.9804,3.0207,3.0446,3.0804,3.1425,3.189,3.1836,3.1469,3.1433,3.1634,3.1964,3.2386,3.2551,3.2641,3.2781,3.2406,3.1584,3.19,3.2013,3.1808,3.1805,3.192,3.1862,3.2721,3.3119,3.3233,3.3875,3.4345,3.4479,3.4388,3.4482,3.4614,3.5306,3.5678,3.5838,3.5381,3.4967,3.4441,3.3636,3.2721,3.192,3.1035,3.125,3.2714,3.3479,3.3351,3.2646,3.3886,3.3656,3.2014,3.3135,3.3197,3.1131,2.9863,2.9272,2.9568,3.0723,3.1459,3.0781,3.0548,3.0898,3.1574,3.1649,3.2525,3.4159,3.5398,3.624,3.7447,3.7407,3.7252,3.7108,3.6747,3.629,3.593,3.5617,3.54,3.5015,3.4871,3.4775,3.4775,3.4775,3.4679,3.4534,3.4294,3.3549,3.2875,3.2587,3.2274,3.1937,3.1862,3.1741,3.1689,3.2215,3.2599,3.3714,3.4413,3.4578,3.4848,3.4634,3.4457,3.4366,3.4366,3.4366,3.036,2.9106,2.9514,2.9514,2.9334,2.9447,2.9622,2.9764,2.9679,2.9589,2.9488,2.9438,2.9428,2.9621,3.0575,3.1132,3.1236,3.2187,3.2478,3.1909,3.1799,3.1873,3.2074,3.2404,3.2459,3.2214,3.1958,3.1295,3.0405,3.02,3.0311,3.0743,3.084,3.1169,3.171,3.2092,3.2207,3.2322,3.3063,3.3537,3.3537,3.3537,3.3684,3.4038,3.3809,3.3575,3.3634,3.4365,3.4529,3.4082,3.2908,3.2092,3.1614,3.0583,3.0452,3.1521,3.2096,3.1758,3.0907,3.2155,3.2578,3.1245,3.1917,3.1862,3.0606,2.9509,2.9035,2.9094,3.0138,3.0665,3.0509,3.0392,3.049,3.0781,3.1014,3.1052,3.1572,3.3599,3.5323,3.6306,3.718,3.7652,3.7637,3.7252,3.6867,3.6603,3.6098,3.5617,3.5497,3.5088,3.4799,3.4775,3.4775,3.4775,3.4655,3.4558,3.4102,3.3428,3.2996,3.2563,3.2202,3.1886,3.1765,3.2089,3.2568,3.3427,3.4498,3.5038,3.5192,3.5072,3.4853,3.4661,3.4486,3.4366,3.4366,3.0425,2.9369,2.9783,2.9712,2.9298,2.9298,2.9298,2.9298,2.9298,2.9171,2.9043,2.9202,2.8884,2.8743,3.0042,3.0647,3.064,3.1965,3.2313,3.1945,3.199,3.1943,3.1926,3.2222,3.2314,3.1899,3.1433,3.0607,2.9659,2.9237,2.9331,2.9804,2.9863,3.0233,3.0976,3.1367,3.1524,3.178,3.2601,3.3219,3.3471,3.3298,3.3272,3.3664,3.3109,3.2376,3.1838,3.2714,3.3282,3.2929,3.1946,3.1189,3.0743,2.9911,2.9698,3.0426,3.0959,3.0838,2.9795,3.1367,3.1564,3.0296,3.0974,3.1169,3.0138,2.9272,2.9035,2.9094,2.9509,2.9863,2.9863,2.9863,2.9922,2.9863,3.047,3.0568,3.0529,3.3113,3.5245,3.6096,3.7113,3.7838,3.7878,3.7757,3.7397,3.7156,3.6627,3.5978,3.5857,3.5256,3.4992,3.4775,3.4775,3.4775,3.4775,3.4703,3.4631,3.403,3.3477,3.2923,3.2442,3.2006,3.1761,3.263,3.3275,3.4402,3.5456,3.5569,3.5645,3.5361,3.512,3.4835,3.4632,3.4457,3.4366,2.9997,2.9369,2.9369,2.9354,2.9298,2.9298,2.9298,2.9298,2.9298,2.921,2.9122,2.8995,2.8403,2.7825,2.8619,2.9306,2.9861,3.0842,3.1392,3.1378,3.154,3.1553,3.1523,3.2015,3.2101,3.1734,3.1194,3.0424,2.9641,2.9305,2.9048,2.9278,2.9375,2.931,2.9967,3.0566,3.1139,3.151,3.2394,3.3273,3.4007,3.3314,3.3055,3.3436,3.2914,3.191,3.0719,3.0841,3.125,3.148,3.0859,3.0138,2.9272,2.8993,2.9237,2.9651,3.049,3.0219,2.9833,3.0796,3.1093,2.9191,3.0258,3.0937,2.939,2.9094,2.8975,2.8975,2.9094,2.9094,2.9094,2.9272,2.9272,2.9213,2.9903,3.049,3.1534,3.3845,3.5168,3.5959,3.7042,3.7974,3.7974,3.7979,3.7709,3.7421,3.7156,3.6699,3.6122,3.5521,3.4968,3.4775,3.4775,3.4775,3.4775,3.4751,3.4679,3.4438,3.3885,3.3308,3.2659,3.2151,3.1981,3.2846,3.3759,3.502,3.5837,3.5808,3.5845,3.5806,3.5478,3.5091,3.4748,3.4516,3.4366,2.9997,2.9354,2.9926,2.9783,2.9369,2.9298,2.9298,2.9298,2.9298,2.8779,2.813,2.7985,2.7303,2.6415,2.7143,2.7722,2.831,2.9334,2.9904,2.9935,3.0304,3.0716,3.1225,3.1998,3.1938,3.1286,3.1157,3.0644,2.9714,2.9745,2.9837,2.9892,2.9819,2.9892,3.0082,3.0346,3.0445,3.0661,3.152,3.2129,3.233,3.2209,3.2027,3.2044,3.1474,3.0653,2.9806,2.9582,2.958,2.9764,3.0197,2.9981,2.9094,2.8975,2.9048,2.9218,2.9638,2.974,2.9379,2.9864,2.9826,2.9039,2.9474,2.9509,2.9094,2.8975,2.8975,2.8975,2.8975,2.8975,2.9112,2.9568,2.9922,2.9981,2.9686,2.9627,3.047,3.2374,3.4236,3.4703,3.6642,3.7737,3.7974,3.7974,3.7979,3.7733,3.7445,3.7084,3.6483,3.5641,3.4943,3.4799,3.4775,3.4775,3.4775,3.4775,3.4727,3.4655,3.4198,3.3669,3.2971,3.2295,3.2333,3.2698,3.3445,3.4553,3.5305,3.5691,3.5826,3.6114,3.5732,3.5328,3.4777,3.4428,3.4428,3.048,2.9855,3.0567,3.0638,3.0283,3.0283,2.9783,2.9122,2.8979,2.8186,2.7012,2.6794,2.6137,2.5171,2.6036,2.6401,2.6663,2.7727,2.846,2.8964,2.9732,3.0542,3.118,3.1693,3.1517,3.1359,3.1176,3.0626,3.0002,3.0094,3.0185,3.0167,3.0204,3.0296,3.0442,3.0442,3.0534,3.0788,3.129,3.1645,3.208,3.1726,3.1851,3.1813,3.1096,3.0259,2.9855,2.9452,2.9159,2.9209,2.9509,2.9568,2.9094,2.8975,2.8975,2.8993,2.9214,2.9273,2.9085,2.9214,2.9214,2.903,2.8975,2.8975,2.8975,2.8975,2.8975,2.8975,2.8975,2.8975,2.9112,2.9509,2.9745,2.9686,2.9331,2.9153,2.9509,3.1937,3.3452,3.4536,3.6185,3.7974,3.7974,3.7974,3.7974,3.7926,3.7733,3.7372,3.6892,3.5905,3.5087,3.4992,3.4799,3.4775,3.4775,3.4775,3.4775,3.4703,3.4342,3.3814,3.3116,3.2415,3.2361,3.2593,3.3258,3.3943,3.486,3.5699,3.6304,3.6368,3.5949,3.5555,3.5067,3.4428,3.4428,3.1206,3.0551,3.1277,3.1489,3.1277,3.1277,2.9965,2.8588,2.83,2.7288,2.5904,2.5625,2.4891,2.3931,2.4811,2.5226,2.4951,2.6078,2.7152,2.8115,2.9293,3.0395,3.1278,3.112,3.1256,3.1596,3.1139,3.0717,3.0387,3.0332,3.0369,3.0442,3.0406,3.0534,3.0791,3.0846,3.1047,3.1231,3.1359,3.1724,3.215,3.1787,3.1787,3.2112,3.1369,3.0589,3.0222,2.9819,2.9397,2.9067,2.9071,2.9035,2.8975,2.8975,2.8975,2.8975,2.9012,2.9012,2.8975,2.9012,2.9012,2.8975,2.8975,2.8975,2.8975,2.8975,2.8975,2.8975,2.8975,2.8975,2.8975,2.9035,2.9094,2.9153,2.9035,2.9153,2.9785,3.1707,3.3452,3.4125,3.6348,3.7471,3.7974,3.7974,3.7974,3.7974,3.7829,3.7565,3.7084,3.6338,3.5593,3.5112,3.4968,3.4775,3.4775,3.4775,3.4775,3.4727,3.4294,3.3766,3.3092,3.2533,3.2342,3.2531,3.3129,3.3885,3.4788,3.5598,3.648,3.6607,3.6238,3.5896,3.5479,3.4719,3.4366,3.1489,3.1347,3.1559,3.0922,2.9838,2.9393,2.8444,2.6925,2.6561,2.5758,2.4596,2.4375,2.3709,2.2719,2.3329,2.3355,2.3651,2.456,2.5621,2.7184,2.8084,2.9576,3.0909,3.1272,3.1552,3.1598,3.1377,3.1047,3.0791,3.0901,3.1102,3.1084,3.1011,3.1139,3.1194,3.1194,3.1286,3.1377,3.1377,3.1506,3.168,3.1635,3.1506,3.179,3.1138,3.0854,3.0534,2.9947,2.9544,2.9397,2.9177,2.903,2.8993,2.8975,2.8975,2.8975,2.8975,2.8975,2.8975,2.8975,2.8975,2.8975,2.8975,2.8975,2.8975,2.8975,2.8975,2.8975,2.8975,2.8975,2.8975,2.8975,2.9053,2.9112,2.9053,2.9053,2.9372,3.0665,3.2525,3.427,3.5585,3.6696,3.7814,3.7974,3.7974,3.7974,3.7878,3.7709,3.7204,3.6627,3.6002,3.5352,3.4992,3.4799,3.4775,3.4775,3.4775,3.4751,3.439,3.3958,3.3284,3.2659,3.2475,3.2621,3.2957,3.3759,3.4485,3.5802,3.6754,3.6618,3.6482,3.615,3.5677,3.498,3.4395,3.2123,3.2052,3.1683,3.1101,3.0233,2.9147,2.7635,2.6196,2.5684,2.4583,2.3426,2.3203,2.2843,2.2358,2.26,2.2788,2.3016,2.3907,2.4722,2.5822,2.7006,2.8711,2.9957,3.0905,3.1318,3.176,3.1524,3.1249,3.1176,3.1249,3.1341,3.1377,3.1377,3.1322,3.1377,3.1377,3.1359,3.1377,3.1377,3.1377,3.1377,3.1377,3.1377,3.1359,3.1176,3.1066,3.1011,3.0497,3.0156,2.9819,2.9489,2.9159,2.9012,2.8975,2.8975,2.8975,2.8975,2.8975,2.8975,2.8975,2.8975,2.8975,2.8975,2.8975,2.8975,2.8975,2.8975,2.8975,2.8975,2.8975,2.8975,2.8975,2.9112,2.9509,2.9272,2.9035,2.9194,3.0315,3.1667,3.3508,3.4869,3.6371,3.7364,3.7814,3.7974,3.7974,3.7974,3.7781,3.7252,3.6699,3.617,3.5593,3.5112,3.4847,3.4775,3.4775,3.4775,3.4751,3.4631,3.4222,3.3694,3.3164,3.2656,3.2803,3.2903,3.33,3.4095,3.5507,3.6805,3.6854,3.6719,3.636,3.5938,3.5357,3.4806,3.2526,3.2456,3.1578,3.1155,3.0643,2.8757,2.6896,2.5318,2.4931,2.3812,2.2631,2.2355,2.2603,2.2539,2.2693,2.2778,2.3059,2.3518,2.4117,2.4616,2.6213,2.785,2.9174,3.0122,3.1064,3.2271,3.1744,3.1377,3.1341,3.1377,3.1377,3.1377,3.1377,3.1377,3.1377,3.1377,3.1377,3.1377,3.1377,3.1377,3.1377,3.1377,3.1377,3.1359,3.1341,3.1322,3.1231,3.0901,3.0552,3.0204,2.98,2.9397,2.9104,2.8975,2.8975,2.8975,2.8975,2.8975,2.8975,2.8975,2.8975,2.8975,2.8975,2.8975,2.8975,2.8975,2.8975,2.8975,2.8975,2.8975,2.8975,2.8975,2.939,2.9804,2.945,2.9213,2.9272,3.0334,3.1476,3.1707,3.3564,3.553,3.6858,3.7655,3.7814,3.7974,3.7974,3.7829,3.7348,3.6867,3.6411,3.593,3.5473,3.4968,3.4823,3.4775,3.4775,3.4751,3.4775,3.4414,3.4006,3.3477,3.2919,3.267,3.2804,3.3351,3.4262,3.5856,3.6766,3.6982,3.6978,3.6722,3.6286,3.5799,3.5183,3.1771,3.17,3.0534,2.9361,2.8068,2.6386,2.4877,2.3476,2.3292,2.2951,2.2685,2.2879,2.2939,2.3024,2.3188,2.3297,2.3181,2.3285,2.348,2.4113,2.5354,2.6685,2.8481,2.9307,3.0519,3.1636,3.1551,3.1331,3.1377,3.1377,3.1377,3.1377,3.1377,3.1377,3.1377,3.1377,3.1377,3.1377,3.1377,3.1377,3.1377,3.1377,3.1377,3.1377,3.1377,3.1377,3.1304,3.1011,3.0607,3.0222,2.98,2.9397,2.9085,2.8975,2.8975,2.8975,2.8975,2.8975,2.8975,2.8975,2.8975,2.8975,2.8975,2.8975,2.8975,2.8975,2.8975,2.8975,2.8975,2.8975,2.8975,2.8975,2.9035,2.939,2.9745,2.9922,2.9804,3.047,3.1265,3.1111,3.283,3.4736,3.6263,3.7495,3.7868,3.7974,3.7974,3.7974,3.7733,3.7252,3.6819,3.6338,3.5857,3.5352,3.4871,3.4799,3.4775,3.4775,3.4703,3.4558,3.4126,3.3621,3.325,3.3301,3.3518,3.4037,3.5102,3.6255,3.6989,3.7386,3.7279,3.7128,3.6489,3.588,3.5241,3.1206,3.1347,2.9449,2.8228,2.7143,2.4964,2.3574,2.2968,2.2763,2.2733,2.2806,2.2988,2.3121,2.3157,2.3164,2.3176,2.2983,2.2814,2.2878,2.3264,2.3851,2.4983,2.6939,2.7747,2.9211,3.0341,3.0817,3.1055,3.1377,3.1377,3.1377,3.1377,3.1377,3.1377,3.1377,3.1377,3.1377,3.1377,3.1377,3.1377,3.1377,3.1377,3.1377,3.1377,3.1377,3.1377,3.1341,3.1231,3.0791,3.0314,3.0002,2.958,2.9177,2.8975,2.8975,2.8975,2.8975,2.8975,2.8975,2.8975,2.8975,2.8975,2.8975,2.8975,2.8975,2.8975,2.8975,2.8975,2.8975,2.8975,2.8975,2.8975,2.9213,2.9686,3.0157,3.0781,3.1478,3.1747,3.1632,3.1516,3.3417,3.5201,3.6394,3.7334,3.7814,3.7974,3.7974,3.7974,3.7974,3.7589,3.7108,3.6411,3.5857,3.528,3.4847,3.4823,3.4775,3.4775,3.4751,3.4583,3.4294,3.3837,3.4029,3.4374,3.465,3.4476,3.5183,3.6056,3.6883,3.7749,3.7688,3.744,3.6664,3.5938,3.5357,3.0409,3.0551,2.8156,2.6997,2.6357,2.4009,2.2868,2.2854,2.2846,2.285,2.2838,2.3109,2.314,2.3104,2.3072,2.2862,2.2721,2.2685,2.2418,2.23,2.2704,2.3602,2.4691,2.5958,2.7593,2.9628,3.0259,3.0667,3.1313,3.1377,3.1377,3.1377,3.1377,3.1377,3.1377,3.1377,3.1377,3.1377,3.1377,3.1377,3.1377,3.1377,3.1377,3.1377,3.1377,3.1377,3.1359,3.1341,3.0901,3.0424,3.0112,2.9819,2.9159,2.8975,2.8975,2.8975,2.8975,2.8975,2.8975,2.8975,2.8975,2.8975,2.8975,2.8975,2.8975,2.8975,2.8975,2.8975,2.8975,2.8975,2.8975,2.8975,2.9331,2.9804,3.0255,3.1073,3.2379,3.3006,3.3119,3.3572,3.4725,3.5443,3.6286,3.712,3.7601,3.7974,3.7974,3.7974,3.795,3.7781,3.7252,3.6411,3.5737,3.5087,3.4799,3.4799,3.4775,3.4775,3.4775,3.4703,3.439,3.4078,3.4459,3.4805,3.4492,3.4448,3.5165,3.6029,3.7155,3.7901,3.8052,3.7672,3.6693,3.6112,3.5648,2.8851,2.7897,2.6575,2.5405,2.4414,2.3229,2.2748,2.2821,2.308,2.3279,2.3249,2.3345,2.3357,2.3237,2.2874,2.2782,2.2661,2.2503,2.2271,2.2176,2.246,2.3199,2.4399,2.5516,2.7037,2.8858,2.9803,3.0685,3.1285,3.1414,3.1377,3.1377,3.1377,3.1377,3.1377,3.1377,3.1377,3.1377,3.1377,3.1377,3.1377,3.1377,3.1377,3.1377,3.1377,3.1377,3.1377,3.1341,3.1011,3.0369,3.0222,2.98,2.9159,2.8975,2.8975,2.8975,2.8975,2.8975,2.8975,2.8975,2.8975,2.8975,2.8975,2.8975,2.8975,2.8975,2.8975,2.8975,2.8975,2.8975,2.8975,2.8975,2.9094,2.945,3.0039,3.0723,3.1862,3.3346,3.3572,3.4636,3.5521,3.5388,3.5663,3.6557,3.7334,3.7708,3.7974,3.7974,3.7829,3.7589,3.7324,3.6459,3.5617,3.4943,3.4775,3.4775,3.4775,3.4775,3.4775,3.4751,3.451,3.4318,3.4536,3.47,3.4437,3.4916,3.5952,3.6911,3.772,3.8052,3.8127,3.7469,3.6577,3.617,3.588,2.8079,2.7318,2.5552,2.4541,2.4078,2.2979,2.2685,2.2927,2.2959,2.308,2.32,2.3225,2.314,2.2971,2.2794,2.2648,2.2515,2.2382,2.2249,2.2152,2.2374,2.2739,2.3339,2.4323,2.5868,2.8095,2.9026,3.0171,3.1001,3.1488,3.1377,3.1377,3.1377,3.1377,3.1377,3.1377,3.1377,3.1377,3.1377,3.1377,3.1377,3.1377,3.1377,3.1377,3.1377,3.1377,3.1377,3.1359,3.1121,3.0571,3.0369,2.9929,2.9415,2.914,2.8975,2.8975,2.8975,2.8975,2.8975,2.8975,2.8975,2.8975,2.8975,2.8975,2.8975,2.8975,2.8975,2.8975,2.8975,2.8975,2.8975,2.8975,2.8975,2.9272,2.9804,2.9922,3.0878,3.2664,3.3797,3.508,3.6091,3.5904,3.5827,3.6557,3.7334,3.7814,3.7974,3.7974,3.7661,3.7204,3.6916,3.6507,3.5641,3.4799,3.4775,3.4775,3.4775,3.4775,3.4775,3.4751,3.4655,3.4606,3.4848,3.4936,3.4915,3.5645,3.6805,3.7327,3.7749,3.8014,3.8202,3.7535,3.6867,3.6344,3.5909,2.7086,2.6458,2.4831,2.4093,2.3895,2.2878,2.2709,2.2963,2.2915,2.2911,2.3068,2.3157,2.2951,2.2585,2.2552,2.2418,2.2346,2.2273,2.2114,2.2141,2.2252,2.2423,2.285,2.3504,2.5257,2.7817,2.8555,2.9865,3.1217,3.1726,3.1524,3.1377,3.1377,3.1377,3.1377,3.1377,3.1377,3.1377,3.1377,3.1377,3.1377,3.1377,3.1377,3.1377,3.1377,3.1377,3.1377,3.1377,3.1176,3.0791,3.0387,2.9984,2.9562,2.9195,2.9012,2.8975,2.8975,2.8975,2.8975,2.8975,2.8975,2.8975,2.8975,2.8975,2.8975,2.8975,2.8975,2.8975,2.8975,2.8975,2.8975,2.8975,2.8975,2.9153,2.9568,2.939,2.9667,3.1727,3.3888,3.5466,3.6254,3.6417,3.6472,3.685,3.7388,3.7868,3.7974,3.7974,3.7613,3.7132,3.6747,3.6483,3.5833,3.4991,3.4775,3.4775,3.4775,3.4775,3.4775,3.4751,3.4679,3.487,3.5068,3.5198,3.5305,3.6002,3.6967,3.7325,3.7739,3.7976,3.8144,3.7854,3.7331,3.6693,3.588,2.5272,2.4267,2.4592,2.3985,2.2885,2.2975,2.2927,2.2842,2.3,2.3104,2.3249,2.3116,2.2782,2.2367,2.2174,2.2212,2.2321,2.2079,2.2066,2.2237,2.2297,2.2347,2.2621,2.3559,2.5052,2.7236,2.8174,2.9851,3.1565,3.199,3.1744,3.1433,3.1433,3.1396,3.1377,3.1377,3.1377,3.1377,3.1377,3.1377,3.1377,3.1377,3.1377,3.1377,3.1377,3.1377,3.1377,3.1377,3.1249,3.0864,3.0497,3.0094,2.9709,2.9305,2.9104,2.8993,2.8975,2.8975,2.8975,2.8975,2.8975,2.8975,2.8975,2.8975,2.8975,2.8975,2.8975,2.8975,2.8975,2.8975,2.8975,2.8975,2.8975,2.9094,2.9272,2.9213,2.9726,3.1323,3.3417,3.5576,3.6417,3.658,3.6958,3.7281,3.7441,3.7921,3.7974,3.7974,3.7805,3.7372,3.6892,3.6483,3.5954,3.5327,3.4847,3.4775,3.4775,3.4775,3.4775,3.4775,3.4751,3.5038,3.5407,3.5531,3.5679,3.6412,3.6988,3.7236,3.7558,3.7976,3.8086,3.7854,3.7331,3.6577,3.5735,2.531,2.423,2.387,2.3347,2.2721,2.2661,2.2757,2.2939,2.2915,2.285,2.2959,2.2757,2.2527,2.2271,2.2186,2.2162,2.2247,2.2249,2.2186,2.2223,2.2334,2.2346,2.2571,2.3041,2.4129,2.62,2.766,2.9306,3.1112,3.1877,3.2246,3.2056,3.1671,3.1414,3.1377,3.1396,3.1377,3.1377,3.1377,3.1377,3.1377,3.1377,3.1377,3.1377,3.1377,3.1377,3.1377,3.1377,3.1286,3.1084,3.0754,3.0351,2.9929,2.9525,2.9214,2.9012,2.8993,2.8975,2.8975,2.8975,2.8975,2.8975,2.8975,2.8975,2.8975,2.8975,2.8975,2.8975,2.8975,2.8975,2.8975,2.8975,2.8975,2.8975,2.8975,2.8975,2.9726,3.1207,3.336,3.5653,3.6417,3.6688,3.7173,3.7655,3.7838,3.7998,3.7974,3.795,3.7805,3.7613,3.7132,3.6627,3.6098,3.5495,3.5015,3.4871,3.4775,3.4775,3.4775,3.4775,3.4872,3.5451,3.5794,3.589,3.5992,3.6518,3.6889,3.7069,3.7443,3.7976,3.8078,3.7941,3.7273,3.6519,3.5764,2.4829,2.3744,2.3111,2.283,2.2697,2.2452,2.2661,2.2927,2.2806,2.2733,2.2709,2.2527,2.2394,2.2358,2.2334,2.2334,2.2334,2.2321,2.2334,2.2346,2.2346,2.2346,2.2334,2.2769,2.3819,2.5469,2.6705,2.831,3.0943,3.1711,3.2124,3.2253,3.2056,3.1799,3.1561,3.1433,3.1377,3.1377,3.1377,3.1377,3.1377,3.1377,3.1377,3.1377,3.1377,3.1377,3.1377,3.1377,3.1377,3.1231,3.0974,3.0589,3.0204,2.98,2.9397,2.9122,2.8975,2.8975,2.8975,2.8975,2.8975,2.8975,2.8975,2.8975,2.8975,2.8975,2.8975,2.8975,2.8975,2.8975,2.8975,2.8975,2.8975,2.8975,2.8975,2.9035,2.9608,3.0878,3.3381,3.5763,3.62,3.6688,3.7388,3.7868,3.7868,3.7974,3.7974,3.7974,3.7926,3.7685,3.7348,3.6843,3.6314,3.5737,3.5159,3.4967,3.4775,3.4775,3.4775,3.4775,3.5017,3.5571,3.5965,3.5998,3.6201,3.6592,3.6866,3.7119,3.7557,3.8052,3.8078,3.8028,3.7389,3.6664,3.6054,2.3451,2.242,2.237,2.2515,2.2721,2.2721,2.2733,2.2754,2.2806,2.2782,2.277,2.2697,2.2539,2.2382,2.2346,2.2346,2.2346,2.2346,2.2346,2.2346,2.2346,2.2346,2.2408,2.2856,2.3513,2.5245,2.6402,2.7896,3.0734,3.1185,3.1749,3.2453,3.2588,3.2276,3.1983,3.1579,3.1396,3.1377,3.1377,3.1377,3.1377,3.1377,3.1377,3.1377,3.1377,3.1377,3.1377,3.1377,3.1377,3.1304,3.1084,3.0681,3.0222,2.9855,2.9452,2.903,2.8993,2.8975,2.8975,2.8975,2.8975,2.8975,2.8975,2.8975,2.8975,2.8975,2.8975,2.8975,2.8975,2.8975,2.8975,2.8975,2.8975,2.8975,2.8975,2.9094,2.9667,3.0704,3.3212,3.5543,3.62,3.6634,3.7441,3.7974,3.7974,3.7974,3.7974,3.7974,3.7974,3.7829,3.7517,3.7036,3.6507,3.5978,3.5399,3.4991,3.4847,3.4775,3.4727,3.4655,3.4897,3.5401,3.574,3.6024,3.6314,3.6599,3.688,3.7191,3.7632,3.8052,3.8165,3.8028,3.7418,3.6809,3.6199,2.3351,2.2334,2.2346,2.2491,2.2709,2.2733,2.2818,2.3,2.308,2.308,2.2975,2.2818,2.2588,2.2406,2.2346,2.2346,2.2346,2.2346,2.2346,2.2346,2.2346,2.2346,2.2408,2.2558,2.3141,2.424,2.5304,2.7084,2.977,3.0356,3.1983,3.3034,3.2911,3.2625,3.2166,3.1799,3.1708,3.1433,3.1377,3.1377,3.1377,3.1377,3.1377,3.1377,3.1377,3.1377,3.1377,3.1377,3.1377,3.1377,3.1157,3.0846,3.0351,2.9965,2.9654,2.9177,2.8975,2.8975,2.8975,2.8975,2.8975,2.8975,2.8975,2.8975,2.8975,2.8975,2.8975,2.8975,2.8975,2.8975,2.8975,2.8975,2.8975,2.8975,2.8975,2.8975,2.9509,3.0937,3.2871,3.508,3.6363,3.6904,3.7601,3.7974,3.7974,3.7974,3.7974,3.7974,3.7974,3.7926,3.7709,3.7204,3.6675,3.617,3.5689,3.5208,3.4823,3.4775,3.4583,3.439,3.4726,3.5207,3.574,3.6106,3.633,3.6561,3.6921,3.7254,3.7691,3.7976,3.8127,3.8202,3.7854,3.7128,3.6344,2.3042,2.2467,2.2467,2.2609,2.2874,2.2903,2.3012,2.3188,2.3357,2.3249,2.2975,2.2709,2.2503,2.237,2.2346,2.2346,2.2346,2.2346,2.2346,2.2346,2.2346,2.2346,2.2346,2.2334,2.2856,2.3513,2.4449,2.6109,2.8254,2.9361,3.0468,3.1668,3.2972,3.2413,3.1956,3.1529,3.1873,3.1634,3.1543,3.1377,3.1377,3.1377,3.1377,3.1377,3.1377,3.1377,3.1377,3.1377,3.1377,3.1377,3.1267,3.0992,3.0461,3.0112,2.9782,2.925,2.8975,2.8975,2.8975,2.8975,2.8975,2.8975,2.8975,2.8975,2.8975,2.8975,2.8975,2.8975,2.8975,2.8975,2.8975,2.8975,2.8975,2.8975,2.8975,2.8975,2.945,3.082,3.2436,3.4636,3.6091,3.6773,3.7655,3.7814,3.7974,3.7974,3.7974,3.7974,3.7974,3.7926,3.7878,3.7445,3.6892,3.6338,3.5809,3.5256,3.4943,3.4799,3.4558,3.4318,3.4583,3.5041,3.5628,3.6116,3.6141,3.6346,3.6907,3.7366,3.7605,3.7901,3.8165,3.8202,3.8202,3.7447,3.646,2.2503,2.2721,2.2745,2.2983,2.3291,2.3249,2.3285,2.3387,2.3387,2.3176,2.2733,2.2515,2.2394,2.2358,2.2346,2.2346,2.237,2.237,2.2358,2.237,2.2394,2.237,2.2346,2.2408,2.2856,2.3215,2.3944,2.5185,2.6794,2.8084,2.886,2.9932,3.2158,3.191,3.1416,3.1563,3.1906,3.1744,3.1524,3.1396,3.1377,3.1377,3.1377,3.1377,3.1377,3.1377,3.1377,3.1377,3.1377,3.1377,3.1359,3.0882,3.0479,3.0222,2.969,2.9232,2.8993,2.8975,2.8975,2.8975,2.8975,2.8975,2.8975,2.8975,2.8975,2.8975,2.8975,2.8975,2.8975,2.8975,2.8975,2.8975,2.8975,2.8975,2.8975,2.9153,2.939,3.0587,3.2207,3.3853,3.5113,3.6208,3.7548,3.7974,3.7974,3.7974,3.7974,3.7974,3.7974,3.7974,3.7902,3.7781,3.718,3.6531,3.5954,3.5327,3.4943,3.4775,3.4607,3.4414,3.4655,3.4848,3.539,3.5713,3.5737,3.6078,3.6836,3.7214,3.7384,3.7711,3.8165,3.8202,3.8202,3.7389,3.6554,2.277,2.3024,2.314,2.3418,2.3756,2.4045,2.4021,2.3676,2.364,2.3345,2.2721,2.2648,2.2527,2.2271,2.2346,2.2358,2.2418,2.2479,2.2455,2.2455,2.2479,2.2443,2.2469,2.2558,2.3005,2.3377,2.3883,2.4757,2.6721,2.765,2.8357,2.9647,3.1296,3.1235,3.1338,3.1783,3.1847,3.1689,3.1451,3.1396,3.1377,3.1377,3.1377,3.1377,3.1377,3.1377,3.1377,3.1377,3.1377,3.1377,3.1377,3.0992,3.0296,3.0167,2.9855,2.9122,2.8975,2.8975,2.8975,2.8975,2.8975,2.8975,2.8975,2.8975,2.8975,2.8975,2.8975,2.8975,2.8975,2.8975,2.8975,2.8975,2.8975,2.8975,2.9094,2.9331,2.9667,3.0665,3.2264,3.4168,3.5388,3.6394,3.7708,3.7974,3.7974,3.7974,3.7974,3.7974,3.7974,3.7974,3.795,3.7853,3.7348,3.6651,3.6098,3.5471,3.5087,3.4751,3.4583,3.439,3.4318,3.4556,3.5145,3.5704,3.6196,3.6565,3.6904,3.719,3.7404,3.7825,3.8202,3.8202,3.8057,3.7331,3.6693,2.3273,2.3526,2.3695,2.3913,2.4109,2.4492,2.4323,2.382,2.384,2.3393,2.2782,2.2842,2.2733,2.2552,2.2612,2.2624,2.2527,2.2624,2.2624,2.2739,2.2564,2.2668,2.2744,2.2781,2.3079,2.3451,2.3883,2.4401,2.6137,2.736,2.8141,2.749,2.979,3.0467,3.0565,3.1293,3.1997,3.1671,3.1377,3.1377,3.1377,3.1377,3.1377,3.1377,3.1377,3.1377,3.1377,3.1377,3.1377,3.1377,3.1377,3.0992,3.0259,2.991,2.9635,2.9012,2.8975,2.8975,2.8975,2.8975,2.8975,2.8975,2.8975,2.8975,2.8975,2.8975,2.8975,2.8975,2.8975,2.8975,2.8975,2.8975,2.8975,2.8975,2.9272,2.9568,3.0197,3.0898,3.2701,3.4836,3.6068,3.6904,3.7548,3.7814,3.7974,3.7974,3.7974,3.7974,3.7974,3.7974,3.7974,3.7926,3.7372,3.6723,3.6194,3.5639,3.5207,3.4919,3.4679,3.4462,3.4126,3.4458,3.5169,3.6115,3.7067,3.7167,3.7125,3.7296,3.7481,3.7901,3.8202,3.8202,3.8057,3.7593,3.6983,2.3941,2.4238,2.4263,2.4395,2.4625,2.4613,2.4299,2.3796,2.384,2.3418,2.2838,2.3012,2.2963,2.2818,2.2915,2.2903,2.2806,2.2806,2.2922,2.3164,2.2627,2.2655,2.2881,2.2856,2.3154,2.3513,2.3957,2.4327,2.4844,2.5859,2.6137,2.4991,2.8932,3.0186,2.9106,3.1346,3.2118,3.1524,3.1377,3.1377,3.1377,3.1377,3.1377,3.1377,3.1377,3.1377,3.1377,3.1377,3.1377,3.1377,3.1267,3.0974,3.0259,2.9507,2.914,2.9085,2.9067,2.9048,2.9048,2.9067,2.903,2.9012,2.8975,2.8975,2.8975,2.8975,2.8975,2.8975,2.8975,2.8975,2.8975,2.8975,2.8975,2.8975,2.9153,2.9844,3.084,3.1805,3.3494,3.53,3.6231,3.712,3.7708,3.7974,3.7974,3.7974,3.7974,3.7974,3.7974,3.7974,3.7974,3.795,3.7421,3.6867,3.6362,3.5857,3.5376,3.5064,3.4823,3.4462,3.4102,3.4579,3.5318,3.6302,3.7315,3.725,3.7226,3.7381,3.7625,3.7976,3.8202,3.8202,3.7999,3.7738,3.7157,2.4299,2.4528,2.454,2.4685,2.4866,2.4504,2.4073,2.3852,2.384,2.3514,2.3121,2.3097,2.3109,2.3072,2.3133,2.3109,2.3036,2.2963,2.3044,2.3062,2.2751,2.273,2.303,2.3079,2.3302,2.36,2.397,2.4341,2.4697,2.4991,2.5212,2.5065,2.8269,2.9151,2.8419,3.104,3.2137,3.1506,3.1377,3.1377,3.1377,3.1377,3.1377,3.1377,3.1377,3.1377,3.1377,3.1377,3.1377,3.1377,3.1377,3.0937,3.0241,2.9434,2.9048,2.903,2.925,2.9214,2.9177,2.9214,2.9232,2.9048,2.8975,2.8975,2.8975,2.8975,2.8975,2.8975,2.8975,2.8975,2.8975,2.8975,2.8975,2.8975,2.9035,3.0197,3.1343,3.2928,3.4447,3.5466,3.6417,3.712,3.7761,3.7974,3.7974,3.7974,3.7974,3.7974,3.7974,3.7974,3.7974,3.7902,3.7517,3.7012,3.6507,3.605,3.5569,3.5112,3.4775,3.4438,3.4102,3.4733,3.5486,3.6569,3.7399,3.7355,3.7349,3.743,3.7701,3.8052,3.8202,3.8202,3.8202,3.7999,3.7302,2.4745,2.4963,2.4771,2.4602,2.4492,2.4299,2.4094,2.3796,2.384,2.3683,2.343,2.3393,2.3333,2.3285,2.3345,2.3188,2.3181,2.3121,2.3093,2.3074,2.2827,2.298,2.3129,2.3302,2.36,2.3896,2.4267,2.4562,2.4636,2.4636,2.477,2.5212,2.746,2.9019,2.8772,3.0939,3.2313,3.1689,3.1506,3.1396,3.1377,3.1377,3.1377,3.1377,3.1377,3.1377,3.1377,3.1377,3.1377,3.1194,3.1029,3.0717,3.0094,2.9434,2.9159,2.925,2.9476,2.9531,2.936,2.936,2.9397,2.914,2.8975,2.8975,2.8975,2.8975,2.8975,2.8975,2.8975,2.8975,2.8975,2.8975,2.8975,2.8975,2.9272,2.9962,3.1785,3.3663,3.5057,3.6309,3.6958,3.7227,3.7761,3.7974,3.7974,3.7974,3.7974,3.7974,3.7974,3.7974,3.7974,3.7926,3.7589,3.7084,3.6507,3.6122,3.5761,3.5328,3.4775,3.4726,3.4597,3.5072,3.5719,3.6599,3.7236,3.7466,3.7489,3.7487,3.7739,3.8089,3.8202,3.8202,3.8202,3.8173,3.7651,2.5011,2.5289,2.4951,2.4552,2.3973,2.4013,2.4057,2.3784,2.384,2.384,2.3804,2.3792,2.3616,2.358,2.3695,2.343,2.3212,2.3169,2.3117,2.3013,2.2542,2.2843,2.3104,2.3302,2.3748,2.4401,2.4918,2.477,2.4636,2.4636,2.4844,2.5419,2.7141,2.9099,2.9691,3.1045,3.2459,3.1983,3.1689,3.1469,3.1414,3.1377,3.1377,3.1377,3.1377,3.1377,3.1377,3.1377,3.1377,3.1102,3.0736,3.0406,3.0002,2.947,2.9287,2.9305,2.9617,2.958,2.9489,2.958,2.9379,2.914,2.903,2.8975,2.8975,2.8975,2.8975,2.8975,2.8975,2.8975,2.8975,2.8993,2.8993,2.9153,2.945,3.006,3.2166,3.4224,3.563,3.6904,3.7304,3.7495,3.7708,3.7974,3.7974,3.7974,3.7974,3.7974,3.7974,3.7974,3.7974,3.7974,3.7829,3.7252,3.6579,3.6242,3.593,3.5256,3.48,3.4915,3.5059,3.5249,3.5626,3.6297,3.6866,3.7106,3.7433,3.7515,3.7825,3.8127,3.8165,3.8202,3.8202,3.8144,3.797,2.4733,2.4758,2.4492,2.4205,2.4049,2.3997,2.3808,2.3852,2.384,2.384,2.376,2.376,2.3724,2.3688,2.3724,2.3599,2.3273,2.3181,2.3181,2.3088,2.2518,2.2731,2.2992,2.3377,2.3896,2.4697,2.558,2.5653,2.5639,2.5212,2.5359,2.6575,2.8141,2.9682,3.0751,3.1936,3.2735,3.2239,3.1909,3.1689,3.1414,3.1377,3.1377,3.1377,3.1377,3.1377,3.1377,3.1377,3.1377,3.1139,3.0699,3.0351,2.9965,2.9525,2.9269,2.936,2.969,2.969,2.9654,2.98,2.9635,2.9159,2.9048,2.8975,2.8975,2.8975,2.8975,2.8975,2.8975,2.8975,2.8993,2.9048,2.9108,2.935,2.9667,3.0917,3.2566,3.428,3.5795,3.6796,3.7548,3.7708,3.7868,3.7974,3.7974,3.7974,3.7974,3.7974,3.7974,3.7974,3.7974,3.7974,3.7974,3.7324,3.6603,3.6411,3.6074,3.5352,3.48,3.4843,3.4941,3.5203,3.5643,3.6133,3.6443,3.6678,3.7001,3.7533,3.7787,3.8052,3.8165,3.8202,3.8202,3.8173,3.8028]}]]